GFSNW_500_rhum_000.txt.gz
RH
25 18 13 25 33 21 20 16 8 11 16 15 12 10 15 15 14 12 8 6 3 6 8 10 8 9 10 13 15 22 28 26 27 30 28 17 15 19 20 16 16 16 16 17
20 16 33 14 41 14 18 10 10 15 16 11 9 9 18 17 14 11 8 6 5 26 33 25 14 13 14 11 18 22 23 25 28 26 21 15 19 17 16 16 17 18 17 15
26 35 36 15 43 10 15 9 11 16 15 10 8 10 15 12 13 10 8 7 6 33 39 30 22 21 17 13 20 21 26 26 28 29 24 23 23 19 17 16 18 19 19 17
36 50 21 28 40 10 12 8 11 14 12 8 7 10 12 10 12 10 8 8 6 17 35 27 27 22 15 22 20 26 26 26 26 25 27 26 22 20 20 18 20 20 21 20
56 62 20 39 34 11 10 8 11 14 14 10 7 9 10 11 12 10 9 9 6 6 23 27 22 20 21 23 21 27 28 28 28 26 26 25 23 21 22 21 22 22 21 22
66 71 18 42 28 11 8 8 14 15 14 13 8 8 10 12 12 10 10 10 7 5 6 20 19 23 26 24 22 26 30 28 28 28 28 25 20 20 20 20 21 22 21 22
93 57 22 43 25 12 8 10 16 16 14 13 10 9 10 12 12 10 9 11 9 6 5 9 21 15 18 21 22 23 26 30 29 26 26 22 18 19 18 19 20 23 22 23
95 40 32 44 21 12 8 10 16 17 17 16 14 12 11 12 12 11 9 10 11 7 6 5 8 18 24 19 16 20 22 28 32 34 30 24 24 21 18 18 22 24 24 24
48 34 46 42 18 12 9 9 15 18 18 15 16 13 13 12 12 11 10 11 11 9 7 5 4 6 12 21 25 25 20 19 25 31 31 25 25 27 28 27 20 26 24 25
36 47 53 37 16 12 10 11 13 16 18 18 16 15 16 14 13 12 11 11 11 9 8 7 5 4 5 8 13 25 31 31 25 22 19 14 24 27 29 26 26 22 24 24
48 59 50 28 15 11 11 13 14 16 18 20 18 18 17 15 15 14 11 11 10 10 9 9 7 4 4 6 8 12 16 22 31 35 30 24 30 29 29 28 27 27 27 27
72 63 39 18 14 11 12 12 13 15 16 18 18 18 17 16 14 12 11 10 11 11 10 10 8 6 4 4 5 10 16 29 30 37 40 44 40 42 44 44 41 38 35 35
82 98 33 18 14 30 90 43 14 11 12 14 14 14 14 13 13 12 11 13 14 12 10 8 8 8 7 7 7 9 14 19 20 24 33 38 37 32 36 36 37 39 44 53
100 96 26 20 16 98 99 100 89 43 22 16 15 13 13 13 12 11 12 12 9 8 6 6 7 8 8 7 6 7 12 17 20 16 22 25 35 44 46 43 44 50 54 51
100 100 55 23 20 33 41 43 36 41 40 25 23 19 15 10 8 7 7 7 7 7 6 7 7 6 5 5 5 7 21 32 24 19 28 27 32 40 47 50 61 57 57 62
99 100 100 93 44 20 14 11 8 10 10 11 10 11 9 10 10 9 9 8 8 7 8 9 8 12 11 8 10 20 35 35 37 39 50 56 65 67 74 77 74 74 71 50
98 96 91 74 64 55 37 26 31 24 21 16 11 11 13 14 16 19 23 24 23 21 20 18 17 16 16 14 16 49 61 59 68 82 79 79 91 79 88 85 83 59 52 77
100 99 99 99 86 72 65 56 46 42 37 32 28 28 35 37 36 35 35 33 32 33 39 47 53 53 52 47 51 60 73 82 98 97 92 79 73 78 75 70 63 80 85 82
100 100 100 100 100 100 100 96 84 75 69 62 56 53 56 56 60 56 51 45 48 47 45 46 40 35 34 34 39 52 65 73 75 78 72 56 57 75 84 90 93 93 92 100
100 100 100 100 100 100 100 99 84 68 56 50 49 52 50 60 61 54 48 43 44 36 36 33 24 20 28 35 42 46 48 48 54 62 88 92 91 93 99 93 87 91 99 100
89 83 78 77 86 88 82 71 65 55 46 40 37 44 64 61 46 42 36 25 23 21 22 33 38 50 59 58 58 73 87 91 91 91 95 95 89 88 93 94 91 96 100 100
64 67 63 60 59 50 42 34 35 34 40 51 80 78 69 67 77 93 77 62 46 37 43 59 56 57 69 74 77 83 86 89 91 92 93 94 95 98 99 100 100 100 96 88
89 98 100 100 99 94 84 74 69 72 78 73 65 61 67 88 99 100 97 94 84 80 73 66 61 75 78 81 85 88 92 94 94 95 97 95 96 93 90 93 96 99 100 100
100 95 97 95 81 78 73 73 78 84 88 91 91 90 93 100 100 100 100 100 95 84 79 84 96 94 93 92 81 76 74 73 76 81 88 95 97 100 100 100 100 100 100 100
99 100 100 88 84 79 80 87 90 92 91 88 90 94 96 100 100 100 98 100 100 94 94 88 83 75 68 69 75 82 91 99 100 100 100 100 100 100 100 100 100 100 100 100
94 97 93 92 93 94 95 95 95 92 90 93 99 100 100 100 100 100 100 100 94 86 80 81 79 94 99 100 95 97 98 100 99 95 98 100 100 100 100 100 100 100 93 74
95 99 100 100 100 100 100 100 100 100 100 100 100 100 100 93 90 87 77 63 50 38 44 54 67 50 72 100 100 100 100 100 100 100 100 100 100 99 98 88 63 35 23 18

GFSNW_500_rhum_003.txt.gz
RH
35 41 33 23 19 17 21 15 26 14 14 20 20 19 14 13 10 10 12 12 10 7 6 7 12 15 12 12 12 11 12 16 22 25 30 27 25 18 20 22 19 17 17 17
66 46 31 19 21 18 30 14 32 12 15 17 19 14 10 14 11 14 10 8 5 2 15 13 10 9 9 10 13 14 17 25 28 25 26 21 16 19 18 16 16 17 17 17
77 52 34 24 25 20 30 16 31 11 15 18 18 12 10 17 15 13 11 8 4 6 34 37 29 16 12 13 13 13 21 27 25 28 26 23 17 20 20 18 18 16 18 18
78 50 43 37 30 26 24 16 26 10 12 16 15 10 10 18 15 14 10 9 7 8 28 40 35 25 22 19 13 18 20 24 26 27 26 22 19 20 21 20 20 19 19 20
71 59 54 47 25 35 19 18 20 11 15 18 13 9 11 16 14 13 10 10 11 6 11 31 34 27 26 21 14 20 22 26 26 25 24 22 21 24 22 23 21 20 20 19
76 65 55 44 21 39 14 19 17 11 16 16 11 8 10 12 11 13 11 10 13 9 4 7 25 27 24 17 20 19 22 25 26 22 25 22 19 22 23 22 21 20 19 19
72 63 49 25 28 40 12 19 14 12 16 15 11 8 9 12 12 13 12 11 12 13 8 5 6 21 20 21 22 21 20 22 23 23 23 17 18 22 24 23 22 21 20 21
64 52 40 25 45 34 14 18 13 13 18 17 13 10 10 10 12 14 13 12 10 11 12 8 5 5 13 20 16 14 17 18 20 22 22 20 21 24 27 27 26 31 31 29
59 53 38 38 47 24 14 18 12 14 20 18 19 12 9 10 11 14 14 12 11 10 11 10 9 6 5 6 11 21 24 21 19 17 17 14 17 21 24 25 22 30 27 26
80 69 43 42 45 19 16 37 12 14 20 22 19 14 12 11 11 13 13 13 12 10 10 10 9 9 9 6 5 7 10 11 13 15 16 14 24 27 28 30 28 26 30 33
100 73 36 43 42 19 15 16 13 15 20 23 20 18 15 16 15 15 13 13 12 12 9 10 10 9 10 9 8 8 9 9 12 15 14 18 24 24 29 32 37 34 36 44
86 48 48 51 38 18 16 16 16 15 20 23 23 21 19 18 17 16 15 14 12 11 10 10 10 10 10 10 8 9 8 11 10 12 12 14 14 15 18 21 27 33 35 39
54 62 60 48 31 18 20 27 45 43 22 21 22 22 21 20 18 17 15 13 13 12 11 10 11 11 11 10 8 9 9 10 10 10 19 18 14 14 15 18 25 33 37 40
69 57 47 38 24 23 19 16 30 54 46 32 26 31 24 21 20 18 17 16 13 12 10 9 9 9 8 7 7 7 7 8 9 8 11 10 15 22 27 31 35 39 41 46
66 80 56 26 23 34 79 24 29 33 50 33 29 36 46 22 18 16 14 14 12 11 9 7 6 6 6 6 6 7 14 14 11 11 17 18 25 32 38 49 65 67 69 76
94 98 71 24 28 27 100 99 89 21 34 31 20 27 25 21 18 17 15 15 14 8 6 6 6 7 7 6 9 18 20 19 21 25 32 41 47 51 54 61 71 73 72 74
100 93 48 47 94 100 100 100 100 100 94 86 57 50 62 49 52 26 14 8 7 7 8 9 11 15 16 16 18 30 44 51 52 52 49 50 53 57 64 71 72 65 59 73
100 100 98 41 27 54 89 98 89 65 36 21 18 19 19 38 20 13 13 14 16 18 21 23 26 28 34 39 52 50 46 50 58 59 57 59 63 66 68 65 63 81 84 82
100 100 100 100 87 62 45 33 26 20 21 16 16 23 34 37 42 45 46 47 42 44 44 49 49 47 43 39 37 32 31 38 44 51 57 56 56 71 79 78 78 86 92 93
99 100 100 98 99 96 80 70 62 59 55 53 56 69 71 80 84 79 74 70 66 57 51 46 43 38 37 36 30 36 66 76 73 65 63 78 82 82 88 96 100 100 100 100
98 99 100 100 100 100 100 98 95 96 91 91 92 96 100 100 92 92 90 77 65 52 43 41 37 36 38 43 58 76 86 87 88 89 90 91 91 91 94 96 100 100 100 100
100 100 100 100 100 100 98 85 82 74 78 81 94 99 89 73 84 88 74 71 63 55 56 60 54 68 73 79 88 87 85 84 87 92 92 94 98 100 100 100 100 100 99 94
100 100 96 98 99 84 69 65 71 65 57 60 81 88 89 90 89 85 79 66 64 72 68 64 66 78 74 82 80 82 84 81 79 75 69 66 71 77 80 86 90 94 96 100
100 100 97 90 70 60 62 75 87 98 100 100 99 99 96 99 99 98 96 89 84 74 73 86 88 81 79 76 75 77 76 74 73 72 77 83 84 92 98 95 94 92 98 100
97 98 94 94 92 84 90 95 95 92 86 81 91 100 100 100 100 100 97 93 86 85 91 96 90 91 90 93 90 81 74 67 59 54 40 48 88 100 100 95 97 100 100 100
100 95 91 92 100 100 100 100 100 100 99 99 100 100 100 100 100 100 100 100 100 100 100 99 94 90 86 73 54 34 16 8 6 8 47 99 100 100 100 100 100 100 98 84
100 100 100 100 100 100 100 100 100 100 100 100 100 100 100 100 100 100 100 100 96 90 78 59 30 13 4 0 0 0 1 4 19 60 90 92 87 73 93 100 91 72 64 50

GFSNW_500_rhum_006.txt.gz
RH
1 1 0 1 15 36 25 17 19 25 32 34 11 12 17 22 16 13 12 11 11 12 12 13 14 14 14 13 13 11 9 9 11 15 19 20 22 25 26 20 22 19 19 19
1 0 0 1 17 32 22 16 22 35 42 20 12 18 21 20 13 11 12 12 12 10 8 6 6 7 11 11 12 10 10 10 12 15 23 24 26 22 18 20 19 16 16 18
4 58 0 3 24 37 24 21 30 42 26 14 19 22 20 15 10 10 12 10 7 3 5 14 11 11 11 9 9 11 13 13 18 24 28 30 25 17 19 18 16 17 17 18
38 34 7 24 52 34 22 20 26 33 17 12 22 23 17 11 10 13 12 11 7 5 13 34 36 35 21 13 12 12 12 16 24 29 26 28 23 17 16 19 21 19 20 21
81 68 69 94 56 33 19 24 25 25 20 16 23 21 13 11 13 14 12 10 9 6 11 28 36 29 30 26 23 17 12 18 22 25 25 25 24 21 17 20 24 22 23 22
89 68 97 99 42 25 18 30 22 36 20 16 23 17 10 14 15 14 13 11 12 10 6 5 24 31 28 26 24 15 15 20 24 23 23 21 18 20 21 23 26 26 23 23
29 66 100 69 34 28 26 31 19 34 19 16 23 16 10 15 21 14 14 11 12 14 12 7 6 18 24 24 19 16 19 19 20 22 24 19 19 21 24 24 26 25 25 25
80 89 93 56 48 28 34 33 21 34 22 17 23 16 10 12 17 13 14 12 11 11 12 12 10 6 8 22 19 19 20 20 19 18 20 18 19 20 22 24 27 30 30 30
95 100 64 57 43 34 40 31 22 34 24 16 23 17 10 10 12 12 13 13 12 11 10 10 11 10 8 6 6 15 22 22 19 19 19 16 17 19 19 19 18 17 21 24
100 83 68 55 44 42 44 27 26 34 21 24 21 15 11 10 11 12 14 14 14 12 10 9 9 9 10 10 10 8 6 6 6 9 9 7 11 12 13 17 20 19 20 22
90 71 60 50 48 51 38 25 28 27 17 22 21 18 13 10 10 11 13 15 14 13 12 11 10 8 9 10 11 11 10 9 8 8 9 10 12 10 12 12 10 12 14 15
70 57 44 44 54 50 47 26 26 22 16 22 22 23 17 15 14 15 15 14 14 13 12 12 11 9 9 11 11 12 11 11 10 10 10 10 8 8 8 9 9 11 12 18
50 45 42 48 56 44 30 42 39 20 17 26 25 24 23 20 16 16 15 13 13 12 12 13 11 10 10 10 10 11 11 10 9 8 11 8 6 7 7 9 12 17 20 26
68 57 40 48 57 41 21 30 42 25 30 45 26 27 24 23 22 19 17 17 15 14 14 13 12 11 10 9 9 8 7 7 7 6 7 7 9 13 15 17 22 29 40 53
82 58 46 50 48 32 21 22 39 50 51 41 33 25 26 24 24 23 20 19 19 18 16 14 12 11 11 9 6 6 6 6 7 8 12 14 17 23 36 42 47 51 51 53
60 61 61 49 34 24 32 45 70 71 98 66 47 30 33 32 32 33 32 23 21 19 16 14 13 13 9 6 6 8 12 15 15 17 28 48 50 48 45 44 49 48 53 52
63 50 40 32 29 66 54 100 70 96 100 96 89 92 72 64 58 62 60 39 18 17 16 14 13 8 6 6 8 16 23 30 41 50 50 43 39 36 39 41 43 46 50 67
96 96 96 99 93 99 79 72 63 69 79 84 89 70 66 55 47 41 41 34 31 28 20 11 9 9 11 15 28 41 52 56 53 45 37 32 34 51 60 64 61 68 82 80
99 100 100 100 100 100 100 100 95 95 100 90 61 59 70 61 57 58 73 71 55 24 12 17 19 25 36 48 50 48 46 44 39 32 29 38 64 71 69 72 79 82 81 80
94 99 98 99 100 100 100 100 100 100 100 100 93 74 51 37 28 26 24 24 27 28 33 40 44 49 59 57 53 47 40 39 40 44 56 72 82 83 84 82 81 80 81 85
98 100 100 81 56 68 70 76 74 67 51 36 29 44 49 54 50 62 68 59 68 59 58 66 58 50 59 70 78 81 79 77 80 86 88 87 85 83 78 75 74 73 73 75
98 100 100 98 96 82 64 52 55 46 52 62 81 90 90 93 100 100 86 82 77 63 61 61 51 58 68 83 85 80 80 81 83 84 82 82 82 83 80 75 68 59 47 40
100 96 97 92 89 83 83 86 94 100 100 100 100 98 94 91 84 70 58 58 59 68 66 63 62 81 91 82 81 84 84 84 84 81 82 84 83 76 56 36 18 8 26 65
98 100 100 100 98 89 97 100 100 100 100 100 100 94 90 89 91 89 91 85 85 79 74 78 90 96 92 87 86 87 85 84 84 85 82 67 45 19 5 1 5 13 48 74
100 97 97 91 86 83 90 100 100 100 98 91 93 96 100 100 96 97 96 96 85 79 85 98 91 92 90 90 90 91 92 83 66 41 19 5 1 1 4 5 8 11 14 21
100 99 99 100 100 100 100 94 91 100 98 100 100 99 96 98 98 95 97 100 96 99 100 99 100 97 100 98 85 63 38 13 5 4 5 6 7 8 8 9 10 14 33 69
100 100 100 97 99 100 100 100 100 100 100 100 100 100 100 100 100 100 100 100 100 100 100 100 100 90 64 36 15 5 6 6 7 8 8 9 9 10 10 12 15 22 35 55

GFSNW_500_rhum_009.txt.gz
RH
2 2 2 2 1 2 5 3 20 26 20 21 22 33 12 10 14 17 22 18 16 14 16 12 13 43 47 13 12 12 12 12 10 23 8 10 12 16 17 20 26 23 22 28
2 2 2 2 2 2 2 3 33 32 22 20 43 35 11 9 19 19 16 13 12 10 10 12 12 13 11 13 14 13 12 10 9 10 11 13 23 26 28 26 20 20 19 27
1 2 2 2 2 2 1 16 34 33 20 26 56 26 7 13 19 15 13 10 11 12 12 11 9 9 10 12 13 15 13 12 11 13 94 46 28 27 26 17 16 19 15 17
1 2 2 1 2 2 0 15 27 30 19 29 54 26 10 19 19 13 10 11 12 8 6 3 3 11 8 8 8 10 9 11 12 15 18 27 24 27 22 14 17 17 19 21
1 2 1 3 2 1 1 6 30 32 35 46 42 16 13 20 18 11 10 11 9 6 5 10 36 40 37 28 17 12 11 12 14 18 28 26 23 24 23 18 16 17 20 22
1 2 1 36 46 3 2 29 40 30 41 53 35 13 17 24 18 10 12 11 8 6 6 13 30 39 38 33 31 26 22 14 14 18 22 22 18 22 25 26 26 27 26 28
5 1 4 79 15 5 32 37 38 28 60 59 31 17 22 25 14 11 12 11 11 10 8 6 8 29 38 35 31 26 24 15 16 20 24 21 22 23 24 24 26 29 26 28
8 69 15 66 4 32 78 60 37 60 74 64 31 19 25 22 13 12 13 11 11 13 14 13 9 7 14 31 30 27 18 18 20 18 19 20 20 18 23 25 29 22 25 27
100 98 62 20 23 95 100 59 39 34 74 55 27 21 25 16 13 14 13 11 11 11 12 12 13 13 9 7 11 23 25 23 21 21 19 16 16 18 18 17 20 9 17 18
100 99 100 68 50 97 94 73 33 37 79 60 27 22 24 16 16 17 13 13 12 11 11 12 15 11 11 11 11 11 8 6 6 7 6 6 6 7 8 10 13 12 12 13
100 97 98 65 74 100 85 77 31 46 68 57 24 24 24 18 15 19 15 13 13 12 12 17 17 12 10 10 11 11 11 11 10 10 10 9 10 9 9 9 8 8 8 10
92 100 71 99 100 100 80 65 39 43 46 48 26 19 22 17 17 20 18 14 15 15 13 13 24 16 11 11 10 11 10 11 10 11 11 10 8 7 6 6 6 7 6 8
100 97 100 100 98 81 64 62 46 30 34 43 30 19 21 21 14 12 14 14 15 15 14 14 15 12 12 11 10 10 10 10 10 9 8 7 5 6 5 5 6 8 10 14
100 100 100 95 65 44 73 83 43 27 31 41 32 21 20 22 17 14 14 15 17 14 13 13 13 12 12 12 12 11 12 11 9 7 7 6 6 6 6 10 12 17 29 41
100 99 75 55 52 50 83 72 33 25 30 43 42 29 22 24 22 19 17 17 16 15 14 14 14 14 14 14 13 13 13 10 7 6 6 8 9 10 14 24 41 45 40 33
81 56 49 49 51 54 64 53 28 23 26 42 40 28 25 26 26 25 24 22 22 19 16 17 16 18 18 16 15 14 13 9 7 7 10 15 19 25 47 47 42 33 25 25
47 47 52 59 58 50 42 63 49 45 33 36 51 39 29 30 29 27 26 25 23 22 24 29 24 22 19 17 17 13 12 10 10 18 29 38 51 46 42 38 30 25 32 61
56 52 51 51 50 59 67 49 39 67 94 87 60 44 36 30 29 32 32 46 50 48 54 58 45 26 20 18 18 16 19 29 29 44 47 47 45 42 36 31 32 47 70 73
58 57 58 50 44 63 79 100 100 100 96 92 92 68 52 51 53 70 80 83 86 75 60 50 45 39 31 28 26 34 43 52 53 53 49 44 43 48 49 54 68 73 70 69
55 49 43 42 49 75 98 100 94 99 100 100 100 100 100 100 100 99 99 93 71 52 59 64 55 46 34 38 58 69 68 62 57 56 59 65 74 76 76 75 76 80 81 78
97 90 91 100 99 95 96 100 94 93 89 90 88 89 88 92 96 100 98 82 69 60 51 43 29 21 52 79 87 77 69 65 65 73 80 82 83 81 83 86 86 84 82 78
99 100 100 100 100 100 100 100 91 87 93 91 96 99 99 94 75 62 50 41 37 29 35 44 38 50 75 73 74 74 70 74 87 91 94 91 89 93 93 89 86 78 53 30
95 96 96 94 95 100 90 96 100 100 100 100 100 89 61 42 43 59 73 82 84 81 73 66 58 62 74 78 84 88 84 82 90 97 100 100 100 96 88 70 39 20 7 6
95 98 96 100 94 85 83 82 90 99 100 98 99 99 100 100 100 100 99 92 89 79 67 58 81 89 94 97 95 97 97 100 100 100 100 96 85 57 26 9 6 7 7 7
100 100 100 100 99 94 97 100 97 96 95 96 100 99 95 93 92 88 87 87 82 74 74 88 93 96 97 100 100 92 91 95 97 98 83 45 16 7 6 7 8 8 8 9
100 100 94 98 100 98 100 100 100 100 100 100 99 91 92 95 96 97 97 99 88 86 95 94 98 99 100 90 91 99 100 100 92 43 13 7 6 7 8 9 10 10 10 10
93 88 96 97 99 97 98 96 100 100 100 100 100 100 100 100 100 98 97 97 99 100 100 100 100 100 100 100 100 100 95 58 21 8 8 8 9 10 10 10 10 11 11 13

GFSNW_500_rhum_012.txt.gz
RH
2 2 3 3 3 3 3 4 4 6 5 11 18 16 23 55 43 13 19 33 96 69 100 24 29 96 85 40 13 12 19 21 27 19 19 16 18 37 32 16 16 16 20 26
2 2 2 2 2 2 3 3 3 23 8 9 14 20 27 46 28 15 16 20 38 46 93 89 26 94 88 41 20 19 19 18 12 28 54 11 10 13 25 50 20 19 22 21
2 2 2 2 2 2 3 2 3 30 23 9 20 23 29 39 15 12 18 25 27 20 22 27 13 17 15 11 11 11 11 12 12 11 29 97 82 19 26 29 21 24 18 20
1 1 2 2 2 2 2 2 2 4 15 17 16 28 36 41 14 12 25 24 17 13 11 11 12 14 10 11 11 13 15 14 16 15 49 60 100 61 30 27 24 19 18 19
1 1 1 2 2 2 2 3 3 3 16 23 24 25 43 40 11 16 20 18 13 12 12 12 8 7 4 7 9 6 7 11 11 10 15 15 18 19 21 25 25 20 16 18
1 1 1 2 2 2 2 2 3 12 9 40 37 27 52 40 13 22 23 16 13 14 16 6 5 13 77 42 30 25 19 13 12 12 13 16 19 26 26 24 28 27 26 26
2 2 1 2 2 3 2 2 16 40 26 42 24 36 57 35 12 81 24 19 83 10 7 7 10 19 53 40 41 37 26 24 22 16 14 16 23 22 27 25 25 28 29 31
2 2 2 2 25 2 2 16 33 48 44 38 48 46 65 31 46 100 37 15 11 9 8 7 7 10 26 36 36 32 34 29 27 18 15 22 20 22 26 28 31 25 24 29
2 3 2 7 3 2 28 12 63 45 44 28 49 43 81 23 96 35 18 14 11 12 12 14 11 9 9 13 29 30 30 25 20 21 23 23 22 21 23 21 23 10 19 17
2 6 86 93 9 18 35 57 99 77 89 66 69 38 46 23 25 27 17 14 12 12 16 18 14 13 12 10 10 9 13 18 21 22 18 14 9 9 9 10 12 11 10 9
3 48 100 93 44 74 27 57 81 96 100 91 71 65 58 23 23 24 20 15 11 12 13 15 13 15 12 11 11 12 12 12 12 11 11 10 10 10 10 10 9 8 6 6
24 100 100 75 46 13 62 72 100 97 98 61 62 76 54 23 20 22 25 19 19 14 14 14 20 21 17 12 13 12 10 11 11 12 11 9 8 8 7 6 5 5 6 6
78 100 100 100 89 100 56 78 99 96 97 100 79 78 59 20 21 21 24 21 18 16 12 17 19 21 21 18 13 11 12 11 11 11 11 10 8 6 6 5 6 5 7 10
100 100 96 94 99 74 100 98 72 69 82 70 79 73 50 22 23 24 21 29 21 24 17 16 14 15 16 20 17 17 13 12 12 11 13 11 10 6 5 6 6 8 12 16
100 94 100 100 75 67 100 100 95 79 56 40 62 72 52 24 23 25 19 21 34 31 22 14 14 14 16 15 13 13 13 12 14 14 11 14 10 7 6 6 8 17 32 42
73 98 100 100 79 85 100 98 99 95 50 42 51 58 55 32 23 24 26 20 21 22 24 18 16 16 16 15 16 15 14 17 17 16 16 13 10 8 8 13 24 38 43 43
100 99 97 100 100 90 100 96 94 69 47 41 38 40 46 40 23 22 24 24 20 17 18 18 17 18 18 18 18 16 22 21 19 20 19 13 11 11 17 38 46 47 43 40
100 100 100 100 95 87 100 100 100 73 49 33 37 40 43 44 29 23 24 24 22 24 20 20 19 21 21 21 26 35 40 34 27 25 22 19 21 32 50 54 52 55 64 69
85 77 68 79 95 79 87 88 81 54 30 39 75 49 53 44 36 28 26 26 28 28 28 27 26 30 35 49 62 58 53 50 40 29 23 37 60 63 60 59 62 71 72 71
77 75 57 75 79 85 88 81 56 47 40 96 84 53 57 48 41 36 43 42 40 32 61 91 58 67 79 76 69 74 68 49 35 32 44 64 64 63 62 73 80 80 79 78
60 58 59 83 90 92 88 65 38 50 64 100 99 81 89 71 60 52 58 57 61 63 68 86 86 83 83 76 70 60 50 58 66 66 67 64 68 71 83 93 96 96 97 95
74 78 75 100 100 100 87 79 100 100 100 100 100 90 100 100 100 100 100 100 100 96 98 98 84 74 72 56 56 78 80 80 76 70 73 83 90 97 100 100 100 100 98 91
72 66 80 98 98 93 82 100 100 100 100 100 100 99 100 98 97 97 98 95 92 81 73 63 53 44 48 82 89 80 75 78 82 90 99 100 100 100 100 100 100 99 83 45
96 98 100 100 100 99 91 97 100 100 100 100 97 86 83 90 99 98 96 80 69 58 44 34 59 87 87 86 90 89 97 98 100 100 100 100 100 100 100 100 95 61 25 10
100 100 100 100 100 100 100 100 100 100 100 100 100 99 98 100 98 97 83 77 81 79 76 84 86 94 100 100 100 100 100 100 100 100 100 100 100 100 100 76 42 15 9 8
100 100 100 100 100 100 100 99 99 99 100 100 100 98 99 100 100 99 95 96 84 74 87 88 90 94 99 100 100 100 98 100 100 100 100 100 100 94 56 20 10 9 9 10
100 98 100 100 100 100 100 100 97 99 100 100 100 98 100 100 100 99 90 84 91 98 100 100 100 100 100 100 100 100 100 100 100 100 100 89 45 14 10 9 10 10 11 12

GFSNW_500_rhum_015.txt.gz
RH
2 2 3 4 5 4 4 5 10 5 6 12 23 27 28 22 44 46 55 55 94 29 87 96 46 30 83 62 100 96 82 62 34 73 34 33 27 21 32 40 31 20 12 17
1 2 2 2 4 5 4 4 4 4 5 10 16 17 13 28 34 40 39 29 35 21 100 96 65 31 100 94 91 58 45 30 24 33 38 24 25 20 21 11 10 19 15 18
2 1 2 2 2 4 4 4 3 4 4 10 12 14 9 25 33 48 48 18 30 21 98 97 91 34 59 69 72 26 18 18 19 20 16 16 20 69 23 16 15 18 22 22
2 2 2 2 2 3 4 4 4 3 6 9 11 12 8 27 30 43 39 14 23 17 59 100 100 44 27 18 17 20 16 11 10 10 11 14 17 40 54 30 25 22 27 20
4 1 1 2 2 3 4 4 5 4 4 9 8 9 10 27 28 48 30 10 25 23 22 29 33 26 11 8 10 11 11 10 10 11 13 13 13 49 26 30 26 24 25 22
6 1 1 1 2 4 3 3 4 4 4 8 13 14 10 23 29 44 30 13 24 28 19 15 12 14 13 7 7 6 7 6 6 10 11 11 11 12 19 26 36 42 32 31
6 2 2 1 3 4 3 2 3 3 5 5 9 27 14 29 28 42 32 16 28 22 14 11 13 13 10 26 61 58 31 34 21 20 13 12 13 14 21 28 32 28 25 22
16 1 2 2 4 4 3 2 3 4 4 5 4 19 25 42 45 52 35 17 27 29 18 20 48 19 17 18 51 80 88 61 51 39 21 21 14 16 24 30 29 28 28 25
15 2 2 3 4 4 3 3 2 32 24 6 11 19 43 45 56 60 23 21 43 32 22 14 7 6 8 12 22 30 33 33 31 26 25 22 15 19 21 25 23 22 26 27
6 3 2 3 3 4 5 4 2 18 30 42 47 28 32 52 69 55 41 99 37 28 71 8 9 9 10 9 10 17 23 24 24 21 18 17 18 23 24 20 14 11 12 12
63 12 2 3 3 3 5 3 2 26 46 84 70 68 66 68 50 43 33 99 63 26 20 11 13 14 14 12 12 11 11 11 12 12 11 10 10 10 11 12 10 10 8 7
97 14 2 3 41 12 5 4 3 36 63 99 94 54 74 73 45 39 33 99 40 12 11 14 18 18 16 14 12 12 11 11 11 12 13 11 9 9 8 8 7 7 6 5
23 2 2 2 3 3 6 36 31 40 54 90 88 62 66 96 60 53 47 20 22 13 13 16 17 18 17 17 18 16 12 13 12 14 13 11 9 8 8 8 10 9 7 6
7 2 2 30 50 9 30 57 41 58 79 97 96 98 67 63 33 39 81 18 26 16 14 16 16 16 20 24 23 22 18 16 17 15 14 10 10 9 9 9 10 9 8 8
2 2 26 93 61 38 59 60 97 88 100 100 99 99 69 63 44 47 63 30 28 24 19 19 15 15 17 21 20 18 16 15 14 12 14 14 14 15 15 15 14 12 11 12
1 18 67 99 100 47 83 99 100 98 100 98 100 100 62 66 90 80 55 30 64 34 29 26 24 22 20 19 17 16 16 17 17 16 14 16 17 17 18 18 17 16 17 28
54 77 78 100 83 72 99 99 100 98 97 99 97 100 100 85 89 84 57 23 28 26 31 30 29 31 27 19 16 17 18 21 21 19 17 22 29 38 35 30 26 22 29 50
87 69 88 75 70 48 32 60 100 100 100 94 97 83 66 79 84 74 47 26 29 42 32 30 29 28 25 20 16 18 19 20 22 34 46 47 50 48 46 39 29 40 59 63
64 58 82 99 99 99 100 93 100 100 100 100 99 68 49 44 51 60 63 48 28 24 32 37 33 25 20 16 17 24 21 22 30 73 74 67 62 58 44 34 46 62 65 65
55 46 83 100 85 94 97 100 99 98 93 67 58 40 39 43 44 41 48 51 37 25 23 29 28 28 27 25 28 30 43 56 84 86 76 65 54 41 42 60 70 67 68 78
91 74 46 59 91 100 97 96 73 60 52 52 42 47 54 63 64 60 57 52 45 33 26 30 29 29 34 41 98 100 97 95 95 89 74 48 52 73 76 73 72 81 96 100
90 82 69 61 75 70 62 53 47 49 47 34 74 94 97 88 70 73 78 73 65 56 46 42 38 42 53 74 86 90 100 97 89 67 64 77 75 73 76 87 98 100 100 100
92 96 100 90 83 77 50 44 44 65 46 45 85 99 98 99 100 94 90 85 76 69 65 58 63 99 100 100 100 97 92 89 100 95 91 84 85 90 93 100 100 100 100 100
99 97 100 96 98 84 88 88 100 78 99 100 98 100 100 100 100 100 100 100 99 100 100 100 100 100 100 98 89 94 100 100 95 97 95 96 95 98 100 100 100 100 100 100
94 94 95 85 99 99 100 99 85 70 94 96 97 85 85 90 93 91 95 95 83 68 69 83 83 89 98 100 100 100 100 99 100 100 93 98 100 100 100 100 100 100 100 88
97 81 74 74 80 95 95 100 100 100 100 98 97 99 98 100 99 99 100 100 86 80 88 89 90 92 94 98 98 100 100 100 100 98 100 100 100 100 100 100 100 76 36 14
100 99 100 100 100 98 95 95 98 95 96 95 100 100 100 100 100 99 85 79 84 89 90 97 96 90 91 94 100 100 100 98 98 100 100 100 100 100 100 87 53 22 11 10

GFSNW_500_rhum_018.txt.gz
RH
2 4 4 5 7 6 5 7 15 22 24 76 74 51 52 50 36 27 28 37 36 40 22 46 74 46 37 47 45 44 53 88 71 66 82 78 95 44 38 22 25 35 22 15
2 2 3 3 4 5 6 6 7 15 6 33 58 47 45 56 41 28 28 31 44 50 22 28 50 68 45 52 41 49 55 91 91 64 49 67 31 33 30 24 33 33 17 16
2 2 2 3 3 3 5 6 5 7 8 27 39 51 48 31 19 22 25 31 44 38 31 21 77 62 25 57 70 83 100 72 40 15 19 29 28 37 55 18 12 11 14 26
25 2 2 2 2 3 4 5 6 6 10 18 29 43 41 18 14 19 27 28 40 55 18 16 48 88 15 46 37 92 75 54 22 18 20 18 17 10 18 28 47 28 21 31
37 19 2 2 2 3 4 3 5 6 6 6 14 31 36 22 11 17 17 26 43 48 12 11 34 93 34 31 35 73 94 72 39 19 12 10 12 12 12 21 59 61 47 34
42 33 16 2 2 3 4 3 3 6 6 5 6 14 21 13 8 16 25 29 50 50 13 20 32 87 96 84 43 27 16 12 13 10 10 11 11 10 10 16 37 23 27 37
50 44 25 12 2 2 3 3 2 4 6 5 6 8 11 9 8 18 35 40 52 45 17 16 37 39 30 21 18 14 22 13 12 7 7 9 12 14 13 13 16 22 31 33
59 48 28 18 6 2 3 4 2 3 5 5 4 7 8 7 16 31 38 31 52 29 14 16 41 37 37 26 19 12 31 92 74 45 29 22 24 19 16 14 21 27 30 30
65 46 27 20 12 1 4 4 3 3 5 6 5 6 11 11 14 38 32 30 45 40 26 25 28 20 21 16 13 12 23 71 90 77 61 48 41 29 25 17 21 26 28 30
63 39 32 23 9 2 4 4 4 3 4 5 5 6 13 24 22 31 30 30 51 28 18 35 37 19 35 25 8 9 14 23 29 33 28 25 24 29 22 17 24 29 30 24
47 39 30 18 5 2 4 6 4 13 17 15 6 8 13 34 20 21 24 39 49 40 34 45 32 26 15 7 8 10 10 13 25 31 28 26 26 27 25 25 16 12 14 14
36 28 24 7 3 2 4 5 4 8 33 70 34 17 8 27 25 26 37 39 57 56 48 43 33 37 11 8 12 11 12 13 14 14 14 13 13 13 12 11 13 12 10 9
16 17 11 3 2 2 13 53 4 3 31 82 77 69 14 22 35 39 51 46 55 75 87 79 63 36 12 14 13 13 13 14 14 14 14 12 12 12 12 12 12 11 10 10
20 65 70 14 2 3 52 58 8 17 100 75 82 79 39 21 39 54 64 99 62 82 90 98 46 22 18 20 15 14 16 20 21 18 19 18 15 13 12 11 11 12 12 14
100 100 43 3 2 5 90 96 35 23 78 56 95 84 70 55 31 99 59 70 59 75 94 48 22 18 20 20 17 15 19 23 24 22 19 16 14 14 13 12 11 13 17 25
55 43 5 2 4 8 19 29 59 42 63 95 100 92 89 98 86 100 62 100 70 63 58 63 26 22 19 16 14 16 18 21 20 19 19 20 21 21 18 16 18 24 37 46
20 4 2 4 20 100 100 90 44 65 64 86 93 99 97 100 76 73 91 94 82 100 96 56 43 41 25 15 13 17 17 17 18 20 21 21 21 19 18 20 29 52 57 54
4 2 4 20 92 65 51 84 89 55 42 66 78 99 100 99 97 100 98 97 90 100 100 94 67 61 36 22 19 24 25 25 27 24 20 19 20 20 22 32 58 67 63 56
2 36 67 82 49 72 97 99 99 100 100 95 73 88 100 98 97 95 88 83 79 82 97 94 82 73 53 38 34 35 35 30 24 21 20 23 26 28 53 73 79 79 66 47
42 36 56 91 100 100 100 100 100 100 100 100 100 100 100 96 100 98 95 87 86 77 66 58 47 41 42 42 38 35 34 36 38 36 34 33 44 85 85 90 88 71 51 61
96 97 96 98 100 100 100 96 93 100 99 95 92 92 95 98 87 76 66 69 68 70 66 65 53 38 31 30 32 36 40 50 51 58 75 95 97 92 91 87 67 62 77 84
88 96 100 100 100 100 99 94 97 98 93 74 68 81 92 89 79 66 65 63 66 64 55 60 51 48 42 41 46 54 62 59 63 97 100 98 97 94 82 80 84 87 92 98
100 98 100 100 99 99 83 77 98 100 100 71 52 52 87 99 99 96 92 83 77 71 70 61 60 59 55 61 70 73 75 70 77 95 99 95 86 86 87 86 87 96 99 100
97 100 98 84 78 85 89 80 78 78 68 69 68 56 96 97 99 100 98 87 88 86 79 82 99 95 91 92 88 86 100 100 98 97 94 95 95 91 85 92 99 98 100 100
99 95 99 88 100 87 80 89 92 89 86 91 67 55 56 78 99 100 100 100 98 89 94 100 98 98 100 100 99 99 99 100 100 99 98 100 98 100 100 100 100 100 100 100
100 98 96 97 97 97 78 78 88 90 87 85 88 96 99 99 99 100 97 91 89 99 100 99 99 98 98 100 100 100 100 100 100 100 100 100 100 100 100 100 100 100 100 100
87 90 87 99 100 95 95 100 100 100 100 100 97 90 83 97 95 83 88 92 100 100 100 100 100 100 100 100 100 100 97 96 90 90 97 100 100 100 100 100 100 100 100 94

GFSNW_500_rhum_021.txt.gz
RH
4 3 4 6 13 10 7 8 15 18 7 57 66 52 55 62 60 45 39 40 29 27 26 29 28 36 56 34 35 49 47 46 70 75 93 84 79 88 89 77 25 22 26 16
14 3 3 4 7 12 8 6 10 14 6 28 51 55 59 77 57 66 60 43 32 26 26 34 35 30 58 40 34 33 35 37 37 41 57 56 46 77 99 82 23 13 21 21
41 9 2 3 4 7 9 7 6 8 9 22 42 57 63 71 89 49 57 40 33 26 26 39 44 46 53 35 41 48 44 40 50 52 67 94 72 86 64 38 21 23 14 11
53 24 3 2 3 5 6 7 6 6 10 15 23 39 58 75 92 77 50 48 47 29 27 39 51 29 46 55 32 46 69 56 58 84 57 30 20 22 27 23 14 16 14 22
47 31 10 2 2 4 4 6 8 8 7 10 15 25 37 61 73 78 64 69 58 30 31 43 64 30 35 55 36 23 36 80 92 81 48 30 22 24 25 12 10 10 10 18
66 38 22 4 2 3 4 4 6 8 9 7 10 14 25 37 65 44 38 42 41 29 32 64 82 58 29 99 98 28 34 52 83 70 51 35 20 11 11 11 13 13 12 16
70 47 43 16 2 2 3 4 4 6 8 8 7 9 18 25 46 55 16 21 30 35 46 62 85 45 27 60 100 67 22 25 32 31 24 13 8 12 12 11 10 11 14 13
67 54 40 31 9 2 2 3 3 4 6 8 7 8 13 15 24 27 12 31 41 68 61 73 93 50 24 88 81 54 33 45 24 18 22 40 9 15 18 16 17 15 15 16
68 52 46 40 31 7 2 2 3 3 4 6 7 7 10 13 20 10 11 72 67 34 47 69 89 51 28 36 47 45 35 27 18 17 42 75 86 62 52 46 27 21 15 18
69 51 55 55 43 26 4 2 3 3 3 4 6 7 8 7 6 8 18 20 71 33 54 67 94 44 35 41 40 43 28 18 15 12 19 24 29 47 55 39 29 33 30 33
68 66 60 48 38 28 14 2 2 3 3 3 5 6 6 5 6 7 19 50 35 43 42 75 98 36 17 22 25 20 26 19 8 12 15 19 32 36 28 29 30 32 37 38
94 77 67 58 41 27 19 3 2 3 3 3 5 5 5 5 7 7 22 23 26 32 42 65 88 54 22 22 26 22 28 9 10 12 14 19 20 17 21 22 23 20 16 14
77 69 65 57 37 28 17 4 2 3 3 3 5 6 6 7 10 8 21 15 29 30 47 86 97 60 38 22 30 23 11 10 11 12 13 13 13 16 17 17 17 17 16 16
91 79 73 64 44 31 15 5 2 4 4 4 8 21 51 7 15 13 12 30 36 38 83 99 97 94 65 41 52 26 12 14 13 13 15 15 16 20 19 17 17 17 16 16
65 53 42 39 35 20 8 12 2 4 25 10 59 66 55 19 17 24 23 26 35 59 92 99 97 90 82 80 68 12 17 18 17 21 30 26 24 21 18 17 16 16 15 15
34 35 32 28 21 7 49 100 15 10 59 99 97 53 35 18 13 19 29 35 42 54 88 90 76 95 99 95 50 21 22 25 22 24 28 27 24 20 17 16 17 16 16 15
16 16 20 14 16 64 95 24 8 83 100 97 78 76 86 70 40 44 25 55 60 94 100 96 67 82 95 86 83 39 32 27 24 24 23 21 22 22 22 22 20 18 16 16
94 89 97 20 12 35 29 19 35 81 56 90 58 86 98 80 67 64 54 48 99 80 75 74 66 68 71 54 37 31 32 31 27 29 33 33 32 30 27 25 21 19 20 24
98 59 20 84 91 100 92 100 67 15 49 90 100 91 100 96 85 80 77 97 100 83 84 96 86 90 80 78 64 72 65 54 50 46 46 45 40 35 29 25 26 30 32 46
9 15 87 98 45 82 100 56 63 51 58 68 82 88 97 99 97 100 95 98 96 99 93 86 84 99 99 96 96 87 84 85 77 68 63 46 40 39 40 42 41 44 65 96
3 4 6 64 93 100 97 71 72 76 72 41 77 73 54 95 100 100 99 100 100 99 94 91 69 68 79 92 100 100 88 75 70 69 65 63 59 60 63 79 89 97 100 100
12 38 96 100 100 98 100 100 100 100 100 100 88 64 35 67 96 99 99 100 96 89 81 76 64 65 70 72 68 60 57 52 47 45 48 54 60 79 90 96 96 96 97 94
100 100 100 100 100 100 100 100 100 100 100 100 100 100 99 80 100 98 97 76 69 74 68 53 47 59 75 77 75 72 68 60 58 66 98 100 87 73 81 98 100 100 100 100
100 100 100 100 100 100 100 99 100 100 100 91 74 81 90 100 100 100 98 88 83 74 70 65 72 82 78 82 82 81 84 87 90 91 93 100 100 100 100 99 100 100 100 96
100 100 100 100 100 100 100 100 100 95 90 86 74 63 53 67 84 96 96 96 97 92 92 88 89 84 88 81 78 91 100 100 100 100 100 100 100 100 100 98 93 97 100 100
100 98 100 95 66 75 99 100 100 94 90 88 81 76 61 83 96 100 97 98 98 100 99 94 86 97 100 100 100 100 99 97 98 98 94 98 100 100 100 100 100 100 100 100
80 80 72 71 97 83 83 87 89 80 81 88 75 98 100 99 99 99 92 91 99 98 98 96 99 100 100 97 97 96 94 97 100 100 100 100 100 100 100 100 100 100 100 100

GFSNW_500_rhum_024.txt.gz
RH
70 33 24 4 3 5 10 10 12 17 43 51 54 48 49 62 75 97 98 77 36 34 35 32 31 29 26 20 18 20 25 49 85 88 87 97 88 78 68 64 60 62 67 29
100 42 43 10 3 4 6 12 9 10 14 41 38 44 55 53 94 98 92 62 33 30 32 33 31 32 34 37 33 27 40 43 76 81 74 60 70 77 73 60 49 46 66 34
100 98 69 34 5 2 4 9 9 8 9 22 36 45 52 53 92 99 86 63 32 32 35 30 35 36 33 38 46 38 47 51 50 45 43 58 75 58 62 51 50 41 29 24
100 100 95 45 11 3 2 6 10 9 14 17 19 29 41 68 72 96 84 36 35 31 35 34 33 40 42 36 47 50 45 38 39 42 56 48 55 60 63 48 40 33 26 19
95 100 100 64 32 6 2 3 9 12 11 13 18 20 25 52 77 97 85 71 36 35 45 37 48 60 59 44 53 52 42 46 46 83 86 71 74 47 22 16 18 20 14 7
100 100 100 85 44 13 3 2 6 12 12 10 12 12 18 34 83 92 92 72 44 51 48 60 60 61 66 50 59 66 48 42 63 80 100 95 49 23 27 22 17 10 7 10
100 100 100 80 52 20 4 2 4 9 12 11 10 10 16 22 52 95 100 100 81 42 60 70 66 77 80 77 42 66 76 85 44 72 79 58 26 14 9 9 9 10 11 10
100 100 100 76 63 44 11 3 3 6 12 12 10 10 12 16 17 56 99 95 81 48 97 100 81 68 89 96 72 35 64 93 84 48 30 21 10 15 29 46 13 11 12 13
100 100 88 84 100 52 25 4 2 4 10 12 10 8 10 12 16 27 87 77 26 84 100 94 74 70 73 80 54 33 30 85 86 48 37 16 9 13 28 76 48 41 33 27
98 100 100 100 79 77 34 7 2 3 6 10 11 9 8 8 10 25 39 90 44 51 70 90 75 86 97 71 58 45 37 90 73 66 41 19 13 10 17 27 32 48 48 38
100 100 100 100 100 71 21 5 2 3 5 7 10 9 8 7 8 11 15 39 65 37 26 53 68 63 72 76 69 51 36 56 56 66 27 12 12 12 18 27 29 29 29 31
100 100 100 100 60 38 20 5 2 2 4 5 7 9 8 8 6 7 10 20 26 36 29 37 73 50 65 42 49 55 29 37 36 29 29 11 10 14 23 25 29 27 26 26
100 100 100 95 44 45 24 6 3 2 3 4 5 6 7 7 6 7 9 10 12 16 29 57 73 48 55 61 67 78 25 25 31 30 24 11 13 14 15 15 15 15 15 15
100 98 92 73 58 38 23 5 2 2 4 4 5 4 6 20 7 6 7 6 9 14 32 72 94 45 55 60 85 97 40 36 40 29 11 13 17 17 17 21 21 19 18 18
99 86 81 69 47 38 24 7 3 2 5 4 4 6 28 42 44 6 6 6 7 13 40 45 33 49 86 78 86 97 61 48 55 31 17 17 17 20 24 25 23 21 20 21
100 100 87 63 56 36 22 12 3 2 3 22 13 16 14 29 20 10 6 6 7 9 53 49 59 76 91 95 84 96 94 80 71 24 20 20 22 24 28 28 26 22 21 23
94 78 72 75 61 40 24 14 17 3 4 24 9 5 15 16 24 29 12 10 12 8 16 53 76 95 96 83 79 100 99 96 98 30 26 25 25 26 26 24 22 19 19 23
70 72 65 49 52 39 22 53 57 39 14 36 26 6 11 55 54 46 32 13 16 17 13 45 79 93 92 83 79 66 84 100 98 85 69 35 33 27 25 22 21 24 30 33
32 38 38 38 32 26 53 90 91 91 61 13 6 5 25 64 76 73 90 30 28 33 35 48 80 90 81 79 82 73 99 100 100 81 60 45 42 39 36 36 38 49 50 42
27 35 33 31 49 94 100 100 100 100 85 17 29 94 100 77 73 100 88 64 70 79 57 68 84 77 90 100 97 99 88 92 100 92 81 88 90 79 75 82 80 69 57 60
39 20 17 35 81 97 100 100 100 94 19 41 100 100 100 94 99 99 100 80 82 77 75 71 98 76 87 90 100 100 100 100 99 99 99 100 100 99 94 88 81 76 54 56
76 85 96 100 100 100 100 84 73 56 80 98 98 91 96 88 92 99 100 95 82 92 86 96 97 99 100 100 100 100 98 99 97 96 94 86 66 58 55 51 50 61 85 98
99 100 100 100 100 100 81 79 99 80 59 48 51 65 100 99 99 98 98 100 99 98 100 100 100 100 100 100 99 98 97 94 97 98 94 82 73 66 62 71 99 100 100 100
100 100 100 100 100 100 94 57 60 54 77 83 81 80 98 100 51 76 56 67 100 100 91 99 100 98 97 99 92 86 91 93 84 79 76 77 84 90 93 96 100 100 100 100
100 100 100 100 100 100 100 96 100 100 99 100 100 100 99 98 96 92 96 89 70 85 99 98 91 90 97 94 90 94 99 100 100 97 96 95 100 100 100 100 100 100 100 100
100 100 100 100 96 99 100 100 98 92 91 81 73 77 67 67 86 100 100 100 96 100 99 97 81 99 100 96 99 99 100 99 100 100 100 98 100 100 100 99 97 97 100 100
100 100 100 94 92 99 78 89 89 84 90 84 78 74 64 55 56 74 100 100 100 100 95 90 99 100 100 100 100 100 100 100 100 100 100 100 100 98 94 98 100 100 100 100

GFSNW_500_rhum_027.txt.gz
RH
76 83 71 87 78 48 27 8 6 11 8 19 43 44 23 30 43 55 76 77 98 100 96 69 44 40 42 42 29 14 15 20 27 55 92 96 89 80 92 97 75 65 52 40
100 97 97 93 100 72 39 20 5 9 12 10 24 31 30 28 55 59 78 88 99 100 95 83 61 47 46 38 26 18 21 21 23 40 70 82 75 77 94 96 80 56 54 42
100 100 100 100 100 99 45 33 8 6 16 9 12 30 32 27 44 62 84 91 100 100 86 88 73 50 50 34 28 30 36 27 26 26 37 79 77 66 80 96 74 58 46 39
100 100 100 100 100 100 80 43 22 4 10 11 10 21 26 39 43 64 80 93 98 88 98 99 79 70 49 44 38 50 51 33 32 37 48 65 61 62 68 73 60 44 46 31
100 100 100 100 100 100 100 55 23 4 6 12 10 17 19 25 48 60 69 86 100 63 94 100 91 85 62 51 59 84 72 40 37 36 42 44 43 47 43 42 58 65 27 15
100 100 100 100 100 100 90 30 23 5 5 10 11 13 17 19 46 52 71 100 98 42 32 99 97 85 71 57 56 75 94 58 46 40 47 50 36 44 55 76 53 28 15 17
80 100 100 100 100 94 73 51 34 6 4 8 12 12 16 20 37 39 77 96 99 76 85 99 99 90 71 66 68 73 86 80 82 62 50 40 34 79 79 58 24 15 20 13
78 100 100 100 100 100 92 74 38 7 4 6 10 10 13 14 24 32 46 92 100 96 95 89 100 82 72 63 67 78 67 55 62 68 57 38 24 47 42 32 15 19 59 57
83 100 100 100 100 96 100 65 36 15 4 4 10 10 10 11 17 22 30 92 100 98 98 96 82 99 78 69 70 86 82 94 89 63 58 37 33 34 33 20 12 31 61 65
92 100 100 100 100 100 100 58 33 27 4 4 8 11 10 10 12 14 13 41 100 99 98 91 66 64 65 78 83 66 74 81 68 35 36 39 42 43 31 16 12 13 19 23
100 100 98 100 100 100 95 94 40 19 4 3 5 9 10 9 10 10 11 21 85 92 91 89 62 55 97 99 91 84 61 66 63 38 47 53 50 49 28 13 10 15 20 25
100 97 100 100 100 93 100 98 37 13 7 29 5 8 11 10 9 8 9 31 53 75 88 73 68 65 93 100 80 80 82 74 76 64 36 47 41 28 23 10 12 16 18 24
99 99 100 100 100 98 74 86 35 13 5 14 40 7 8 11 9 8 8 14 77 79 77 70 60 60 90 95 75 71 72 77 67 71 47 36 27 33 13 13 13 13 14 14
100 100 100 100 100 100 100 99 40 24 16 11 17 65 30 10 10 8 7 8 38 62 65 72 64 60 61 47 86 80 64 70 88 88 38 24 29 26 12 13 14 15 18 19
100 100 100 100 100 100 94 57 28 16 34 70 56 99 100 65 11 9 7 7 8 29 37 50 57 49 42 42 57 72 62 62 76 89 42 33 35 24 13 15 17 17 22 24
100 100 100 100 92 56 49 39 14 22 42 100 87 46 83 60 70 48 8 7 6 8 10 13 22 27 23 26 39 59 78 80 90 96 73 50 56 41 19 19 24 31 29 29
100 100 100 83 53 35 28 15 45 87 87 81 100 100 82 47 39 60 84 24 7 7 8 9 13 17 24 46 33 83 59 84 91 96 99 80 78 46 27 26 28 27 28 27
99 100 84 70 52 36 27 17 98 100 100 59 64 75 93 58 48 62 70 75 40 14 7 6 7 9 33 47 48 38 64 93 95 95 100 94 100 72 36 40 44 39 37 35
98 88 76 66 42 29 41 67 82 91 77 100 76 44 45 49 50 56 72 69 68 52 11 7 10 7 10 24 54 65 80 100 98 99 95 99 100 99 98 94 100 72 51 54
73 73 74 63 47 62 87 100 100 85 37 100 100 91 44 28 34 64 75 62 60 52 41 17 12 11 9 9 40 64 86 98 98 98 100 98 93 92 89 77 68 62 62 75
58 40 34 36 36 42 62 66 48 57 55 70 63 39 68 27 12 86 92 95 85 64 46 33 22 16 21 28 36 51 82 100 96 100 100 96 99 100 94 100 100 94 99 99
32 30 29 51 78 82 99 100 100 78 47 58 29 22 46 43 82 88 72 100 94 75 54 30 20 32 50 57 67 78 80 73 88 98 100 100 100 100 100 100 100 100 99 82
25 57 78 70 97 100 97 100 100 92 79 46 8 24 90 75 62 82 74 95 72 72 72 80 73 78 84 91 84 85 100 100 93 100 99 99 96 98 98 97 89 81 75 78
89 100 100 91 100 77 89 100 100 84 50 32 17 98 90 90 100 98 98 80 94 100 100 94 99 100 98 100 100 98 99 96 96 89 82 86 86 83 84 86 91 96 100 100
100 100 100 100 100 85 100 94 66 65 56 55 64 62 81 100 100 98 80 80 91 95 88 67 99 100 100 100 100 89 79 88 91 89 92 96 96 100 100 100 100 100 100 100
100 100 100 100 100 100 99 100 100 100 100 96 90 100 100 100 100 100 98 92 96 100 100 100 96 97 99 98 100 100 100 100 99 100 100 100 100 100 100 100 100 100 100 100
100 100 100 100 100 100 100 98 94 91 91 85 82 88 88 81 83 100 98 100 100 100 100 100 100 100 100 100 100 100 100 100 100 100 100 100 100 100 100 100 100 100 100 100

GFSNW_500_rhum_030.txt.gz
RH
85 100 87 67 80 60 58 60 61 38 24 7 10 15 13 18 28 29 53 46 80 88 97 100 94 90 60 34 34 37 31 31 18 22 30 83 100 100 100 100 94 64 62 54
100 100 97 82 72 98 63 62 73 66 42 14 6 10 11 26 41 47 54 73 84 95 100 100 97 92 53 54 44 44 35 24 17 17 24 47 78 86 88 93 87 71 74 62
100 100 100 77 100 100 100 69 98 100 44 28 7 7 11 14 37 52 48 72 75 84 100 97 95 72 70 90 53 47 34 28 20 15 18 52 61 81 86 88 82 70 62 64
51 62 49 100 100 100 100 97 100 82 45 29 12 6 10 12 25 50 50 68 72 83 98 100 100 88 97 89 54 45 26 23 21 21 32 41 34 80 92 87 68 72 48 60
54 55 54 100 100 100 100 100 90 70 54 44 20 6 8 11 14 37 49 56 65 73 96 100 100 99 89 93 71 39 26 28 28 30 34 44 44 38 57 57 62 43 41 43
76 77 48 100 100 100 97 94 99 88 80 55 37 6 6 13 12 25 42 37 85 69 97 100 99 98 98 95 60 38 34 38 45 31 37 41 33 35 39 38 36 39 42 45
99 85 51 100 100 100 88 92 95 86 90 93 30 11 5 10 13 16 40 36 89 70 98 98 100 100 97 91 65 48 49 46 64 59 59 30 25 36 40 43 60 62 60 35
100 57 54 100 100 100 100 100 97 93 100 61 32 10 5 9 11 10 32 42 43 99 98 100 98 100 99 98 78 74 64 85 74 62 35 30 21 27 50 55 70 71 28 21
96 58 76 100 100 100 93 99 96 100 100 45 66 8 6 7 12 10 18 40 44 94 100 92 96 98 98 100 81 76 78 92 96 76 42 18 30 57 63 45 22 46 19 14
100 72 100 100 100 100 83 100 100 100 77 99 83 20 10 6 12 12 10 36 52 73 100 86 79 98 100 96 95 98 79 86 88 69 55 26 23 45 66 43 32 40 18 10
97 100 88 62 100 100 97 100 100 99 82 92 77 77 83 24 14 30 12 16 41 91 95 99 72 94 98 99 100 78 85 74 70 69 64 24 30 40 66 61 41 24 10 10
94 74 58 99 100 100 100 100 100 92 94 78 70 30 72 46 20 16 12 15 22 62 96 93 79 76 95 95 98 100 96 79 68 54 43 56 43 49 82 65 33 23 10 10
81 63 100 100 100 100 100 100 94 55 42 80 100 100 73 92 12 11 12 10 12 40 80 82 100 95 95 96 88 86 77 100 92 88 74 81 75 50 40 45 27 24 10 12
97 100 100 99 99 100 100 100 88 69 53 69 97 100 71 38 7 10 10 10 11 15 22 60 86 94 90 96 87 74 94 100 98 84 78 74 99 94 46 33 23 22 10 13
100 100 100 100 100 99 100 86 64 58 34 81 81 100 64 20 6 10 10 10 10 20 35 56 70 73 80 87 95 86 90 95 95 81 98 99 97 61 26 20 23 21 12 15
100 97 96 91 97 100 70 86 100 67 68 100 100 100 73 45 8 10 10 10 10 10 16 66 73 70 64 63 60 65 88 95 84 89 95 74 72 83 49 31 32 27 17 17
90 86 80 82 74 78 87 78 96 64 84 100 100 100 99 97 45 18 11 9 8 8 8 14 50 64 60 56 55 62 71 63 92 91 95 98 100 97 100 68 36 40 29 20
84 87 92 92 90 93 81 69 60 67 72 99 100 100 82 86 99 89 20 13 9 7 7 7 10 26 26 24 25 34 24 33 46 64 94 86 92 98 99 94 83 74 64 32
90 93 94 81 58 47 38 35 60 84 94 100 100 98 82 84 86 100 94 99 61 14 10 9 7 7 9 10 11 15 15 21 59 72 99 88 94 98 98 100 100 100 94 81
79 78 91 79 39 48 96 88 100 100 99 100 100 62 51 46 48 42 68 94 100 100 88 60 18 9 7 7 7 7 10 34 64 70 79 92 100 100 94 90 82 80 96 98
91 70 48 43 78 100 99 85 64 92 100 100 100 96 84 78 89 84 61 100 100 88 79 60 43 36 22 10 14 14 10 8 8 20 58 71 87 88 99 98 100 100 100 99
45 47 39 52 71 78 70 69 97 94 97 97 63 58 40 30 50 79 79 86 98 74 73 65 41 38 40 31 22 16 16 38 40 43 51 58 72 86 92 95 100 100 90 97
26 32 60 80 89 80 65 31 61 69 82 90 71 100 90 51 22 25 70 77 82 100 100 75 62 61 69 64 50 60 74 71 66 72 76 80 99 89 100 93 95 100 100 99
83 98 100 100 100 100 100 96 46 77 93 64 40 34 58 40 26 60 46 46 68 83 60 51 73 88 99 95 99 99 88 90 100 99 95 85 99 100 99 100 100 100 98 99
100 100 100 100 100 100 100 100 89 71 41 13 13 65 73 55 100 98 60 47 47 49 68 67 65 68 67 88 99 100 100 100 100 100 99 100 99 86 89 92 91 95 96 100
100 100 93 100 100 100 100 95 77 60 38 63 58 86 82 100 82 100 100 100 85 67 56 60 72 77 94 100 100 99 100 99 99 99 99 98 98 99 97 92 92 97 100 100
100 100 100 100 100 100 100 100 100 100 100 79 70 81 93 82 78 67 71 85 94 80 79 86 90 100 100 99 97 95 96 100 100 100 100 99 100 100 100 100 100 100 100 100

GFSNW_500_rhum_033.txt.gz
RH
40 40 42 64 78 80 74 59 36 31 45 50 45 37 19 5 6 29 27 29 51 65 100 98 89 92 99 90 97 93 92 67 50 79 40 22 99 90 99 100 100 96 85 88
45 54 54 47 58 94 100 96 64 49 62 49 31 33 32 18 5 10 29 22 100 98 100 100 98 100 100 92 98 91 88 43 45 97 95 23 23 86 98 100 100 82 97 65
45 48 82 89 82 77 100 100 100 79 68 56 48 36 34 24 7 6 21 38 66 100 100 96 100 100 99 99 98 98 56 43 38 35 39 91 29 23 98 98 100 67 86 98
72 89 81 84 90 100 100 100 98 86 78 61 34 26 24 31 14 6 9 36 52 85 100 100 100 100 98 98 100 68 51 58 48 41 61 100 98 71 78 100 100 99 78 100
52 48 37 26 68 100 100 100 99 96 81 80 72 46 34 38 20 7 7 16 39 89 97 100 100 95 100 97 98 77 63 65 61 45 43 94 94 100 97 100 97 94 100 95
72 65 53 44 69 100 100 100 100 100 100 90 79 56 31 49 32 10 7 13 31 64 100 100 94 100 96 97 86 96 82 84 81 42 30 57 65 35 88 91 89 94 69 49
86 74 57 42 39 100 100 97 100 98 97 99 80 34 48 70 46 14 9 100 100 33 82 91 100 99 97 100 87 98 100 92 90 45 33 32 18 28 37 32 35 42 37 36
100 100 92 70 37 100 99 94 100 93 100 91 62 60 99 100 68 54 80 100 36 38 44 90 75 100 100 97 100 93 97 100 83 44 40 29 25 29 34 36 27 46 39 61
100 92 91 59 36 47 50 91 100 100 100 96 98 100 100 100 52 27 66 100 88 21 52 94 77 94 100 99 100 98 96 97 85 42 61 32 26 28 40 41 31 47 53 70
100 92 100 70 60 87 99 100 100 100 100 100 100 99 98 98 75 31 98 70 66 16 86 89 82 94 100 98 100 100 93 93 87 78 55 29 30 74 100 40 45 98 81 39
92 100 92 75 68 98 100 98 100 100 100 100 100 100 97 94 75 57 72 98 37 43 91 77 77 93 100 99 100 100 100 96 87 87 80 40 46 41 56 38 55 58 42 30
92 98 88 80 88 100 100 100 100 100 100 100 100 100 98 60 68 46 42 37 33 52 86 64 73 88 100 98 97 100 100 98 100 83 60 66 68 78 78 41 43 40 36 32
99 97 58 68 100 100 100 100 100 100 100 100 100 92 71 99 86 72 74 90 54 38 63 68 82 77 100 100 100 98 99 100 95 97 74 68 62 75 100 76 50 64 53 47
87 63 82 100 100 100 100 100 100 100 100 99 100 98 72 100 99 48 20 62 82 41 34 81 70 76 95 99 99 96 98 94 95 70 80 91 81 92 98 83 62 29 31 37
100 100 97 99 99 100 100 100 100 100 100 96 95 75 72 97 100 36 16 40 51 30 37 64 67 70 84 79 76 84 93 94 98 93 98 100 99 100 95 93 84 60 35 32
66 68 78 100 99 99 100 100 96 93 76 80 89 99 90 74 41 18 8 12 45 22 27 59 45 56 80 75 69 78 86 98 97 96 98 95 100 100 93 91 90 61 33 26
59 81 87 100 100 100 95 85 79 54 36 92 99 75 76 36 10 6 8 9 11 26 20 33 49 55 58 66 65 72 97 99 98 100 96 97 96 100 100 84 78 76 95 81
85 94 99 96 95 94 88 75 78 33 42 75 89 100 79 28 13 7 6 8 10 14 21 16 38 47 60 60 63 96 100 99 99 96 96 96 97 98 95 96 100 95 95 90
96 91 95 90 87 70 92 96 52 78 91 100 100 100 100 100 37 8 7 9 11 10 10 10 10 11 54 85 75 71 87 59 87 88 52 39 80 97 96 97 100 97 93 87
82 89 94 94 92 100 92 91 43 100 100 100 100 100 100 100 98 45 17 12 12 11 10 9 8 8 13 13 8 7 8 10 22 38 32 15 23 50 52 79 100 93 99 97
100 100 94 85 75 74 68 70 37 90 100 100 100 100 99 100 100 89 95 88 52 78 67 46 56 44 13 12 9 8 7 7 8 9 10 22 52 63 66 70 93 96 91 95
78 61 55 67 100 99 82 49 28 49 94 100 100 100 99 100 100 100 100 100 97 92 91 99 91 58 47 42 39 32 15 8 14 16 11 9 9 10 12 31 62 72 79 86
72 100 99 83 100 99 64 93 48 39 100 93 88 65 59 45 46 58 65 100 100 100 89 82 69 68 54 51 72 62 48 34 23 18 16 16 34 41 41 48 60 67 90 91
76 83 90 85 83 92 100 100 93 94 78 53 50 42 41 49 73 77 77 69 100 84 83 88 72 92 93 84 79 90 87 79 63 58 62 65 78 84 81 81 86 100 100 100
100 98 92 67 62 66 92 93 98 76 82 97 98 56 37 28 24 20 32 56 66 54 34 37 56 67 66 72 74 62 66 85 90 88 94 100 100 94 99 100 100 100 100 100
100 100 100 100 90 48 90 85 89 88 98 80 43 36 38 33 73 71 30 14 14 17 30 54 83 81 78 86 79 88 93 85 97 100 100 100 100 100 100 100 100 100 100 100
100 100 100 100 75 40 50 38 26 18 13 17 39 70 42 28 34 78 94 100 99 100 98 90 82 93 100 100 100 100 100 100 100 96 92 88 94 97 99 98 97 100 100 100

GFSNW_500_rhum_036.txt.gz
RH
48 42 41 49 57 64 53 32 29 29 34 31 26 20 13 18 22 14 4 15 53 23 35 100 100 81 78 88 79 73 84 72 85 86 100 84 75 66 41 79 94 97 90 61
41 49 57 65 74 74 74 70 58 52 46 42 31 27 23 21 16 19 12 5 25 57 23 90 96 99 94 100 100 77 80 76 88 93 98 99 72 37 100 85 88 78 100 58
52 60 64 68 70 65 90 94 98 84 81 59 58 50 36 29 22 17 28 10 8 22 30 100 99 96 100 100 86 95 100 92 71 76 80 98 80 68 98 99 88 79 71 47
58 60 57 55 59 60 94 100 95 70 55 36 26 53 43 42 36 31 31 24 8 10 20 65 91 100 94 97 78 100 98 71 79 100 95 93 95 85 68 78 99 99 74 98
58 54 61 65 78 69 99 100 96 76 68 72 74 81 68 51 45 41 23 36 26 7 17 99 100 100 98 95 96 92 97 89 86 96 100 83 71 97 100 84 48 94 100 97
44 50 52 66 70 86 100 100 100 99 90 84 86 68 46 49 59 47 23 29 41 14 8 42 96 100 100 97 96 100 97 81 98 89 92 72 72 65 100 100 100 100 84 89
32 36 41 26 16 26 100 100 100 100 98 95 81 77 68 61 70 51 33 33 50 26 11 73 50 92 87 99 97 92 93 82 89 98 94 60 58 65 68 91 88 89 90 98
38 35 39 73 41 50 88 100 100 100 100 83 74 62 88 100 100 80 50 48 39 49 11 82 35 36 100 99 100 98 100 96 81 70 77 67 70 55 51 62 41 56 69 78
59 55 51 71 82 73 48 68 94 100 100 92 82 100 100 100 100 87 54 51 74 100 36 98 88 100 91 99 98 100 100 94 88 89 73 65 68 56 47 57 54 53 98 95
56 86 90 100 100 87 42 36 99 100 100 100 100 98 94 98 100 84 70 84 67 96 32 59 98 68 86 87 97 100 100 100 82 89 90 73 75 63 77 84 52 61 100 79
82 98 100 100 100 95 46 41 100 100 100 100 85 84 94 100 100 95 91 100 70 45 30 90 97 52 40 66 92 99 100 100 92 83 93 87 88 96 66 73 77 100 82 100
82 94 100 100 100 100 59 68 100 100 96 98 73 100 100 100 95 96 85 82 98 88 52 38 48 38 34 58 79 90 97 100 100 89 80 90 100 94 68 85 94 94 75 66
95 99 98 100 100 99 78 90 100 100 87 87 96 99 100 100 100 81 92 75 63 73 100 100 89 43 50 65 60 92 100 100 96 97 92 97 82 91 85 100 99 96 98 65
97 99 96 100 98 82 91 100 100 100 95 100 100 99 100 99 86 90 64 82 52 84 91 100 79 49 54 67 79 92 98 99 100 85 93 95 94 100 88 91 100 100 100 78
100 100 100 100 77 99 100 100 100 100 100 98 100 98 89 87 82 78 62 44 60 85 67 39 46 62 85 64 75 69 98 99 100 100 100 99 96 89 84 88 91 99 99 81
60 95 96 96 98 100 100 100 100 100 100 100 98 80 82 84 76 50 82 100 91 100 100 100 60 51 69 64 52 66 99 100 100 99 100 91 92 98 98 95 97 100 79 84
97 100 100 100 92 100 100 85 98 96 97 84 72 77 88 73 66 63 62 99 68 84 82 71 61 51 56 62 60 65 80 97 100 96 93 87 100 94 87 99 99 98 98 84
98 99 99 97 100 100 98 98 93 88 81 77 78 59 47 38 64 59 45 50 53 93 100 77 50 62 75 75 68 70 92 87 91 80 76 84 97 96 96 97 97 92 99 81
98 93 88 92 92 87 77 77 69 71 56 71 63 92 100 92 71 78 50 55 78 92 89 88 58 62 95 86 98 93 91 92 84 79 90 94 93 92 89 98 98 99 98 100
98 92 93 86 84 85 68 64 55 38 48 73 86 100 100 64 48 66 89 88 80 45 16 18 27 37 44 60 67 91 98 84 85 85 94 84 82 89 82 81 85 91 98 97
91 81 81 86 82 82 84 86 60 27 47 84 100 100 93 75 62 81 73 41 22 13 13 12 10 10 13 16 12 27 20 41 16 13 24 72 55 62 56 46 34 18 49 80
100 100 100 99 100 80 81 49 44 76 99 100 100 100 100 100 100 98 100 94 29 19 30 18 11 11 9 10 14 18 18 11 9 8 8 8 8 10 11 15 15 34 54 64
100 100 100 100 86 66 48 40 77 98 100 100 100 100 100 100 100 98 100 89 85 65 59 28 60 66 73 87 91 74 59 50 38 24 12 8 8 17 17 13 11 13 14 14
92 93 100 96 69 52 44 36 59 99 100 100 100 100 100 100 100 100 100 100 100 100 98 100 80 76 87 89 87 89 92 91 80 68 53 40 35 38 49 62 60 56 76 87
99 100 98 99 83 57 41 34 79 99 100 100 100 100 100 97 100 99 97 93 100 99 97 98 100 100 96 88 97 98 93 90 92 95 100 100 100 100 100 100 100 100 100 100
95 77 85 100 95 100 79 44 72 97 95 99 99 92 57 41 47 38 43 57 62 67 76 54 42 36 29 39 63 80 90 91 90 88 96 100 100 100 100 100 100 100 100 100
100 100 95 67 89 100 38 42 59 73 44 37 36 35 46 36 63 77 41 34 31 36 37 46 67 94 98 98 96 94 100 100 100 100 100 100 100 100 100 100 100 100 100 100

GFSNW_500_rhum_039.txt.gz
RH
100 100 100 100 100 100 100 100 64 54 79 54 37 23 19 16 17 23 19 7 4 24 74 91 85 48 14 55 100 64 77 87 90 85 95 100 67 78 54 33 35 81 92 72
100 100 100 100 94 100 100 100 91 81 75 40 19 20 18 18 17 15 16 26 16 9 32 85 84 83 88 68 88 39 96 75 92 95 89 93 94 88 64 70 66 50 96 38
100 100 100 100 99 100 100 100 99 76 47 35 28 26 25 25 27 22 18 19 29 19 16 70 51 69 70 100 98 81 100 87 75 46 65 88 88 76 66 83 61 41 45 30
100 100 100 100 100 100 100 100 80 60 44 28 33 38 33 32 28 28 30 27 25 20 20 17 15 17 66 100 99 89 100 93 72 68 84 92 96 98 88 72 54 50 55 85
87 78 77 81 83 99 100 100 82 62 59 58 52 49 43 32 40 46 40 31 28 33 25 24 12 9 19 86 100 94 100 83 85 74 93 91 97 90 98 79 78 64 45 49
67 62 57 59 72 100 100 100 97 94 69 70 67 38 26 34 57 58 60 52 41 36 25 26 18 8 26 85 98 100 100 87 98 68 91 100 98 60 78 83 86 97 57 34
61 59 59 65 83 100 100 100 100 100 97 80 49 44 50 38 54 61 76 64 52 41 50 31 34 24 21 33 97 100 98 98 78 73 100 99 41 60 80 69 94 83 78 84
69 70 61 55 37 61 78 81 100 100 100 83 68 58 52 49 65 85 83 51 48 55 51 32 33 37 40 42 100 100 100 100 97 89 80 80 60 55 79 87 70 75 57 53
68 46 34 30 30 49 52 54 99 100 100 100 61 58 77 85 100 89 78 74 80 72 46 45 64 52 41 35 98 100 99 100 99 100 98 77 53 76 86 80 54 65 62 59
64 69 71 66 60 52 49 42 38 93 100 100 100 96 80 95 100 100 99 92 100 82 57 45 42 56 57 57 75 98 96 100 100 100 95 59 65 92 96 78 55 77 79 62
43 48 55 61 62 55 54 52 47 32 79 100 82 92 88 96 98 78 66 100 100 100 70 54 41 31 73 80 99 99 96 97 100 100 89 70 85 99 97 70 81 95 88 51
48 55 73 74 99 95 68 47 78 77 62 100 98 100 99 99 100 99 100 88 100 98 62 48 40 39 51 94 98 100 80 86 100 100 92 94 100 96 94 92 100 100 90 70
56 64 90 100 89 83 77 52 100 78 74 100 86 58 99 84 94 100 91 92 100 91 70 66 75 56 44 50 70 58 76 73 100 98 100 100 100 94 100 100 97 84 100 78
78 60 91 88 98 100 100 100 75 52 64 96 97 100 89 86 100 88 97 100 92 75 74 74 86 84 77 30 28 58 52 79 95 97 100 97 64 71 94 97 100 78 78 91
68 73 97 96 100 100 100 98 67 99 100 100 100 100 96 95 100 86 100 86 57 89 79 88 80 83 92 78 84 58 36 54 80 98 99 95 91 95 98 99 97 88 98 98
88 99 99 100 100 100 100 88 99 100 93 90 100 100 98 86 86 70 74 68 82 100 90 96 95 100 87 83 67 71 51 68 81 84 94 94 100 100 89 100 99 99 99 99
98 96 96 100 100 93 80 85 98 88 100 100 98 100 98 85 67 71 81 92 79 100 74 70 81 95 80 95 76 48 64 70 72 83 84 80 96 100 100 97 98 96 97 94
100 100 100 100 100 100 100 100 100 100 87 74 62 61 65 66 60 59 86 97 88 93 100 100 100 100 100 98 75 54 61 65 80 80 73 72 77 93 91 92 98 98 94 82
90 96 100 100 99 99 99 86 67 53 46 46 62 68 66 79 73 70 78 84 87 94 100 100 100 100 100 100 84 73 69 74 75 73 67 73 75 75 88 94 99 98 98 100
100 100 99 95 92 82 64 70 83 72 69 70 73 82 74 76 74 73 85 100 100 93 97 100 100 100 87 85 90 97 100 96 94 94 90 75 70 70 80 93 95 91 85 83
86 53 52 64 74 73 78 80 76 76 74 70 73 93 100 97 79 89 80 82 100 98 95 96 90 81 74 62 82 79 86 92 92 93 84 89 97 97 92 83 84 88 86 76
99 100 100 99 94 88 81 80 73 64 60 96 100 100 100 99 89 96 100 84 80 76 98 82 56 36 25 22 20 16 17 24 25 38 45 49 36 55 65 87 80 72 73 85
91 92 92 86 80 83 95 95 66 41 80 100 100 100 100 50 78 62 63 63 67 70 63 46 21 15 12 11 11 10 9 10 12 17 21 20 16 9 8 11 12 9 11 23
96 77 71 93 83 80 71 59 37 83 99 98 100 100 100 69 58 63 85 99 99 76 85 86 86 24 24 82 100 100 100 89 85 80 75 77 76 59 35 16 9 9 14 34
99 84 76 80 71 66 47 95 97 99 100 100 100 100 100 100 100 71 90 99 100 98 91 97 56 97 100 100 100 100 100 100 99 100 100 100 100 100 100 98 95 100 100 100
80 74 65 62 50 42 55 98 100 100 100 100 100 100 100 100 100 99 99 100 100 100 100 96 97 100 100 100 100 97 98 100 99 100 100 100 100 100 100 100 100 99 100 100
71 66 53 50 41 30 91 99 99 100 95 100 98 87 90 100 94 94 100 100 98 73 86 89 73 67 84 81 74 67 70 90 98 94 96 99 98 95 93 97 100 100 100 100

GFSNW_500_rhum_042.txt.gz
RH
6 35 50 100 82 80 100 100 91 77 100 89 43 11 16 22 23 20 26 9 5 7 58 98 47 46 38 17 14 20 19 23 19 45 70 86 88 76 78 59 50 44 32 20
10 36 94 100 100 100 100 100 89 70 90 62 28 29 39 34 31 37 35 26 22 9 97 99 100 91 86 71 41 38 38 40 21 35 58 68 70 79 77 81 59 37 37 25
26 76 100 100 100 100 100 100 96 71 57 50 42 40 34 34 24 22 19 22 23 26 19 63 72 91 96 100 98 92 88 61 42 15 52 90 87 90 82 81 62 57 47 32
80 100 100 100 100 100 100 99 78 55 38 38 45 34 23 26 21 18 20 18 23 22 19 22 16 41 100 95 98 67 89 65 70 35 38 76 99 98 97 80 70 72 60 46
100 100 100 100 100 100 100 97 74 52 46 38 59 53 34 27 29 26 26 23 28 30 23 25 22 21 17 48 67 100 99 95 99 44 55 78 80 100 90 91 86 78 78 66
100 100 100 100 100 100 100 94 89 78 61 52 44 23 24 52 65 46 44 36 33 32 33 35 32 26 22 20 15 53 94 97 88 63 92 100 100 34 76 87 100 86 87 76
100 100 100 100 100 100 100 97 98 91 66 57 18 35 50 58 61 49 62 67 53 45 56 44 36 32 28 24 21 13 13 28 100 89 86 100 35 74 66 77 94 100 100 93
87 82 79 74 79 99 100 100 100 100 91 62 69 50 46 78 68 53 52 68 82 73 81 62 50 35 32 23 26 41 41 50 70 100 100 94 65 70 74 79 59 72 84 100
59 56 56 61 74 100 100 100 100 100 100 83 67 80 82 84 88 76 56 71 100 85 82 82 56 36 32 30 24 32 37 58 94 100 100 98 85 86 93 92 73 89 99 100
38 37 41 51 84 100 100 96 81 99 100 82 87 70 66 85 87 85 82 70 99 100 74 85 70 47 35 31 26 23 44 43 78 100 98 92 92 96 100 99 63 99 99 98
34 38 43 46 57 71 69 67 63 80 89 84 94 69 62 65 63 50 51 100 77 97 84 79 74 51 36 32 26 31 60 57 56 100 97 92 100 100 100 87 86 97 97 94
72 52 42 31 37 78 88 81 76 78 89 100 93 89 99 98 51 78 100 100 99 100 100 99 80 66 49 34 28 33 56 81 100 94 97 98 96 100 89 92 100 97 97 88
89 55 55 42 50 63 71 64 69 71 70 88 100 100 93 76 68 72 86 84 99 100 91 100 93 79 61 37 29 34 64 89 93 91 100 96 99 91 95 89 97 98 95 79
69 65 56 61 61 62 89 87 66 63 68 61 48 73 93 100 83 77 72 89 100 96 97 100 100 83 64 46 40 49 77 100 98 98 99 87 88 96 100 97 86 98 95 80
82 69 84 98 100 100 100 62 74 75 75 62 70 49 42 96 99 79 83 89 82 92 86 76 71 76 84 54 60 64 84 77 100 100 94 76 84 93 100 100 91 98 100 95
68 92 93 81 85 99 100 97 94 54 99 92 100 100 99 87 66 85 83 86 68 57 68 84 76 83 65 49 74 100 93 80 75 74 66 85 97 100 100 100 99 93 97 100
86 94 98 91 91 95 96 82 100 88 96 94 100 87 96 100 82 80 70 58 95 87 94 100 76 58 72 58 72 100 100 94 84 80 50 90 93 85 100 96 95 96 96 100
94 82 86 99 100 100 100 100 100 100 100 100 95 94 100 93 95 100 100 100 100 95 76 98 100 97 97 98 88 99 96 100 85 71 68 82 86 89 98 88 72 87 92 96
100 99 100 100 100 100 100 100 100 90 85 84 92 100 100 96 97 100 100 100 84 71 89 100 100 97 83 100 100 100 100 97 77 76 75 74 73 75 69 68 82 80 81 90
97 100 100 100 100 100 100 98 98 98 98 100 100 85 81 87 100 100 100 93 91 88 100 100 99 100 87 68 70 83 89 93 72 68 63 63 71 67 69 75 73 72 78 76
96 78 75 98 100 100 100 90 84 91 99 97 91 92 90 84 92 90 97 94 95 100 100 100 100 100 100 71 86 100 100 100 100 100 88 83 95 91 94 91 80 74 78 87
100 97 95 92 100 98 96 98 99 98 97 79 77 87 93 100 82 80 84 87 84 90 95 91 60 76 80 80 97 100 100 100 100 100 100 96 100 100 92 95 91 98 100 90
82 92 100 100 87 90 94 93 92 92 79 80 90 84 87 98 97 77 86 99 97 96 88 63 53 66 75 89 98 100 100 93 67 49 33 24 37 43 43 39 38 38 31 44
100 100 100 94 89 87 89 64 52 59 86 100 100 100 100 77 100 88 68 55 61 68 66 54 49 63 75 68 45 34 58 70 86 63 50 49 78 98 100 100 100 100 93 65
93 87 83 82 80 62 38 40 62 98 100 100 100 100 100 65 100 87 92 98 81 56 60 70 66 44 62 55 44 86 100 100 100 100 100 100 100 100 100 100 100 100 100 100
92 77 71 66 62 59 48 98 99 100 100 100 100 85 61 46 52 50 56 80 91 86 78 76 74 92 100 99 100 100 100 100 100 100 100 100 100 100 100 100 100 100 100 100
82 66 64 51 79 100 100 100 100 100 97 100 100 100 74 73 69 74 74 92 100 100 100 95 94 100 100 100 100 100 100 100 100 100 100 100 100 100 100 100 100 100 100 100

GFSNW_500_rhum_045.txt.gz
RH
8 6 5 6 6 8 44 80 93 20 39 29 10 2 3 15 12 18 16 13 6 8 7 6 8 6 6 7 6 7 8 9 11 24 43 64 90 83 95 90 74 65 58 32
8 6 7 8 7 25 59 100 98 54 71 35 18 28 41 28 22 37 37 31 14 7 13 20 22 55 40 23 16 13 10 6 7 16 46 55 48 69 86 89 83 54 64 34
7 8 8 8 10 40 88 100 90 93 71 45 66 82 79 52 47 65 53 42 35 18 9 27 77 100 99 68 53 46 25 16 9 7 26 53 46 70 100 100 74 67 45 53
8 9 7 6 20 52 99 98 60 64 47 46 59 71 76 66 55 62 59 46 35 26 20 10 23 99 100 99 100 98 74 51 30 20 22 53 54 50 66 45 56 67 61 65
11 30 34 18 37 84 100 94 78 73 69 59 65 68 68 77 75 60 58 39 50 35 23 27 15 69 100 98 93 90 100 100 89 35 43 52 61 59 51 70 75 61 80 73
28 42 48 64 94 100 88 86 91 97 87 79 57 52 64 64 69 59 54 50 50 43 38 37 28 22 36 59 74 83 66 78 99 98 94 99 51 70 100 100 88 74 72 93
40 78 97 100 100 100 100 100 100 99 78 56 43 52 61 57 68 77 81 73 50 79 46 37 30 26 23 22 20 23 21 29 38 63 100 100 42 86 78 99 99 100 96 94
97 100 100 100 100 100 100 100 96 86 65 66 55 49 52 63 60 63 74 81 99 74 49 34 33 33 28 24 24 21 20 19 21 22 25 67 70 100 100 99 71 87 94 100
100 100 100 100 100 100 100 100 98 86 76 53 66 60 52 49 58 68 60 100 99 83 63 57 43 34 37 35 33 31 26 24 22 21 38 36 42 65 100 98 47 79 74 82
100 100 100 100 100 100 100 96 94 88 68 66 72 56 54 52 61 74 94 100 95 88 75 67 53 47 43 43 37 34 30 30 28 26 30 25 35 49 100 96 47 91 86 87
100 98 98 99 100 99 95 95 95 82 64 62 62 70 66 59 63 79 85 100 96 88 68 64 54 52 52 50 46 43 34 36 29 30 28 21 24 65 100 97 80 58 98 81
58 66 75 70 57 46 40 43 84 100 98 71 79 73 67 76 89 99 99 100 100 96 99 72 70 55 62 66 55 52 39 36 42 35 30 97 66 87 96 100 100 72 79 84
52 55 60 60 58 56 54 40 70 92 93 83 81 74 87 83 90 96 90 92 100 99 94 87 88 70 55 48 48 57 52 63 54 38 27 96 97 96 98 98 100 98 98 95
31 29 34 95 94 85 97 99 83 100 92 75 62 82 100 100 95 82 83 86 94 89 89 100 92 65 55 48 54 61 86 77 55 36 32 96 100 100 93 94 98 100 96 82
53 60 73 100 92 69 54 42 44 65 96 83 66 80 100 100 100 98 89 86 70 64 89 72 69 70 72 68 80 84 86 76 59 37 43 85 99 100 100 98 99 99 100 88
72 60 75 91 100 89 99 78 61 62 76 76 72 74 92 93 96 87 100 86 98 82 76 69 81 93 100 100 100 99 86 78 51 35 60 98 100 100 100 100 100 100 100 100
100 99 99 98 88 72 76 60 50 63 60 52 65 67 73 79 85 95 100 96 96 86 89 44 81 95 100 100 100 100 100 80 51 45 62 84 100 100 99 97 100 100 90 82
100 100 94 90 93 91 74 64 55 52 64 100 100 86 82 65 54 45 69 98 100 100 92 76 57 100 100 94 83 73 66 45 44 69 92 96 100 100 95 96 94 87 93 88
82 80 90 95 65 55 93 100 91 93 100 99 100 100 100 100 72 69 94 97 98 94 93 91 96 100 100 80 67 52 40 45 70 93 100 100 100 88 93 95 84 63 64 67
100 100 98 96 99 100 100 100 100 100 100 100 98 90 84 87 87 86 94 90 100 100 100 100 97 96 100 100 65 60 97 98 100 100 97 72 81 87 85 79 64 57 62 70
100 100 100 100 100 100 100 100 100 100 100 100 100 100 100 90 100 100 100 100 99 98 94 90 66 70 95 88 74 70 99 100 99 99 100 91 90 81 82 79 74 66 56 69
100 100 100 100 100 99 100 100 99 98 99 94 100 100 96 98 100 100 96 99 99 87 77 75 71 93 100 100 100 91 99 100 100 100 100 100 95 100 100 100 97 96 93 100
92 100 99 95 75 76 78 74 82 71 76 78 70 72 82 93 90 88 95 84 76 77 64 60 77 99 100 100 100 100 100 100 100 100 100 98 100 97 100 100 100 100 78 54
84 85 88 80 78 75 73 78 81 72 69 81 86 93 92 99 100 100 99 83 80 65 54 68 88 91 100 100 100 100 100 100 100 100 100 98 90 62 39 27 24 33 64 100
98 94 95 95 90 87 87 82 81 73 81 76 84 95 100 100 100 95 75 59 54 50 50 61 72 75 88 100 100 98 95 78 55 57 79 98 98 100 100 100 100 100 100 100
98 99 94 87 73 54 52 62 86 99 99 99 97 98 78 91 96 92 60 41 35 41 47 56 68 77 79 74 90 100 92 64 55 98 100 100 100 100 100 100 100 100 100 100
80 73 64 68 55 78 92 100 100 100 100 100 100 81 57 58 70 76 79 96 99 95 68 50 55 70 72 83 100 100 100 100 99 100 100 100 100 100 100 100 100 100 100 100

GFSNW_500_rhum_048.txt.gz
RH
7 7 10 13 12 8 7 6 5 6 10 13 5 2 2 4 5 7 13 9 9 12 8 11 7 10 8 8 9 12 14 15 15 22 32 47 56 52 58 67 60 52 40 32
8 9 12 13 13 10 8 7 6 6 16 23 25 12 10 14 14 30 38 26 19 13 15 20 16 12 8 6 7 7 8 10 11 15 26 29 27 33 33 39 43 38 38 34
9 11 12 15 11 8 9 10 9 8 31 50 88 47 24 19 45 74 52 45 34 25 16 29 68 41 23 19 10 11 8 9 10 12 19 24 29 27 31 40 38 30 21 32
10 12 15 15 8 9 10 9 8 16 56 78 82 66 66 93 100 98 84 72 59 52 27 18 78 100 77 43 45 16 12 11 14 12 13 16 21 40 58 54 50 39 29 31
12 14 18 10 9 11 11 8 14 43 71 90 96 100 100 100 100 100 100 71 96 90 48 30 19 42 66 100 86 56 36 46 44 28 24 20 15 24 50 69 73 42 24 17
14 18 17 9 10 24 15 10 36 53 71 87 99 86 100 100 100 100 100 100 100 96 88 42 30 17 16 27 67 85 98 90 57 59 66 77 27 22 41 57 77 56 34 25
18 19 10 10 25 62 37 39 49 62 79 100 98 100 100 100 100 100 100 100 100 100 77 59 42 35 33 22 16 32 35 51 93 78 94 99 68 89 100 90 54 73 59 37
19 14 10 13 49 66 59 63 82 95 84 99 100 100 100 100 100 100 100 100 100 89 66 54 39 32 29 26 25 24 32 42 38 43 40 41 57 45 70 99 62 97 87 73
14 10 15 31 48 89 85 85 100 100 100 74 100 100 100 100 100 100 100 100 100 89 80 58 39 33 28 26 24 24 23 22 21 18 18 14 15 14 16 23 48 57 72 71
9 18 24 44 86 100 100 97 100 100 95 98 100 99 100 100 100 100 100 100 99 91 80 70 48 39 36 33 29 27 26 24 21 26 25 15 18 18 18 15 21 28 67 58
32 59 90 99 100 100 98 94 100 100 100 100 100 100 100 100 96 82 98 100 96 91 63 56 56 45 46 46 43 32 28 31 31 38 32 22 28 18 23 50 53 36 56 66
100 100 100 100 100 100 98 94 100 100 100 100 100 100 100 100 100 100 93 100 100 94 67 54 61 54 47 56 48 49 39 42 49 41 36 39 32 35 30 84 80 58 42 63
100 100 100 100 100 100 98 100 100 100 97 95 84 81 94 93 89 96 92 99 100 90 83 74 64 53 47 42 44 52 56 63 51 54 36 47 45 35 32 30 56 82 61 89
69 73 84 90 92 94 97 94 96 98 94 96 82 78 89 98 100 98 100 100 100 100 99 91 72 62 65 64 65 54 61 57 52 46 42 41 51 52 34 28 91 100 68 98
44 38 38 50 63 72 73 55 55 52 54 49 46 62 94 100 100 100 100 100 100 100 100 99 84 81 86 85 80 69 64 54 51 46 46 46 65 56 35 47 88 92 77 97
59 52 48 38 35 41 100 100 94 73 72 56 49 64 81 93 98 100 100 100 100 100 99 98 100 98 88 71 54 44 34 29 29 30 42 58 68 59 33 52 100 100 100 100
53 55 60 68 75 83 97 84 70 82 97 86 74 75 77 73 77 96 94 100 100 100 97 82 90 82 60 62 59 46 38 39 40 80 74 82 68 39 30 80 100 100 100 97
65 80 90 100 100 100 100 74 84 63 49 40 31 39 70 57 47 62 98 99 100 98 96 100 71 85 86 66 46 47 66 94 100 100 100 94 63 41 37 75 100 100 100 91
100 100 100 100 97 100 99 100 86 56 55 38 35 65 66 75 73 82 98 98 88 78 70 82 84 72 64 39 48 60 68 94 100 100 75 58 56 49 68 86 100 95 100 100
100 100 100 100 100 100 100 76 56 63 80 96 100 99 100 69 80 60 66 84 98 76 92 100 82 51 50 54 61 95 97 85 87 73 51 41 81 99 99 100 98 88 99 100
100 95 90 99 99 100 100 94 71 85 89 96 100 98 100 81 100 77 63 55 62 75 99 81 83 100 98 97 96 100 98 97 86 92 100 99 60 88 99 98 93 77 81 93
77 78 94 98 100 99 100 99 100 95 100 100 100 100 100 96 100 100 69 64 70 81 93 98 81 87 86 90 94 100 100 100 86 91 100 99 94 89 76 83 77 83 83 81
64 84 100 100 100 97 100 95 100 100 98 96 100 98 94 82 89 78 92 82 60 62 72 72 74 75 66 70 91 100 100 100 100 95 100 92 99 86 94 96 90 86 83 100
100 100 96 87 80 83 95 99 84 86 88 85 84 87 99 100 90 87 74 56 62 63 66 63 58 59 68 82 88 97 100 100 95 93 97 98 100 100 100 100 96 85 97 100
93 90 89 83 84 79 75 79 85 87 85 89 92 99 100 98 98 86 88 81 68 63 68 77 68 65 85 94 97 100 98 96 99 100 94 90 90 100 100 99 91 77 62 53
100 100 99 100 99 98 98 96 96 88 84 79 87 96 95 82 89 94 98 91 79 69 66 64 63 68 75 80 83 97 100 100 100 100 100 100 100 100 100 100 100 100 100 100
98 93 85 79 77 68 66 66 81 68 79 94 100 100 88 79 90 100 100 89 72 63 53 59 61 56 60 62 74 94 100 100 100 100 100 100 100 100 100 100 100 100 100 100

GFSNW_500_rhum_051.txt.gz
RH
5 4 4 4 5 6 6 6 5 7 7 5 4 3 2 2 3 3 2 4 16 11 12 10 8 6 12 14 35 81 54 26 17 26 47 66 79 83 81 74 71 62 51 41
6 5 5 4 6 7 7 7 8 11 9 6 5 4 4 4 5 6 5 6 9 38 28 19 14 10 5 6 10 18 31 43 43 31 75 84 83 82 71 57 56 53 52 38
7 6 5 5 6 9 8 9 10 11 10 6 6 6 6 6 11 21 14 14 17 26 46 37 25 15 13 10 8 11 13 19 22 24 19 20 21 28 35 39 43 43 34 30
8 7 6 6 8 12 11 11 11 12 7 6 8 8 9 30 53 54 42 36 61 52 50 43 29 30 16 13 12 9 10 8 13 20 22 24 25 26 28 28 29 26 28 30
12 10 10 9 12 19 13 12 12 10 7 9 9 11 31 93 100 100 96 97 100 100 78 72 43 32 20 20 17 17 10 14 13 22 34 18 15 17 26 29 29 23 32 27
28 16 12 14 21 24 15 14 13 7 8 8 9 27 84 100 100 100 100 100 100 100 100 77 66 39 28 28 26 34 40 61 42 39 58 42 12 16 20 28 38 30 19 32
49 28 21 22 24 22 17 17 9 8 8 12 30 70 99 100 100 100 100 100 100 100 98 92 70 49 34 23 19 30 36 56 65 60 44 34 31 52 76 62 34 25 17 21
52 37 28 28 27 24 19 13 8 10 13 26 56 99 100 100 100 100 100 100 100 100 100 85 74 58 40 29 21 15 16 25 64 100 95 30 66 72 67 55 77 82 60 29
52 43 38 32 29 21 14 10 20 28 36 45 79 100 100 100 100 100 100 100 100 99 91 86 74 69 48 37 34 30 24 25 24 19 27 21 18 22 22 22 25 27 42 46
56 46 35 28 21 15 11 22 51 64 41 63 100 97 100 100 100 100 100 100 100 94 80 85 74 56 44 36 34 35 30 29 27 27 24 16 23 27 28 22 18 16 13 14
39 33 25 21 15 13 18 43 64 70 65 76 100 100 100 100 99 100 100 100 100 88 75 80 76 52 49 36 31 32 35 34 31 27 20 17 24 28 30 27 22 22 15 13
22 22 17 11 14 18 36 55 68 95 99 82 100 100 100 100 100 100 98 100 100 99 72 66 70 66 68 59 45 40 37 38 38 27 22 24 28 32 32 34 26 28 24 15
33 13 10 21 29 32 56 85 98 100 94 100 100 99 100 100 100 100 99 100 100 95 88 71 63 51 54 53 51 58 47 42 33 30 29 36 38 40 40 48 42 35 30 20
100 100 100 98 98 100 100 100 100 100 100 100 100 98 99 100 100 100 100 100 100 100 96 81 66 54 48 52 54 52 57 51 47 36 38 43 51 50 44 49 45 34 33 20
100 100 100 100 100 100 100 100 100 100 100 100 100 95 100 100 100 100 100 99 100 100 98 82 69 63 58 57 52 47 58 57 52 49 50 48 49 52 49 48 43 34 31 21
100 99 100 100 100 100 100 100 100 100 100 100 89 100 100 99 100 100 96 100 100 100 95 92 88 88 83 63 59 65 70 75 72 62 59 59 54 55 48 43 38 32 24 22
99 87 73 68 83 99 97 90 100 100 100 99 97 91 84 73 67 67 79 100 100 100 100 88 94 100 98 83 76 78 86 79 69 58 46 36 29 26 26 34 47 41 24 27
98 81 68 66 50 49 62 70 98 100 100 96 68 62 66 63 67 59 62 85 100 100 100 94 96 88 74 71 62 64 66 60 42 36 41 46 35 64 78 91 84 61 41 40
74 90 100 100 84 58 59 100 100 100 94 78 70 68 78 70 70 64 54 92 86 91 100 100 97 100 96 64 50 44 52 46 50 72 70 89 94 100 99 100 97 71 54 46
90 100 100 97 78 86 92 100 100 81 67 59 49 50 50 65 53 60 62 65 72 93 100 100 94 93 85 42 45 45 41 41 40 71 58 71 79 98 88 79 68 78 94 64
100 100 84 100 100 100 100 88 66 65 56 47 49 50 98 89 100 80 81 92 100 100 100 90 54 48 75 98 72 61 85 90 63 55 69 67 58 68 63 87 80 99 100 89
89 88 98 98 97 100 83 78 71 50 66 96 91 87 79 72 96 98 94 96 90 93 79 72 57 76 82 64 96 84 74 67 72 79 84 84 62 72 95 100 86 81 86 72
84 96 94 70 65 57 43 50 69 96 88 94 100 99 100 99 100 100 100 92 59 50 58 56 46 40 83 84 73 67 79 78 100 100 100 94 88 93 95 85 92 99 76 68
100 94 87 68 63 72 85 82 80 100 100 100 100 100 96 85 90 79 69 54 62 50 37 39 47 61 55 52 52 58 95 99 100 100 100 100 100 100 100 100 98 96 100 100
100 100 90 90 89 94 98 94 94 87 81 93 100 100 100 100 100 94 79 82 64 51 55 68 69 68 65 71 95 100 99 99 100 100 100 100 100 100 100 100 100 100 100 100
90 89 96 99 96 88 85 80 82 89 91 88 90 96 98 98 96 100 95 89 94 92 79 72 72 70 80 89 90 92 97 99 100 100 100 100 100 100 100 100 100 100 100 100
100 100 100 100 100 99 100 100 99 98 97 91 88 98 100 95 94 100 100 100 98 100 80 76 89 70 60 62 67 72 88 97 100 100 100 100 100 100 100 100 100 100 100 100

GFSNW_500_rhum_054.txt.gz
RH
10 9 7 6 6 5 5 4 4 5 4 4 4 3 3 3 4 3 3 3 2 2 3 3 6 6 10 25 33 89 68 31 88 83 77 87 94 93 94 100 100 95 84 96
10 11 11 10 8 7 6 5 4 4 4 4 4 4 4 5 5 5 4 4 3 3 3 6 6 7 11 9 19 34 76 72 17 19 30 48 78 74 80 82 82 83 81 86
42 22 10 10 9 8 7 6 5 5 4 5 6 7 8 8 8 6 5 4 4 3 4 10 12 15 10 34 26 14 28 46 74 26 23 25 28 55 73 72 76 80 76 76
30 33 36 12 12 12 9 7 6 5 6 6 8 11 10 10 6 5 6 6 9 11 6 8 25 36 44 15 91 88 64 23 25 48 53 32 32 48 78 95 72 56 58 53
81 42 32 24 17 21 12 7 6 6 8 10 13 13 11 7 7 6 11 40 35 32 18 15 47 40 37 33 38 34 44 100 91 39 44 44 36 31 26 26 25 27 32 30
97 92 68 50 37 30 15 8 7 9 13 17 14 13 8 8 9 19 95 97 51 88 100 66 28 29 36 43 44 97 48 30 38 60 59 31 20 27 37 42 44 40 35 30
99 93 84 63 48 31 19 14 17 18 15 18 15 10 9 10 21 92 100 69 100 97 100 96 85 61 44 39 40 39 55 100 92 84 88 36 22 25 33 47 48 32 19 16
98 91 81 70 61 46 21 17 18 20 19 18 11 10 11 35 95 93 100 100 100 100 100 98 100 86 76 54 46 32 34 42 50 56 45 34 43 71 68 50 57 54 32 23
95 90 73 66 61 48 25 22 33 26 19 15 14 16 26 77 84 100 100 100 100 100 100 100 87 89 80 76 57 40 31 22 18 14 14 12 32 72 69 27 38 41 39 41
94 87 73 64 57 44 30 33 36 25 18 13 24 30 58 100 100 100 100 100 100 100 97 95 99 100 96 94 62 38 28 23 22 23 18 15 25 35 31 28 18 21 19 16
90 85 76 63 54 54 36 42 31 21 13 42 38 66 99 100 100 100 100 100 100 97 86 88 100 100 99 84 78 54 45 42 31 26 20 26 31 30 27 30 20 20 21 18
58 72 72 69 61 50 36 29 21 14 34 73 73 99 100 100 100 99 98 90 100 94 76 79 97 100 100 100 82 61 47 40 48 35 36 30 29 33 30 29 24 23 24 25
26 31 40 44 41 32 23 20 16 34 56 67 90 100 100 100 100 99 100 94 99 99 92 99 94 85 95 83 78 70 53 49 38 38 40 57 41 24 25 27 28 30 31 28
50 24 21 25 23 20 16 14 19 56 66 77 100 100 100 100 100 100 100 100 100 100 100 97 81 80 82 79 72 62 59 47 48 46 51 57 60 42 37 37 34 37 36 31
100 99 56 14 14 18 19 25 42 66 90 85 96 99 100 100 100 100 100 100 100 100 100 96 89 84 75 76 64 58 58 56 50 48 46 52 53 42 44 46 44 43 44 42
100 100 100 100 99 85 43 54 83 97 99 96 93 100 100 100 100 98 100 100 100 98 97 90 83 86 77 62 52 52 57 54 55 45 52 49 50 56 57 56 55 51 53 53
100 100 100 100 100 96 94 84 94 100 100 100 96 99 98 100 100 100 100 98 100 98 88 82 94 94 78 61 58 63 66 66 60 54 57 57 48 52 51 48 43 37 32 28
100 100 100 100 100 100 100 100 100 100 100 100 93 85 95 98 100 100 100 98 100 100 100 100 99 90 73 50 60 77 74 68 58 60 56 56 54 51 45 38 30 28 27 38
100 100 100 100 100 100 100 100 100 100 99 95 92 93 89 86 78 74 66 67 72 95 98 99 100 88 62 57 54 57 55 50 46 48 52 60 67 52 45 55 72 94 82 71
100 100 100 100 100 100 99 100 100 100 97 77 84 97 100 91 84 82 71 60 63 84 95 100 100 84 90 74 60 50 44 36 31 32 35 51 44 43 46 84 85 88 95 71
100 100 100 100 94 100 100 98 96 93 81 75 74 84 74 70 100 75 67 60 69 76 74 98 100 100 100 86 77 68 43 38 40 44 45 47 49 46 67 62 61 62 73 73
81 87 100 96 100 100 94 65 64 61 65 66 63 53 51 60 68 60 67 74 73 77 80 73 62 85 83 77 65 74 61 77 85 81 79 81 82 85 76 64 50 50 62 100
85 94 100 100 61 88 82 75 58 60 57 47 39 60 74 73 74 88 82 70 62 74 90 94 70 70 74 58 69 62 54 69 68 66 66 100 100 92 86 74 74 87 95 100
98 98 89 71 55 44 54 65 69 67 85 71 94 90 92 97 100 100 97 83 82 76 70 60 61 66 69 65 59 56 54 51 52 72 94 100 100 100 100 100 100 100 100 100
87 68 57 78 77 80 87 96 94 96 96 100 100 100 100 98 100 100 100 84 65 56 42 48 58 55 58 60 54 47 44 70 94 100 100 100 100 100 100 100 100 100 100 100
97 87 90 97 100 95 94 88 94 97 100 100 100 100 99 95 92 92 74 70 67 86 76 70 63 69 69 64 64 68 90 100 100 100 100 100 100 100 100 100 100 100 100 100
85 82 78 80 80 78 77 86 92 90 93 97 100 100 100 98 93 100 99 100 100 100 98 92 82 80 78 81 81 92 96 96 100 100 100 100 100 100 100 100 100 100 100 100

GFSNW_500_rhum_057.txt.gz
RH
10 9 10 12 12 11 6 5 5 5 6 12 24 39 17 11 8 5 4 4 3 3 2 2 2 2 3 5 14 43 82 94 95 100 100 97 100 98 99 99 100 99 99 99
10 8 8 9 12 14 12 9 6 6 6 5 5 7 6 6 5 4 4 3 3 3 3 2 2 2 2 4 5 23 56 79 96 100 100 100 97 98 99 100 100 98 98 98
10 17 25 31 29 17 11 11 10 8 8 6 5 5 5 5 4 5 5 4 4 3 3 3 2 2 2 5 16 9 25 76 92 99 100 99 95 99 98 99 98 98 98 99
48 60 71 67 62 56 51 14 11 11 10 8 6 7 6 5 5 6 8 6 5 5 4 3 2 2 4 10 92 97 39 30 84 100 86 87 100 89 47 61 88 100 99 99
60 87 77 61 53 35 33 47 13 13 15 10 10 8 7 7 8 9 10 10 7 5 4 4 6 8 6 5 18 100 100 86 34 60 59 86 99 72 30 43 64 64 84 96
92 96 86 91 76 68 62 49 25 21 18 13 13 11 12 12 14 12 13 30 28 62 99 34 23 16 6 6 26 49 100 100 100 94 78 59 49 59 66 46 42 45 60 92
98 100 100 100 100 82 82 68 51 35 20 18 19 19 18 18 16 13 38 24 63 85 73 48 41 22 15 15 33 98 70 100 100 100 100 100 87 57 60 60 64 68 57 50
36 100 100 100 100 92 94 90 87 42 25 25 31 27 24 18 14 10 9 41 82 70 62 54 63 72 47 9 21 54 99 99 86 77 57 78 78 65 63 77 78 52 54 20
35 86 100 100 96 93 87 100 83 52 34 26 37 29 20 14 10 10 22 68 90 84 100 96 73 75 68 61 53 28 49 61 88 99 100 100 98 88 66 64 83 60 32 34
38 78 100 100 95 83 81 84 72 48 21 37 35 24 23 16 15 22 74 100 83 100 100 95 83 89 98 100 90 80 49 36 30 33 53 31 28 20 12 25 70 28 43 23
35 71 100 99 82 74 69 70 56 38 29 54 33 21 14 16 32 98 98 100 100 93 53 82 96 95 99 92 100 96 80 51 33 34 74 21 57 31 16 37 47 48 25 20
32 66 99 86 71 66 64 56 53 63 44 41 21 19 21 30 66 99 100 100 100 66 73 99 100 100 98 100 97 100 86 49 60 32 39 44 51 38 59 60 52 37 21 22
34 64 85 78 67 57 52 70 75 51 34 25 14 34 50 63 100 100 100 100 100 100 98 100 100 100 100 100 98 100 100 97 59 62 59 89 44 31 49 37 32 37 33 26
30 50 67 66 64 60 66 61 58 36 22 21 44 61 98 100 98 98 100 98 88 100 100 100 100 100 100 100 100 91 100 97 77 93 100 80 55 40 36 39 33 28 24 23
35 26 37 50 55 54 53 42 30 21 26 62 97 100 100 100 100 100 96 100 99 100 100 99 100 100 99 100 100 100 100 92 83 91 76 80 78 39 46 48 35 34 34 31
99 59 22 26 30 30 26 24 18 21 54 98 100 100 100 100 100 100 100 100 100 100 100 100 100 100 100 100 93 98 74 75 78 74 87 67 56 42 55 50 41 40 36 34
100 100 77 25 16 15 16 16 26 65 98 100 100 99 100 100 99 100 100 100 100 98 100 94 100 100 100 100 95 83 79 74 67 66 64 54 59 45 48 52 50 48 50 48
100 100 100 100 96 99 64 68 62 85 100 100 100 100 100 100 100 100 100 99 95 83 81 95 100 100 98 73 79 81 86 80 66 69 64 50 51 56 55 53 52 44 43 39
100 100 100 100 100 100 100 100 100 100 100 92 97 100 100 98 100 100 98 91 85 86 87 100 98 97 71 73 89 84 74 62 57 59 52 48 44 36 37 43 54 63 56 35
100 100 100 100 100 100 100 100 100 100 100 100 99 98 100 92 92 98 100 100 99 95 100 100 86 72 74 86 87 71 62 56 56 53 43 38 33 30 29 31 37 37 40 45
100 100 100 100 100 100 100 100 97 90 91 92 95 99 90 80 84 77 75 69 60 56 78 91 94 61 79 88 95 82 76 68 54 48 41 42 33 24 27 42 41 36 37 47
95 99 100 100 100 100 99 92 89 80 75 65 74 82 79 80 84 93 92 92 68 56 74 85 64 55 94 98 97 94 86 64 72 67 70 68 62 65 67 89 92 82 67 56
100 100 100 100 96 88 90 71 74 67 60 58 52 60 67 69 65 72 92 85 82 60 65 67 49 64 91 90 100 84 68 61 63 52 54 65 67 65 80 100 100 92 87 88
98 87 77 77 63 56 47 63 76 73 63 62 55 48 56 88 87 95 100 82 76 74 66 68 86 100 99 100 90 82 74 74 70 61 56 58 61 75 85 96 100 100 100 100
93 84 72 63 64 84 76 70 63 56 52 44 51 76 98 100 100 97 100 95 83 84 92 84 85 91 95 90 81 72 66 67 64 57 56 68 76 93 100 100 100 100 100 100
78 80 76 80 77 75 89 90 80 81 72 85 94 89 100 99 90 95 84 79 83 100 83 67 56 52 58 58 58 68 74 72 72 75 94 100 100 100 98 100 100 100 100 100
97 100 100 100 100 100 100 100 100 100 100 98 100 100 100 100 100 100 99 98 99 97 91 96 85 72 64 66 71 76 83 92 91 100 100 98 100 100 100 100 100 100 100 100

GFSNW_500_rhum_063.txt.gz
RH
11 13 15 15 14 13 10 8 6 8 11 10 11 9 7 6 16 34 47 53 39 31 34 41 47 12 11 33 42 15 12 9 13 43 85 99 99 97 99 97 100 99 94 100
17 19 17 14 11 9 7 6 8 15 12 14 15 27 10 8 12 24 28 41 40 25 22 29 30 14 9 7 9 5 10 9 9 15 58 100 100 100 98 100 100 98 93 97
18 12 7 7 10 13 14 14 16 12 10 12 99 44 48 11 9 15 20 23 29 23 22 13 14 11 8 6 7 3 3 6 8 15 41 93 99 100 98 99 97 99 86 96
7 9 17 23 26 26 19 14 15 34 29 28 17 36 58 78 57 12 14 14 15 14 10 9 9 8 7 8 4 3 3 3 3 5 35 65 100 100 99 97 97 95 100 97
14 16 26 40 51 59 29 23 49 66 59 61 100 89 50 30 100 100 77 11 11 10 9 9 8 5 4 4 3 5 2 3 4 18 34 51 93 100 100 100 99 96 98 97
16 20 37 54 47 47 46 61 91 84 79 62 70 99 100 74 56 99 100 99 26 10 29 7 5 6 5 6 5 4 3 2 3 16 20 35 46 71 100 98 97 98 99 98
29 34 33 30 28 33 37 50 99 86 90 81 55 61 94 97 96 42 84 100 100 68 27 34 12 7 6 6 4 5 6 5 3 26 67 66 28 58 76 99 100 100 99 97
20 23 24 22 25 46 35 84 100 100 88 84 61 39 89 89 100 82 72 85 83 100 99 69 79 59 11 7 6 5 4 4 4 19 100 91 83 73 43 56 100 100 100 87
16 19 21 28 45 53 40 80 100 100 88 69 54 100 100 95 84 100 85 61 60 37 99 96 81 68 61 32 16 18 14 6 6 16 99 94 100 74 88 77 61 47 62 88
38 62 78 71 30 25 57 68 100 100 86 84 96 100 100 98 100 100 100 91 83 51 72 92 56 46 53 21 61 95 57 61 15 6 81 90 100 100 100 100 79 63 51 56
79 95 100 100 97 41 67 89 100 100 71 100 97 100 100 100 95 88 100 100 96 76 74 61 50 31 60 62 99 100 100 92 75 35 10 73 100 98 100 95 95 100 100 98
100 100 100 100 100 100 71 100 100 100 63 100 73 82 80 96 100 88 99 100 100 94 78 36 46 61 90 99 100 100 100 98 84 76 67 27 65 93 98 100 95 98 100 98
100 100 100 100 100 100 92 100 99 83 72 100 79 92 100 87 100 100 98 100 87 88 90 72 91 99 100 100 100 100 97 95 90 84 86 61 75 93 91 88 87 95 94 87
100 100 100 100 100 84 100 84 76 76 75 87 86 83 65 72 58 68 100 98 88 100 100 85 84 100 100 100 100 94 98 98 96 98 100 97 85 85 100 74 73 74 42 29
100 100 69 33 59 97 74 71 67 93 90 72 65 47 47 40 38 60 74 70 99 100 99 100 100 96 100 100 100 89 90 100 100 95 100 100 100 100 89 98 100 88 50 75
100 43 44 67 65 52 49 45 56 67 88 62 51 47 41 34 24 22 58 89 91 100 92 100 100 93 100 99 100 95 97 100 100 100 100 100 100 100 100 100 100 69 56 54
96 34 39 34 32 36 43 57 73 84 60 46 32 28 30 39 35 37 54 86 96 97 100 100 100 94 96 88 74 93 100 100 100 100 98 100 99 99 100 99 95 80 72 58
96 40 41 32 33 46 67 95 76 47 49 75 100 100 100 100 100 100 98 98 99 98 97 100 100 96 89 76 82 99 90 100 100 86 85 79 82 88 84 72 70 70 66 64
90 38 51 55 65 70 69 64 63 74 83 100 100 98 100 100 100 100 100 100 100 99 100 100 100 100 93 88 90 91 85 90 92 89 88 83 71 66 73 68 65 65 65 63
52 34 38 48 62 63 56 32 93 94 100 100 95 83 97 100 100 100 100 100 100 100 100 100 100 100 100 100 100 100 99 99 94 97 97 90 84 89 84 76 70 62 46 37
34 28 27 32 43 57 57 30 58 67 99 100 100 91 95 100 100 100 100 100 99 100 100 100 99 100 100 100 100 98 98 96 100 97 98 99 97 87 71 55 48 44 44 43
91 83 96 100 98 98 76 64 68 88 100 100 100 100 97 92 100 99 99 100 100 100 100 100 98 100 100 100 98 97 98 99 100 98 96 85 71 66 64 58 57 59 63 64
100 100 100 100 100 100 100 90 80 87 99 100 100 100 98 99 100 100 100 100 100 100 100 97 88 76 80 84 91 100 100 100 94 95 98 97 94 83 75 66 58 55 51 52
100 100 100 100 100 100 100 100 100 100 100 100 100 100 99 100 100 99 100 90 77 72 52 92 99 88 82 71 70 92 99 99 88 71 80 100 92 78 69 66 63 58 56 51
96 99 99 96 99 98 100 100 96 96 92 86 81 77 74 70 72 79 77 72 56 68 81 84 86 88 73 73 78 77 69 68 71 65 70 93 92 74 60 56 58 60 57 58
90 92 89 92 91 82 87 82 77 75 65 60 60 50 48 50 55 57 54 50 58 98 76 77 81 78 72 66 71 75 82 92 92 82 69 68 70 60 60 74 89 92 97 99
88 86 83 100 97 90 76 65 50 47 55 56 53 47 56 78 63 59 65 75 83 69 71 67 64 57 57 68 78 82 80 80 73 64 64 70 81 97 98 100 100 100 100 100

GFSNW_500_rhum_066.txt.gz
RH
8 7 6 9 12 12 10 8 7 8 8 8 8 7 7 7 6 10 17 42 48 92 100 74 56 48 47 54 52 44 42 17 15 34 80 91 99 100 95 99 99 98 97 99
8 8 12 16 15 10 7 7 7 11 11 10 9 10 12 11 9 12 19 75 100 66 92 89 82 46 47 46 26 43 48 26 17 17 44 72 83 98 100 100 99 97 97 98
10 16 18 12 7 8 11 12 14 28 24 31 28 75 66 32 33 13 16 30 81 93 100 84 48 44 33 25 19 13 9 13 16 20 37 63 85 95 98 99 99 99 85 97
20 17 10 7 10 14 15 16 30 33 44 42 34 91 100 99 93 81 25 20 37 57 44 67 44 28 27 24 20 16 11 9 5 8 32 46 72 100 94 94 100 98 99 95
16 8 9 13 15 15 14 26 41 33 70 98 50 66 100 98 93 100 75 25 32 47 34 33 33 29 20 22 19 21 14 7 3 3 6 16 54 93 96 95 96 97 100 97
8 13 18 23 26 27 33 42 51 56 72 91 100 65 58 48 55 100 100 99 56 25 31 51 39 52 31 22 12 10 7 5 4 4 8 9 12 97 100 100 100 100 99 100
14 18 25 28 28 30 28 30 32 41 79 79 74 100 100 100 50 57 100 100 100 88 19 62 92 83 34 12 9 7 5 4 4 4 6 21 26 51 74 99 100 96 98 99
56 17 15 16 22 24 24 24 33 33 61 90 94 92 100 100 80 34 60 99 93 100 50 48 48 58 23 7 7 6 6 7 4 6 5 12 40 94 62 98 92 94 100 98
44 10 11 16 19 22 26 45 42 37 78 97 100 95 76 74 100 88 43 96 100 100 100 95 47 39 38 28 14 14 7 4 4 4 4 3 92 100 98 45 60 86 98 97
22 16 30 50 58 58 36 32 46 36 59 100 96 91 71 44 71 100 88 54 77 91 100 100 98 75 74 56 42 28 9 5 4 4 3 3 71 100 100 100 78 78 82 83
77 90 94 77 83 87 86 41 46 55 54 92 98 68 43 58 69 100 100 100 99 90 82 73 100 78 65 46 34 39 53 38 27 25 4 3 39 100 100 100 100 100 94 100
85 90 98 100 93 100 94 95 74 91 74 79 88 71 86 100 100 100 95 100 96 100 73 59 66 62 58 46 55 99 100 99 78 74 68 23 16 97 98 99 100 100 100 100
93 95 100 100 100 100 100 100 96 86 73 89 95 100 100 90 100 97 93 100 100 100 89 57 54 47 65 87 100 100 100 100 100 98 78 50 86 74 96 100 100 100 100 99
97 100 100 100 100 100 100 100 99 98 86 88 100 94 87 100 98 77 82 100 100 98 94 87 55 97 97 100 100 100 100 97 100 91 90 79 80 79 95 89 99 100 100 99
74 94 100 100 100 100 100 100 98 81 85 80 78 64 70 100 78 55 78 100 100 100 90 82 92 100 100 94 100 97 100 99 100 88 83 100 100 87 94 100 100 100 100 94
51 92 100 100 70 64 86 86 51 57 70 76 72 57 60 54 65 65 86 100 99 99 100 100 100 100 100 100 100 99 100 100 100 98 100 100 100 100 86 85 100 100 100 99
50 98 50 48 51 64 50 51 72 71 63 55 49 44 39 39 42 50 60 67 81 99 100 100 100 100 100 100 100 99 100 100 100 100 100 100 100 100 100 100 99 95 100 93
69 84 38 18 22 29 41 53 58 70 64 53 42 53 44 32 25 23 26 50 76 94 100 100 98 91 100 100 100 100 100 98 100 94 94 85 80 95 98 97 98 100 98 90
97 60 18 18 26 35 41 57 57 48 73 100 100 100 100 100 100 98 87 81 82 82 97 100 83 88 94 100 100 100 100 95 95 99 96 97 90 80 78 77 77 80 86 89
100 50 26 35 41 53 54 47 50 99 100 100 100 98 100 100 100 100 100 99 100 96 84 83 82 80 94 99 98 100 100 95 91 86 81 99 100 93 86 83 75 75 74 71
78 54 49 42 58 63 52 36 91 94 100 100 100 100 90 74 100 100 100 98 95 96 96 99 86 90 98 97 94 88 81 85 86 76 69 75 84 92 89 91 94 96 92 80
52 55 60 51 50 44 40 38 95 95 96 100 100 100 92 84 86 99 100 100 100 100 100 100 99 100 100 98 91 88 90 96 91 85 80 75 75 84 88 86 87 87 78 66
67 69 56 49 55 50 36 37 84 99 100 100 100 98 95 88 83 82 91 99 92 98 95 94 100 100 99 97 99 100 100 100 100 100 100 100 100 100 100 97 95 92 85 72
80 80 66 83 75 80 68 56 70 91 100 100 98 95 92 90 83 79 91 96 100 98 100 100 90 76 77 72 60 51 48 45 50 72 87 85 76 57 57 74 90 92 77 64
92 95 90 96 92 96 98 91 88 95 96 100 100 100 99 96 96 100 100 100 93 86 98 100 92 86 83 80 73 65 56 61 67 70 70 66 60 62 80 99 99 95 81 62
100 98 100 100 100 100 100 97 92 92 99 100 94 88 82 69 60 60 62 62 61 86 81 77 72 77 73 70 67 66 69 70 71 76 81 83 84 85 77 73 74 77 92 99
100 100 100 100 92 91 86 73 65 58 52 52 54 52 44 48 51 53 71 94 70 68 66 72 68 61 64 64 71 82 83 88 96 100 100 100 100 100 100 100 100 100 100 100

GFSNW_500_rhum_069.txt.gz
RH
5 6 7 8 8 6 6 6 10 9 7 7 6 6 6 7 7 10 8 6 6 20 100 100 100 78 69 100 99 79 50 30 32 19 34 72 99 100 100 100 100 98 100 90
8 9 10 9 8 7 9 10 9 8 8 8 8 9 12 11 10 11 9 7 6 13 94 100 100 100 69 56 74 86 77 62 75 63 21 54 92 100 100 100 99 98 100 98
10 11 11 9 11 13 11 8 8 12 15 16 18 70 89 84 38 18 24 10 9 12 51 100 100 100 87 72 59 60 58 50 82 67 37 35 61 97 100 100 99 97 97 99
10 13 11 15 16 10 8 10 13 18 20 18 22 88 99 100 100 86 92 45 18 21 93 100 96 100 100 95 91 52 54 29 42 36 42 40 33 93 100 100 100 97 100 97
13 14 20 19 9 12 13 20 18 26 28 18 25 34 71 100 100 99 100 95 45 56 77 100 100 100 100 100 100 58 33 25 16 14 20 25 31 92 100 100 100 100 100 92
15 18 21 10 37 21 22 30 37 41 45 26 33 58 51 92 94 100 87 90 64 27 60 77 100 100 100 98 68 67 73 31 15 13 11 6 8 42 96 96 100 100 94 93
18 23 12 44 52 17 23 25 25 30 36 46 43 76 84 64 90 100 64 99 54 34 27 41 69 57 46 65 73 55 21 17 14 11 11 7 7 7 39 91 92 100 100 99
26 13 44 40 13 12 16 20 24 25 26 36 61 72 100 80 59 63 54 97 100 100 80 26 78 76 47 77 77 77 42 28 11 8 5 8 15 8 24 38 87 92 100 99
24 26 51 15 15 20 18 19 22 23 28 37 62 77 77 100 100 93 77 82 100 100 100 73 57 90 90 68 78 52 21 22 11 9 7 5 16 8 27 13 23 80 95 93
13 52 52 22 18 34 29 23 23 28 34 46 59 90 86 98 100 93 100 54 90 100 100 100 76 58 53 44 40 22 19 10 11 5 5 5 10 9 33 41 33 40 61 95
30 59 61 66 77 86 78 67 59 27 28 51 82 95 88 92 71 77 100 91 43 100 98 100 100 81 56 49 71 33 18 12 10 6 4 4 7 6 21 89 77 99 78 70
59 64 74 81 87 84 77 70 75 68 52 68 73 93 98 97 77 56 100 100 99 100 90 97 100 100 100 94 66 36 34 75 55 55 12 8 9 6 8 78 100 92 81 91
70 82 90 97 95 96 85 93 80 81 70 83 85 96 93 76 53 57 81 100 100 94 45 64 74 78 96 74 45 45 100 100 100 90 46 37 30 11 6 95 100 99 71 100
78 84 99 100 100 100 100 100 100 100 89 78 96 89 66 43 34 35 98 98 100 97 78 66 48 62 59 45 72 86 95 95 98 80 64 68 60 48 30 71 100 100 93 82
71 76 89 100 100 100 100 100 98 100 100 95 88 78 99 99 100 88 100 100 100 100 100 65 39 34 41 94 100 100 100 74 93 85 71 81 78 70 74 100 100 100 100 100
46 47 68 100 100 100 100 100 100 100 96 94 82 76 80 92 100 97 100 100 99 100 100 84 59 99 100 100 100 94 89 88 93 100 98 100 90 100 98 86 99 100 100 100
53 50 59 100 93 100 100 100 100 69 79 89 82 70 66 81 96 100 92 77 99 99 81 84 99 100 100 100 100 100 95 98 100 97 100 100 99 100 94 100 86 100 100 100
57 57 87 61 36 40 60 58 42 47 61 62 46 44 58 54 53 58 47 63 85 91 95 100 98 96 97 100 100 100 100 100 100 100 100 97 99 99 100 100 96 95 98 100
49 66 84 33 25 32 36 36 41 50 55 54 48 44 39 33 40 39 40 60 73 68 92 100 92 89 87 91 88 86 98 100 98 94 89 92 90 75 76 93 98 100 99 100
73 100 51 23 26 24 26 41 53 60 96 100 100 100 100 98 99 95 65 36 50 87 96 85 70 77 70 70 88 90 86 94 100 100 92 81 70 73 70 70 75 79 82 81
100 69 32 23 27 32 44 46 87 97 100 100 100 100 95 92 100 100 100 100 99 92 85 84 78 89 80 64 59 67 78 74 76 84 81 77 81 82 83 81 81 76 75 78
95 49 28 29 46 49 38 82 97 100 100 100 100 100 100 100 100 99 100 100 100 100 100 97 89 85 74 73 72 73 76 87 94 86 80 81 79 80 85 86 91 98 100 100
69 60 57 56 47 37 44 74 95 100 100 99 100 100 98 94 88 95 98 100 100 100 100 100 98 91 90 90 92 93 87 81 79 80 87 93 94 92 93 98 100 98 96 95
64 65 58 57 46 34 64 91 100 100 100 100 100 100 100 100 100 100 93 93 95 100 100 100 92 84 76 62 53 46 43 40 37 36 36 39 42 51 58 57 60 60 53 55
66 65 56 62 59 33 62 91 92 95 96 100 100 99 99 100 100 100 90 96 92 99 99 92 95 78 73 59 58 54 55 54 51 49 52 54 57 63 69 69 67 68 69 75
97 98 99 100 100 80 44 61 87 79 80 86 95 95 100 100 96 85 86 86 93 100 87 85 84 69 60 65 64 64 59 54 56 66 72 71 78 80 80 82 84 86 87 89
100 100 100 100 100 100 97 78 78 91 98 100 100 100 87 60 50 46 50 53 51 53 59 73 74 66 60 58 61 77 90 94 95 92 92 95 99 100 100 100 100 100 100 100

GFSNW_500_rhum_072.txt.gz
RH
7 6 5 5 5 6 7 7 7 7 6 6 6 7 6 6 6 7 7 6 8 9 8 6 9 25 18 22 79 83 80 48 44 47 49 27 24 37 75 96 99 99 98 100
7 6 5 5 6 8 9 9 8 9 8 8 7 7 7 8 10 9 10 10 8 10 8 7 9 88 38 35 68 100 95 100 86 72 52 42 29 52 97 100 99 100 100 96
7 6 6 6 8 10 10 9 11 10 10 9 9 11 14 15 33 70 35 24 16 12 9 7 8 60 100 90 60 100 100 99 100 100 100 80 30 91 100 100 100 100 100 100
7 6 7 8 9 11 10 12 16 21 15 15 14 15 15 21 83 100 98 90 61 28 11 8 6 73 100 88 100 74 77 67 96 100 100 97 47 59 98 98 100 99 100 94
8 7 8 8 11 12 14 17 33 22 23 23 23 23 19 23 81 86 100 100 90 47 20 15 50 34 100 100 100 74 62 88 92 74 69 89 50 30 52 96 83 90 97 98
9 8 8 9 13 15 18 28 20 21 30 35 36 28 29 30 44 77 100 100 100 84 67 20 29 95 100 100 100 100 100 96 97 76 51 26 19 25 26 63 85 98 96 83
9 8 8 12 16 14 33 13 13 24 24 26 31 40 28 38 32 74 98 93 94 100 97 52 42 85 100 99 100 100 100 100 99 70 57 28 20 14 13 19 74 99 99 100
9 8 10 16 19 21 20 17 26 21 22 26 28 35 39 38 51 56 92 75 72 88 79 35 49 60 100 100 99 100 98 68 72 66 48 34 17 13 8 6 21 87 98 100
9 9 14 22 19 34 18 18 22 18 18 21 23 26 50 52 58 65 72 75 85 91 100 100 51 33 57 95 81 70 65 65 64 71 59 45 13 8 8 5 10 23 70 90
9 11 23 28 24 50 46 39 44 47 21 27 30 35 38 67 67 75 57 96 94 100 100 100 87 54 50 72 61 69 78 64 65 73 65 52 10 9 6 8 30 25 33 47
10 18 33 22 48 64 63 60 64 61 42 25 30 35 49 73 81 77 65 97 100 100 100 100 100 79 84 91 90 82 63 63 64 50 42 28 12 8 7 9 21 53 51 46
13 32 32 32 65 75 76 72 60 59 57 69 60 61 65 91 83 88 75 94 100 100 81 100 100 93 97 89 68 74 79 50 38 31 25 27 12 7 6 6 13 84 84 81
24 42 24 61 82 94 95 90 68 70 54 55 68 72 62 70 96 78 72 93 100 100 63 80 94 100 100 100 100 98 90 98 100 99 85 60 36 17 8 6 6 47 100 87
44 35 40 80 92 100 100 94 94 94 89 51 80 62 54 72 87 83 78 81 100 100 61 57 58 52 96 100 98 77 67 100 100 100 100 84 70 64 34 12 7 26 100 100
46 30 76 85 98 100 100 100 96 100 100 87 100 83 63 62 79 76 68 80 100 100 98 83 66 59 76 73 67 68 99 100 93 92 97 87 74 84 63 53 35 97 98 100
27 70 79 64 100 100 100 100 94 100 100 100 100 92 87 91 73 66 57 78 100 85 100 96 88 53 47 53 77 100 100 94 100 79 89 86 70 75 72 94 89 98 95 100
68 77 54 55 71 100 100 100 100 100 100 100 85 91 91 95 90 42 42 90 100 100 99 100 100 60 63 100 100 100 100 100 100 97 99 100 87 96 85 83 92 80 99 100
68 56 63 64 84 100 97 100 100 97 100 60 85 97 97 93 99 95 72 100 99 94 99 100 98 90 100 100 100 100 100 100 100 100 100 100 99 100 100 100 97 88 67 86
66 67 67 88 97 52 89 74 54 48 51 62 58 54 57 70 76 73 75 77 81 74 92 98 94 100 100 100 100 100 100 100 100 95 98 100 96 91 85 88 82 72 83 83
81 77 52 100 45 33 34 34 37 46 54 44 42 45 48 49 54 60 64 54 38 42 75 72 73 91 84 80 79 78 66 74 88 83 76 72 72 68 69 70 59 61 69 69
74 66 98 66 27 29 27 36 45 45 44 38 35 31 34 29 28 30 37 39 34 42 54 69 68 73 66 58 57 55 59 66 68 69 71 71 68 66 62 62 57 60 59 57
90 100 79 27 27 24 37 47 71 76 80 94 99 100 100 100 100 100 96 100 90 76 66 46 44 71 57 49 53 51 49 52 62 69 71 66 66 65 65 64 68 74 75 73
99 93 28 26 21 34 53 81 94 99 100 100 100 100 100 98 100 99 100 100 100 98 85 77 80 71 82 83 85 85 85 87 89 86 77 75 73 75 78 85 86 88 91 89
100 46 24 26 30 45 77 100 100 100 100 100 100 100 100 100 100 100 100 99 98 99 100 99 97 98 96 87 72 58 52 47 45 46 48 49 48 42 42 44 51 59 64 59
60 48 50 55 49 50 92 100 97 99 100 100 100 100 100 99 98 96 97 100 100 100 97 88 82 72 64 63 61 62 60 54 51 52 51 51 53 57 59 62 65 68 70 74
70 66 64 54 45 47 92 99 100 98 100 100 100 100 100 100 100 100 100 100 100 100 97 84 76 84 74 64 56 55 56 57 52 51 51 56 66 67 69 72 75 81 87 92
64 81 90 62 40 40 72 82 84 86 86 81 86 96 98 99 88 70 55 56 59 63 64 65 64 75 81 66 56 54 55 57 69 87 96 98 98 100 100 100 100 100 100 100

GFSNW_500_rhum_075.txt.gz
RH
98 86 40 9 5 4 4 5 6 9 14 12 8 7 6 6 7 7 6 6 6 6 7 7 8 6 5 5 37 88 96 56 48 56 46 41 42 28 46 97 93 100 100 84
70 24 8 7 5 5 5 6 8 12 10 8 7 6 8 8 8 9 11 12 11 9 8 8 8 9 7 5 6 25 66 86 88 87 71 46 54 59 83 100 100 100 98 90
17 10 8 7 6 6 6 8 10 9 9 8 9 10 9 11 13 16 17 29 44 42 14 12 11 11 9 8 83 38 16 65 100 100 99 80 63 62 96 99 100 100 100 88
11 9 10 7 6 7 8 10 10 10 10 12 11 12 14 16 18 19 34 91 100 89 71 73 17 14 9 18 100 100 53 73 100 100 100 100 99 86 59 100 100 100 99 91
12 12 10 8 8 8 12 8 12 13 17 11 15 20 23 19 18 21 47 51 100 100 100 78 67 15 9 13 99 100 98 57 100 100 84 87 100 100 88 74 100 100 95 100
14 12 10 10 9 8 8 10 13 18 14 15 28 29 32 31 16 25 48 60 74 100 100 100 56 23 21 12 98 100 100 100 100 89 54 67 72 83 83 45 67 99 96 85
13 13 12 11 9 9 8 12 15 24 15 26 28 33 38 39 24 25 44 59 62 86 95 89 92 32 15 21 92 100 100 100 100 93 59 66 74 61 47 40 26 42 98 82
13 14 13 12 10 8 9 16 17 27 18 25 24 21 30 31 39 28 30 60 60 82 91 83 65 47 24 33 100 100 99 97 86 78 89 71 65 64 30 18 15 17 41 75
13 14 14 13 10 9 15 20 32 46 36 30 24 20 18 22 34 42 33 45 48 70 80 99 92 58 34 78 100 100 98 98 80 72 71 57 58 64 35 17 11 8 10 58
13 14 15 13 10 13 24 27 53 54 46 41 42 25 20 23 27 54 53 47 62 78 94 100 100 97 60 57 86 88 99 82 69 57 47 30 44 78 54 21 14 9 9 13
15 17 16 12 11 28 26 52 66 58 49 48 41 33 27 27 28 63 64 77 88 95 100 100 100 99 65 75 62 88 85 85 72 50 31 37 52 72 53 19 12 10 15 25
17 18 15 12 16 34 45 68 76 67 57 49 49 44 44 50 39 72 76 81 100 87 86 99 100 100 100 98 96 55 43 57 48 34 51 51 43 53 34 10 7 8 17 64
19 18 15 14 33 32 78 93 87 87 64 62 55 41 41 51 57 75 95 84 95 100 92 100 100 100 100 100 100 84 67 65 46 92 100 60 37 24 17 7 6 6 17 74
19 18 15 22 40 43 80 100 98 90 80 56 87 68 44 38 52 72 99 91 92 100 89 82 86 77 88 100 98 86 100 100 100 100 100 100 95 59 31 10 7 8 10 76
19 17 17 44 40 80 84 96 92 83 100 95 96 98 73 44 48 68 96 96 97 100 99 90 66 60 50 94 92 94 78 96 100 100 100 100 100 96 75 44 30 19 10 15
19 18 41 40 77 79 80 74 100 90 100 100 100 100 73 62 49 65 92 93 100 100 100 100 93 51 53 84 67 69 90 100 91 100 99 97 88 97 88 78 77 66 52 68
20 36 44 64 79 65 82 94 100 94 100 100 100 100 97 84 88 82 82 87 93 100 99 100 100 65 56 51 100 43 98 100 100 100 100 96 83 88 86 96 84 86 87 63
42 47 66 78 68 75 81 95 100 100 100 98 99 84 78 86 66 57 56 80 98 99 100 100 100 88 88 98 100 89 100 100 100 100 100 100 100 100 100 94 93 93 84 65
49 79 74 76 89 75 98 100 92 98 100 94 71 73 90 100 89 39 48 71 96 100 100 97 93 93 100 100 100 100 100 96 100 100 100 97 94 89 98 89 82 80 86 76
75 82 75 56 55 84 60 41 76 83 48 45 53 64 76 86 69 49 54 84 92 99 87 87 76 100 98 99 98 97 100 95 85 78 69 71 73 73 79 67 69 61 48 46
99 75 65 57 82 50 31 33 37 41 48 43 50 58 55 48 41 48 52 59 49 40 31 42 76 98 88 78 63 64 67 66 64 62 67 72 62 52 49 48 44 49 50 47
98 86 60 79 57 27 26 29 38 38 40 41 34 34 38 37 34 38 51 60 57 56 43 58 74 72 64 53 49 54 52 52 51 56 62 59 61 60 55 52 50 52 55 55
71 48 78 72 24 21 26 38 36 56 72 82 78 70 50 58 93 100 100 99 100 99 96 71 67 46 43 45 46 45 46 54 63 72 75 77 75 76 72 67 70 65 71 71
66 94 96 27 20 26 41 47 63 84 83 99 100 98 100 100 95 100 100 100 100 100 100 95 76 55 47 61 71 84 90 87 78 65 56 54 53 51 48 47 50 49 48 52
99 92 34 25 28 40 58 70 84 90 100 100 100 100 100 100 100 100 100 100 100 100 97 96 96 95 95 93 92 83 68 62 55 48 48 47 49 51 51 53 60 64 70 76
88 37 36 48 40 52 74 85 94 95 96 100 100 100 100 100 100 98 93 96 99 98 94 89 85 74 71 67 68 70 66 59 56 54 55 56 62 75 88 96 97 95 95 98
66 72 63 46 44 61 76 86 96 97 100 96 94 93 91 90 91 99 85 64 64 68 67 65 59 65 69 72 75 77 77 82 84 89 95 99 100 100 100 100 100 100 100 100

GFSNW_500_rhum_078.txt.gz
RH
100 100 100 100 100 97 38 8 6 5 5 6 12 22 19 12 8 5 5 5 5 5 5 5 6 6 7 7 4 9 33 41 69 43 37 50 61 70 62 58 44 39 66 75
100 100 100 99 76 24 9 6 5 5 6 17 23 16 7 6 6 7 7 8 8 9 10 10 8 8 9 21 21 19 17 37 65 81 59 37 49 86 71 56 30 38 86 99
100 100 97 82 20 11 7 6 6 7 17 23 12 7 9 9 7 9 11 13 14 15 29 64 30 12 10 41 11 32 72 27 47 94 97 91 96 72 64 56 55 52 82 93
98 95 57 15 10 10 7 6 7 13 24 14 9 11 13 11 17 17 13 15 18 63 72 78 89 93 13 43 24 12 52 87 27 22 77 100 100 98 78 54 50 83 96 100
93 52 18 12 11 9 8 8 9 24 22 9 9 15 15 15 25 29 13 15 26 76 50 81 77 94 92 52 56 12 100 100 73 18 100 100 100 100 98 70 52 83 100 100
84 47 15 13 12 11 10 9 11 22 11 10 10 18 19 20 23 35 30 14 26 39 78 87 100 92 100 78 36 60 100 100 79 60 98 100 99 96 99 94 86 55 91 100
36 16 15 13 13 12 10 12 15 15 9 12 15 26 22 24 25 32 34 22 20 42 54 70 88 89 64 38 23 80 100 100 100 92 97 96 77 68 72 76 80 79 50 86
21 21 15 12 12 12 11 15 13 10 12 15 30 37 31 23 19 23 32 29 16 46 60 66 98 97 58 17 15 86 100 100 100 99 100 100 90 58 49 66 60 54 46 35
21 16 14 12 12 12 12 12 10 10 17 31 42 40 34 30 22 18 34 34 17 29 52 63 98 100 90 32 15 47 100 100 100 100 85 99 85 67 58 56 57 28 20 17
13 14 13 12 13 12 13 11 12 18 28 48 42 37 35 32 23 20 36 45 25 29 42 97 100 99 76 47 35 59 100 100 98 95 65 70 73 54 42 49 55 34 15 11
14 13 13 13 15 14 14 12 21 31 54 55 46 40 34 32 39 27 45 59 43 38 46 90 100 100 83 69 60 69 96 73 85 79 54 48 52 40 33 49 59 38 15 10
12 12 12 15 17 17 14 15 35 60 72 64 52 38 37 34 41 43 53 71 76 61 63 97 100 98 69 68 96 90 99 100 98 68 55 38 33 28 30 50 60 41 13 10
14 14 14 15 19 18 14 25 42 90 91 74 52 46 45 35 41 58 56 79 87 78 85 89 100 94 90 86 100 96 76 75 56 51 31 25 26 26 50 60 58 13 8 11
15 16 16 19 19 17 23 33 42 85 97 81 70 76 67 48 32 43 66 84 84 75 83 87 97 98 100 99 100 94 94 48 40 24 37 98 95 49 34 28 18 10 7 14
17 17 20 22 19 17 32 48 85 91 81 87 98 100 89 63 43 40 50 95 83 84 79 76 77 72 63 96 100 100 100 97 77 85 100 100 100 98 90 69 51 34 16 10
19 20 23 23 19 21 35 63 92 100 100 94 96 100 100 96 87 36 43 95 90 83 89 64 56 57 50 88 95 88 99 96 100 100 100 100 100 100 100 97 77 76 68 30
20 23 25 22 24 34 44 74 79 95 100 100 95 72 99 100 96 70 49 88 86 84 87 73 59 38 40 64 72 62 67 100 100 100 100 96 100 100 100 96 85 94 93 90
24 25 24 31 45 51 62 56 83 100 100 100 100 100 99 80 90 91 69 86 76 84 94 97 86 62 42 42 80 92 84 100 93 99 100 92 86 77 92 100 100 100 100 92
26 25 36 49 68 65 67 85 100 100 100 100 100 51 70 83 87 87 68 80 90 97 100 100 100 93 63 86 99 100 100 100 100 100 100 100 100 100 100 100 98 88 76 72
30 45 52 78 66 86 100 100 89 66 87 99 44 63 99 80 50 52 76 88 91 92 97 99 89 91 72 100 100 100 82 63 70 70 79 80 80 68 61 69 79 73 69 66
53 65 88 75 85 95 100 62 38 46 42 41 50 64 84 60 53 65 69 100 90 99 72 53 50 90 88 100 100 99 98 93 81 83 86 76 67 69 73 72 61 48 47 46
96 100 88 80 72 90 53 31 32 36 42 48 58 67 54 49 52 54 59 55 47 53 58 34 64 77 68 76 74 63 60 61 59 56 54 51 51 59 58 53 52 52 50 46
100 98 92 81 88 59 27 27 30 32 39 53 44 42 36 39 41 67 79 96 97 88 93 78 74 71 52 49 48 42 38 34 38 55 75 84 81 82 82 81 80 84 85 77
100 97 96 92 60 26 28 30 48 84 82 67 47 35 35 84 100 100 100 100 100 100 100 96 82 64 54 45 42 41 51 69 83 91 91 86 73 60 56 55 53 51 48 46
100 100 99 40 26 26 30 53 76 88 92 94 97 100 100 100 100 100 100 100 100 100 100 97 91 80 73 77 82 91 100 100 95 77 61 54 50 48 46 46 46 48 52 64
100 100 45 27 27 32 36 69 72 83 99 100 92 100 98 99 100 100 100 98 98 97 98 98 96 93 85 78 78 73 67 62 54 46 51 62 72 79 85 87 89 91 92 94
100 62 29 26 34 38 42 68 80 88 96 100 100 100 100 100 100 99 100 96 82 80 77 61 52 52 53 57 58 63 75 88 93 92 85 65 54 51 51 52 53 52 53 53

GFSNW_500_rhum_081.txt.gz
RH
100 100 100 97 100 100 100 100 98 89 46 13 6 5 10 21 24 17 11 7 5 4 4 4 5 5 6 28 9 31 61 66 58 99 100 100 94 59 96 100 76 75 81 85
100 100 100 99 100 100 100 95 68 30 8 6 6 13 24 22 14 8 6 5 5 4 5 7 8 8 8 9 8 56 45 33 72 94 99 100 44 23 53 83 98 97 99 100
100 100 100 100 100 98 92 64 17 6 6 6 12 23 20 13 8 7 8 8 6 8 11 12 16 46 35 11 11 17 52 17 56 91 100 99 100 80 34 65 89 96 92 86
100 100 100 98 98 89 47 17 8 7 8 12 23 24 11 9 10 13 14 10 10 10 12 14 34 80 99 93 77 11 62 36 33 66 82 90 75 99 97 98 100 73 97 79
100 100 99 98 76 46 16 10 8 8 8 16 27 13 10 10 17 20 17 14 18 17 12 41 49 54 87 94 88 57 60 34 100 70 57 72 63 93 100 90 64 52 56 97
100 99 91 40 43 18 13 11 9 9 13 24 24 11 11 16 23 24 22 20 18 23 12 24 44 66 82 59 98 98 89 56 100 64 97 50 40 100 99 100 95 78 66 61
100 99 88 79 31 16 12 12 9 10 23 25 17 10 12 19 29 33 29 21 24 22 14 24 29 43 74 74 75 85 73 24 93 100 98 68 41 100 100 100 98 82 68 51
100 100 86 35 21 15 11 10 10 13 20 17 10 12 15 22 27 32 27 22 24 19 17 28 42 78 100 85 53 51 55 100 100 100 100 93 98 97 99 90 98 83 73 68
100 97 46 31 32 16 11 10 10 13 15 12 12 19 22 27 28 27 24 20 25 18 31 37 58 100 100 100 42 43 100 100 100 100 100 100 100 100 88 65 68 61 59 60
100 66 54 26 17 14 12 11 14 14 11 13 21 30 33 32 28 22 25 20 30 19 30 44 100 98 75 100 71 54 97 100 100 100 100 90 92 100 68 56 53 52 51 51
80 58 23 15 15 14 13 15 14 12 12 17 38 42 41 34 22 17 26 25 51 27 26 88 98 100 100 100 70 97 97 97 98 100 100 89 75 73 59 43 38 38 42 51
24 21 16 16 15 14 15 16 15 13 15 32 55 54 43 28 21 23 38 38 55 41 38 39 100 100 93 100 84 72 100 98 100 97 94 71 61 46 54 45 27 34 45 48
18 13 13 12 13 13 15 19 16 15 27 53 75 54 48 29 28 26 36 49 66 61 47 71 99 100 79 95 100 97 89 92 94 100 87 55 40 37 33 28 21 34 55 52
28 22 15 14 15 16 18 20 18 31 54 76 76 65 53 54 34 38 29 48 67 79 68 79 92 84 88 87 98 98 100 97 84 73 62 30 26 30 32 27 22 40 53 27
26 23 19 16 16 19 20 19 26 58 93 95 73 79 89 92 71 55 34 38 68 78 92 82 82 87 96 96 78 95 85 81 67 42 32 48 79 80 89 70 52 39 30 14
35 23 20 17 18 21 22 22 46 66 84 93 100 99 93 100 100 88 45 35 77 78 66 73 76 64 67 86 99 98 100 74 52 37 50 100 97 100 100 100 100 82 90 80
38 27 20 19 19 22 23 50 62 83 98 100 95 85 100 98 93 85 53 31 67 81 70 66 63 60 49 90 100 100 100 92 100 100 100 100 100 100 100 100 100 100 100 100
38 28 21 22 21 22 32 74 88 98 100 99 96 90 100 97 92 100 96 48 82 79 85 68 49 40 29 58 59 98 100 100 100 100 100 100 100 100 100 100 100 100 100 100
41 26 25 26 22 28 70 84 83 86 100 100 100 100 92 70 83 96 68 95 90 74 83 68 52 64 50 56 61 76 100 100 100 100 100 100 97 97 100 100 100 99 99 100
36 30 28 24 31 70 76 74 71 97 100 87 100 70 85 58 100 84 100 98 79 84 100 100 100 93 61 50 100 100 97 100 100 100 100 99 100 99 75 62 59 66 81 78
34 29 27 46 82 91 73 79 94 91 57 58 46 69 61 75 82 100 92 100 99 100 100 93 73 77 64 74 100 94 72 82 59 50 62 65 59 62 66 64 58 58 61 60
32 34 66 100 99 75 77 92 57 37 42 53 56 49 87 100 100 100 99 76 78 89 78 34 46 63 85 100 98 95 87 76 68 62 51 48 47 44 45 44 44 47 48 47
53 93 100 100 86 70 75 35 33 39 46 45 33 51 62 63 66 58 50 45 56 81 76 79 61 68 62 56 54 49 38 32 30 32 37 40 48 59 76 81 82 81 73 68
100 100 98 82 81 67 29 29 32 42 38 36 38 41 40 46 72 55 94 100 100 100 94 86 63 67 56 44 39 38 33 29 30 31 42 79 87 77 67 58 48 44 42 40
100 100 95 76 67 27 29 31 35 34 28 29 31 35 63 98 100 100 99 100 100 99 100 93 81 69 58 49 48 50 48 48 63 84 77 60 49 42 40 46 48 53 59 65
100 84 89 68 25 31 54 93 97 91 98 82 71 84 100 100 99 99 99 99 96 94 92 94 99 97 86 76 67 60 59 57 54 50 49 58 67 65 58 53 52 51 51 51
87 100 82 27 29 42 92 97 94 92 90 89 81 80 90 99 100 100 100 100 99 93 90 82 60 50 47 44 42 47 62 71 71 59 51 50 50 49 48 48 48 48 48 50

GFSNW_500_rhum_084.txt.gz
RH
100 100 100 100 100 100 100 100 99 100 100 99 86 66 30 18 10 13 22 22 17 13 9 6 4 4 4 4 6 19 43 27 42 56 80 96 100 89 70 75 81 95 90 98
100 100 100 100 100 100 100 99 100 100 100 71 48 24 12 9 13 23 22 16 10 7 4 5 6 6 5 4 5 14 9 33 51 60 81 86 98 78 98 85 67 95 100 100
100 100 100 100 100 100 100 100 97 81 72 50 25 6 8 15 23 20 14 10 6 6 9 11 9 6 7 10 23 24 17 67 54 58 100 100 97 80 97 82 61 64 93 100
100 100 100 100 100 100 100 96 89 62 16 9 7 9 16 25 19 12 10 7 7 12 16 13 13 10 10 36 60 77 91 47 72 39 80 100 99 99 100 94 66 61 81 99
100 99 100 100 100 98 99 90 44 44 14 8 8 13 25 25 15 10 8 10 13 20 22 16 17 14 15 25 58 78 98 64 57 68 34 99 100 100 98 89 100 82 100 98
100 100 100 99 96 87 73 44 19 17 11 9 13 24 27 19 10 10 10 10 17 28 27 22 19 14 17 46 45 39 97 100 96 40 65 28 78 69 71 100 99 100 97 80
100 100 96 98 75 78 32 27 20 11 10 9 21 26 20 10 11 10 11 15 20 22 20 20 18 30 33 45 79 53 71 98 94 60 100 50 24 69 66 86 98 91 87 62
100 100 99 66 70 86 32 35 18 11 9 12 22 21 12 10 12 13 15 19 20 21 19 21 34 42 85 91 93 95 69 97 99 100 100 84 100 96 56 100 92 66 77 64
100 100 99 100 97 59 43 28 16 10 10 17 19 14 10 12 15 15 19 21 18 21 19 24 40 40 91 81 100 42 64 100 100 100 100 100 100 73 43 71 93 100 99 83
100 100 99 99 78 74 66 27 13 11 14 18 12 11 11 15 21 28 25 17 16 20 22 30 58 92 50 99 96 60 54 98 100 99 100 100 100 74 76 67 72 96 80 65
100 100 100 77 62 47 19 15 14 14 16 12 11 12 16 25 34 29 20 14 55 27 27 66 90 98 95 97 98 54 68 100 100 100 100 100 99 100 94 77 65 51 47 45
100 100 100 82 44 19 15 16 14 14 13 14 16 21 35 42 38 29 19 17 32 53 32 28 72 93 100 100 99 100 100 100 100 100 99 88 95 88 80 70 54 36 31 33
88 77 61 38 24 19 17 13 12 14 16 18 28 49 53 52 42 32 22 27 37 47 53 51 75 100 92 100 100 100 99 100 100 100 100 99 80 67 48 46 49 51 26 28
25 20 17 15 14 13 13 13 15 18 17 22 38 64 70 56 48 49 38 34 36 60 80 46 67 94 84 96 99 100 100 100 100 97 97 96 56 43 38 33 31 28 33 23
29 28 25 20 16 15 15 17 21 21 21 26 44 74 69 65 74 82 55 56 30 56 82 72 77 81 91 97 83 78 83 95 91 76 75 52 37 44 33 32 60 58 35 22
38 31 26 23 20 17 16 23 25 22 20 44 68 81 81 81 72 73 64 68 40 51 62 87 77 69 68 81 97 100 87 62 62 58 59 42 32 94 86 81 86 95 84 68
37 39 34 25 21 19 21 26 24 27 42 66 81 94 100 98 92 99 85 73 63 37 66 87 78 64 58 67 84 99 100 80 47 36 47 38 66 100 99 74 92 96 100 100
25 31 37 32 22 21 29 28 26 31 62 76 91 100 94 82 86 89 95 100 83 43 67 60 64 61 55 53 47 85 92 88 73 33 50 96 100 100 97 98 100 100 100 100
18 28 32 31 23 30 29 28 38 64 76 72 86 99 91 100 71 84 98 96 74 78 79 64 57 59 44 25 32 48 95 100 100 100 100 99 100 100 100 100 100 100 100 100
16 31 35 31 30 29 27 36 65 86 87 84 97 96 84 94 68 81 86 100 100 95 84 68 59 56 30 27 32 90 100 100 100 98 100 100 100 100 98 72 58 56 56 60
20 36 40 34 30 28 37 70 86 78 73 92 77 56 82 62 78 100 100 100 100 99 89 77 78 82 69 50 49 100 100 100 100 97 95 77 58 52 46 40 37 35 36 36
58 47 39 33 31 36 61 72 58 77 57 52 53 54 96 96 100 100 99 100 100 100 91 58 44 56 65 88 100 99 87 81 76 65 54 44 32 26 24 21 20 21 28 32
54 42 37 35 55 74 71 76 76 42 48 61 44 72 96 94 83 95 84 65 83 100 100 94 86 66 85 81 72 65 52 41 32 28 27 26 24 22 21 32 45 57 56 56
42 40 63 60 81 78 83 55 40 61 32 30 52 67 66 73 62 57 93 100 90 95 100 100 78 68 68 57 42 36 37 33 29 26 26 25 26 34 58 54 45 44 45 48
64 84 99 84 98 90 59 51 39 27 32 49 54 47 46 55 83 87 100 99 100 100 100 99 83 69 62 46 34 27 26 24 22 23 32 41 46 52 60 62 60 54 51 49
99 100 100 99 86 72 30 38 35 29 30 36 37 46 86 100 100 100 100 100 99 100 83 83 76 56 41 32 28 30 38 41 41 49 52 50 45 41 39 39 39 39 39 40
100 100 100 93 64 29 31 38 30 27 27 28 34 70 100 100 98 97 88 93 92 89 86 85 82 73 59 48 39 40 56 52 42 38 37 36 35 35 36 36 36 37 38 41

GFSNW_500_rhum_087.txt.gz
RH
100 100 100 100 100 100 100 100 100 100 100 100 100 100 100 95 72 57 32 23 19 22 21 20 16 10 7 6 5 4 5 5 4 3 35 64 50 100 99 96 50 43 72 76
100 100 100 100 100 100 100 100 100 100 100 100 100 97 71 38 23 16 15 20 22 21 18 13 9 6 5 4 7 7 6 6 5 4 6 53 64 65 91 74 71 100 100 90
100 100 100 100 100 100 100 100 100 100 100 100 88 48 36 17 10 14 19 22 18 15 12 8 5 5 6 10 11 9 7 5 9 6 11 58 92 90 100 68 96 86 92 94
100 100 100 100 100 100 100 100 100 100 98 88 67 46 20 10 13 19 22 17 16 12 7 5 5 9 15 15 14 10 9 32 69 38 21 86 100 90 100 63 73 92 97 71
100 100 100 100 100 100 100 100 99 94 74 31 11 13 15 12 20 26 22 16 13 7 6 6 10 21 21 16 13 14 25 31 52 92 36 67 99 85 83 100 98 91 58 100
100 100 100 100 100 100 100 100 98 90 66 47 20 16 17 19 28 22 17 14 8 7 8 12 15 17 16 12 20 26 32 41 44 82 97 46 71 100 100 100 100 74 75 100
100 100 100 100 100 100 95 78 72 47 31 42 22 12 16 30 26 14 12 10 8 9 10 13 16 16 18 35 53 90 90 93 61 80 99 64 43 98 99 93 99 98 100 100
100 100 100 100 100 93 89 71 39 68 31 33 11 13 28 28 19 13 11 10 10 11 12 14 15 19 23 43 40 96 83 94 59 95 100 46 86 90 100 94 94 87 87 100
100 100 100 100 98 94 91 95 83 57 18 11 11 22 27 21 14 12 11 11 12 13 14 12 19 26 22 38 75 85 51 84 71 100 100 100 89 98 67 100 88 93 89 76
100 100 100 99 71 88 87 80 79 53 14 11 19 26 16 14 13 12 12 14 15 14 13 18 23 41 32 77 100 44 60 78 86 98 100 100 100 100 99 77 53 80 94 92
100 100 100 98 99 100 89 76 66 18 14 15 21 12 12 12 13 14 18 19 16 11 15 22 60 77 84 100 100 46 83 100 100 100 100 100 99 100 100 95 68 89 99 96
100 100 100 100 100 96 95 50 18 15 20 18 12 11 12 12 15 22 25 24 19 15 23 27 59 92 97 100 100 98 100 100 100 100 100 100 100 100 100 99 86 49 40 56
100 100 100 100 94 68 41 20 17 18 12 12 12 14 14 16 30 35 34 29 20 20 32 30 37 56 100 98 100 100 100 100 100 100 100 100 95 96 95 86 66 66 51 31
100 100 99 100 99 73 31 26 18 12 13 14 16 16 20 39 46 46 44 32 25 22 40 57 60 71 100 100 98 100 100 100 100 100 99 100 94 82 63 50 44 39 30 26
100 100 73 46 33 25 16 14 14 14 16 17 17 22 33 47 55 58 58 40 35 30 47 75 65 84 100 86 97 85 67 69 83 98 94 96 81 44 34 32 31 24 34 31
33 28 25 24 21 20 17 18 16 16 17 18 18 31 42 62 71 70 57 48 46 35 45 84 91 85 88 80 75 76 59 56 43 63 59 62 42 30 30 27 48 59 65 54
33 31 29 27 26 23 21 20 20 20 19 20 24 43 65 74 84 92 85 72 73 62 48 67 92 85 78 69 65 56 64 49 37 38 39 46 45 43 29 59 88 84 90 81
47 42 37 34 29 25 23 21 19 20 20 20 29 69 91 93 90 88 85 86 89 78 56 52 88 80 68 62 37 43 79 72 49 44 39 22 28 35 66 93 98 99 97 83
36 39 38 39 34 27 26 24 22 21 22 23 69 80 89 95 98 83 87 95 90 78 56 61 73 67 62 44 27 24 50 94 73 67 38 29 68 85 98 100 100 96 94 94
21 22 35 40 35 30 27 26 25 24 22 61 82 88 76 95 84 78 100 80 64 92 75 65 55 58 46 34 22 34 93 97 100 100 92 100 100 100 100 100 75 49 41 39
15 21 29 33 32 31 30 28 26 32 66 78 88 65 56 84 70 95 100 100 100 100 91 62 45 35 28 25 22 56 98 100 100 100 100 99 77 50 43 34 27 21 19 18
15 21 33 39 35 33 30 28 38 79 78 54 44 43 84 77 98 100 100 100 100 100 99 68 43 42 48 45 60 96 100 95 89 69 62 50 37 28 25 22 21 19 19 24
17 24 41 39 36 32 29 59 77 62 41 64 50 80 91 87 89 96 100 100 100 90 75 52 79 74 92 100 100 87 63 46 36 31 28 27 26 24 23 22 25 27 40 45
23 38 41 39 37 38 70 70 66 47 62 56 65 70 73 71 85 75 78 96 97 100 100 100 72 82 75 62 51 38 36 34 30 27 26 22 21 32 42 47 48 46 42 36
56 53 44 41 48 83 79 72 53 57 37 53 57 58 76 68 85 100 100 99 100 100 100 100 79 63 52 40 40 31 25 22 22 26 36 42 43 38 32 30 29 28 28 28
57 51 51 59 92 93 76 56 44 27 44 50 47 51 56 99 100 99 91 100 100 100 78 84 83 70 55 46 37 31 28 38 42 44 34 33 33 32 33 33 35 36 37 37
46 57 95 100 94 80 58 44 33 32 44 50 47 76 88 100 100 100 95 88 87 80 75 72 72 68 73 70 58 39 46 47 38 34 36 38 39 41 42 44 45 45 45 45

GFSNW_500_rhum_090.txt.gz
RH
88 89 83 85 98 100 99 100 100 100 100 100 100 100 100 100 100 100 100 100 79 47 32 22 28 30 23 19 14 8 7 6 6 5 4 6 73 96 68 93 83 84 45 33
96 93 94 98 100 100 100 100 100 100 100 100 100 100 100 100 100 97 86 60 64 60 63 55 32 20 17 13 7 6 5 5 4 4 4 5 10 71 95 67 78 87 100 56
100 100 100 100 100 99 100 100 100 100 100 100 100 100 98 90 77 61 55 60 56 42 32 23 18 13 9 6 4 5 4 7 10 8 7 6 5 7 93 97 62 69 85 53
100 100 100 100 100 100 100 100 100 99 100 100 100 85 61 56 55 64 47 36 26 23 19 18 14 7 5 5 8 8 10 11 9 9 9 8 7 6 60 97 57 100 73 99
100 100 100 100 100 100 100 100 99 100 100 100 79 74 91 59 22 17 18 27 24 21 18 11 6 4 5 7 15 16 12 11 22 22 22 40 24 8 25 74 66 87 100 100
100 100 100 100 100 100 100 100 100 99 92 97 85 40 35 34 23 25 27 26 20 16 10 6 6 6 8 12 13 16 20 39 62 49 57 84 84 29 52 99 94 100 100 84
100 100 100 100 100 100 100 100 99 99 80 45 46 32 40 29 19 29 27 20 17 10 7 7 8 9 12 12 18 35 32 56 82 63 78 96 88 93 78 94 100 98 82 77
100 100 100 100 100 100 100 100 97 91 77 42 37 42 14 14 30 28 23 18 10 9 8 9 11 11 12 16 26 49 53 91 100 47 93 100 100 100 100 100 100 100 100 100
100 100 100 100 100 100 96 81 72 41 48 50 25 14 12 26 30 24 17 12 10 10 11 11 11 11 14 20 38 87 61 78 67 59 96 100 100 94 100 100 100 89 100 98
100 100 100 100 100 100 98 75 50 93 71 26 16 16 30 29 21 17 14 12 11 13 12 11 11 15 31 86 78 73 56 55 63 78 100 100 100 95 99 100 100 100 99 97
100 100 100 100 100 99 98 91 82 90 51 30 18 25 29 17 14 14 12 12 14 14 14 10 17 39 71 100 71 100 98 99 100 100 100 100 100 74 100 100 100 98 99 100
100 100 100 100 94 89 99 82 88 79 41 17 23 28 13 13 13 13 13 15 17 16 14 12 29 66 91 100 95 100 100 100 100 100 100 100 100 100 100 100 100 100 100 100
100 100 100 100 96 98 100 96 91 35 17 24 20 13 13 14 14 13 16 21 21 19 13 19 26 69 88 100 82 98 100 100 100 100 100 100 100 100 100 100 100 84 52 59
100 100 100 100 100 100 100 84 37 22 26 16 14 15 15 15 15 18 27 33 26 23 15 27 25 31 71 100 97 88 92 97 94 99 95 100 100 100 92 86 69 64 53 30
100 100 100 100 100 99 89 74 35 27 17 15 16 17 17 18 19 24 39 40 33 31 21 34 50 66 70 94 86 72 51 57 81 76 95 96 94 80 68 54 45 34 27 27
100 100 100 100 100 100 80 32 20 16 17 15 16 18 18 19 24 47 57 55 51 43 32 38 74 91 76 90 76 87 57 46 37 69 73 68 68 32 30 30 28 26 41 50
100 100 100 91 44 26 22 19 18 19 19 19 20 19 20 27 53 68 62 63 61 60 53 42 56 100 75 65 57 62 65 41 31 27 36 55 42 41 37 25 26 57 72 79
52 52 34 24 25 25 24 23 23 21 20 20 20 22 27 48 66 71 68 76 69 66 68 63 50 97 71 64 58 53 52 47 32 24 20 25 30 33 39 29 40 70 72 76
35 34 33 31 30 30 28 28 27 24 23 23 23 27 50 66 64 80 71 65 79 80 95 63 51 84 69 49 32 21 34 61 70 46 30 30 23 27 42 68 88 96 85 74
53 49 46 42 40 38 34 30 27 26 25 25 30 46 64 61 71 67 84 81 92 83 72 48 62 78 58 47 30 24 78 100 100 83 64 44 79 96 89 90 91 77 70 38
44 44 42 37 32 29 28 28 27 27 27 37 50 54 51 59 61 70 94 100 100 100 83 78 64 52 47 31 24 42 99 100 99 100 100 98 98 96 74 55 37 26 22 20
22 26 25 23 22 22 25 28 28 27 35 45 41 36 52 63 85 95 99 100 100 100 74 52 40 38 29 24 31 91 92 99 100 100 99 81 49 33 28 26 24 22 22 29
15 17 20 21 20 23 28 30 28 34 49 40 46 57 77 81 71 86 98 100 100 95 70 45 36 27 32 58 91 100 87 61 45 37 31 30 28 26 25 24 33 39 39 33
17 17 18 19 22 26 31 32 41 47 41 48 67 72 65 76 85 81 97 100 100 91 82 72 75 78 100 100 75 50 42 38 36 31 25 24 26 38 42 36 27 26 27 30
19 19 20 19 27 34 37 57 52 51 44 58 57 62 79 83 86 97 99 100 100 100 100 89 67 82 60 53 42 38 34 30 27 32 41 44 36 31 29 30 31 33 36 41
20 20 25 35 35 40 58 66 50 43 48 49 58 76 76 96 100 100 100 99 100 97 91 88 61 48 40 35 34 34 38 46 43 45 37 32 33 33 34 37 40 45 50 53
19 33 41 43 43 77 79 55 37 42 49 48 59 71 85 93 100 100 93 95 87 87 84 72 68 58 54 58 67 57 44 49 49 40 36 36 39 43 47 52 57 63 67 66

GFSNW_500_rhum_093.txt.gz
RH
43 40 70 92 86 80 96 80 82 83 93 95 100 100 100 99 100 100 100 100 100 100 100 100 97 87 82 69 44 44 35 45 39 29 12 6 6 5 6 17 99 73 28 21
47 52 71 100 89 90 83 82 86 83 96 100 100 100 100 100 100 100 100 100 100 100 100 93 57 37 68 96 76 48 22 19 17 12 8 5 5 4 4 4 6 16 42 31
58 75 88 100 98 97 86 81 91 96 98 100 100 100 100 100 100 100 100 100 100 94 75 68 88 94 70 26 13 12 12 10 6 4 4 4 4 5 7 7 5 10 28 23
68 75 87 100 100 100 95 100 100 100 100 100 100 100 100 100 100 97 88 74 69 81 86 75 52 31 17 16 15 8 4 4 4 4 6 6 6 6 8 8 6 5 27 38
82 88 98 100 100 100 95 100 100 100 100 100 100 100 100 89 62 68 77 81 66 66 44 25 17 16 14 7 4 4 4 6 8 9 10 16 21 15 11 7 7 6 6 26
95 97 100 100 100 100 100 100 100 100 100 100 100 88 68 93 90 72 61 53 44 31 23 19 17 8 5 5 7 8 8 11 12 14 36 73 55 33 57 66 11 7 7 22
100 100 100 100 100 100 100 100 100 100 100 100 98 97 70 48 50 52 43 36 28 21 18 10 6 6 7 8 9 11 13 25 32 31 47 58 55 78 100 100 39 24 16 24
100 100 100 100 100 100 100 100 100 100 95 77 64 62 61 59 44 23 29 27 22 17 8 8 8 8 10 10 11 13 22 48 73 82 84 55 90 90 100 100 97 46 50 30
100 100 100 100 100 100 100 100 100 97 96 89 59 22 31 22 14 28 30 25 15 11 9 9 10 9 10 11 14 29 61 51 71 92 65 69 68 92 98 100 100 100 90 98
100 100 100 100 100 100 100 100 100 96 68 52 60 40 19 13 26 28 23 17 13 10 11 11 10 10 14 38 48 59 54 43 50 67 91 95 92 84 97 100 92 100 100 100
100 100 100 100 100 100 98 90 59 43 53 47 56 24 16 29 30 19 16 14 12 12 12 13 11 16 98 68 61 69 100 100 100 100 100 98 95 100 100 100 100 100 99 100
100 100 100 100 100 100 98 88 61 93 84 26 18 15 24 28 14 14 14 13 13 12 15 14 11 25 91 90 73 64 92 97 100 100 100 100 100 100 97 100 100 98 100 100
100 100 100 100 100 100 99 91 90 96 88 39 20 21 27 15 14 14 14 14 14 15 17 16 13 58 82 74 80 72 96 100 100 100 100 100 100 100 100 100 100 100 100 94
100 100 100 100 100 100 100 97 76 93 69 18 20 26 14 14 15 15 15 15 16 18 20 17 14 43 66 68 72 70 73 88 95 100 100 100 100 100 100 100 100 89 77 71
100 100 100 100 100 100 100 100 100 83 30 24 22 15 16 17 17 17 17 16 20 24 24 22 17 29 46 80 64 63 50 72 80 96 100 100 98 95 93 87 60 57 46 28
100 100 100 100 100 100 100 100 88 42 27 23 17 18 18 18 18 18 16 18 26 32 31 30 25 35 62 72 67 56 36 32 64 67 68 99 83 46 34 34 34 32 25 21
100 100 100 99 100 100 100 94 69 39 18 17 18 18 19 19 19 20 23 35 37 37 38 45 40 49 78 80 69 57 45 34 28 52 60 76 66 38 35 31 27 21 20 27
100 100 100 100 100 100 100 63 24 18 18 20 21 21 23 22 23 28 40 47 48 55 50 48 49 42 86 82 64 47 36 33 23 19 31 37 57 42 42 38 33 23 30 47
100 100 100 100 88 33 20 20 22 22 24 24 23 23 22 25 32 48 50 53 59 57 67 71 63 46 85 79 62 43 41 41 29 21 16 32 24 18 21 22 27 29 45 62
60 95 80 37 26 26 26 26 27 28 26 26 25 23 24 39 49 47 51 56 77 74 69 80 56 79 93 63 32 26 42 52 48 38 20 15 19 16 21 45 46 67 77 67
37 34 34 32 32 34 36 34 32 28 26 25 24 25 40 44 43 52 83 95 88 75 74 63 80 98 72 41 25 39 44 85 92 93 67 54 52 81 73 73 91 74 42 26
55 50 48 47 44 39 33 30 27 25 24 24 31 36 31 41 52 61 96 100 100 100 95 100 87 67 40 29 27 68 93 95 98 100 95 90 90 93 79 53 33 26 24 24
58 49 45 41 34 25 24 23 21 22 23 31 33 32 45 51 60 79 83 100 99 90 96 55 48 33 31 31 53 93 100 100 100 100 92 66 44 35 29 27 25 32 38 29
27 26 27 26 23 21 22 20 22 25 33 34 34 47 55 55 73 89 84 96 91 77 55 38 37 36 46 79 100 100 82 55 46 40 35 31 31 33 39 43 34 29 28 30
19 17 18 19 23 25 23 23 25 35 33 34 49 59 61 69 79 94 99 100 100 100 98 86 84 89 100 95 66 46 39 36 31 28 29 38 45 43 36 31 30 33 37 41
16 17 19 21 22 23 24 26 40 40 35 47 55 72 93 86 100 100 95 74 84 100 98 85 85 80 59 43 38 36 35 30 41 46 49 45 35 33 33 35 40 48 59 62
17 21 21 24 22 24 29 42 44 35 47 56 77 89 96 97 91 88 87 99 96 96 95 87 60 56 52 42 35 37 54 52 50 51 42 36 37 39 45 55 65 62 58 54

GFSNW_500_rhum_096.txt.gz
RH
7 5 4 16 32 40 69 83 76 86 93 83 77 84 97 99 100 100 100 100 100 100 100 100 100 100 100 100 100 94 88 95 69 42 47 76 60 28 24 21 20 16 22 16
8 5 9 28 39 46 66 93 93 81 79 78 70 71 95 100 100 100 100 100 100 100 100 97 98 100 100 100 99 88 66 60 48 54 53 40 38 18 10 8 7 6 6 6
8 5 15 39 57 71 97 100 99 87 86 79 87 95 100 100 100 100 100 100 100 100 100 100 100 99 89 87 91 99 95 77 58 24 12 12 10 7 4 4 4 4 4 4
7 12 39 50 69 93 100 100 100 97 97 97 100 100 100 100 100 100 100 100 100 100 100 100 98 98 96 96 76 53 32 20 16 10 6 5 4 4 5 5 4 5 3 4
11 39 63 68 80 100 100 100 100 100 100 100 100 100 100 100 100 100 100 100 100 98 96 95 97 96 92 66 24 17 16 11 5 5 5 4 4 6 6 8 7 8 7 4
40 80 88 89 100 100 100 100 100 100 100 100 100 100 100 100 100 99 97 100 99 97 94 93 69 27 16 17 14 8 4 4 4 4 6 7 7 12 21 21 37 56 71 54
83 98 100 100 100 100 100 100 100 100 100 100 100 100 99 91 91 98 93 86 78 76 59 30 16 16 12 6 5 5 6 5 6 8 10 15 25 39 33 80 80 74 56 57
100 100 100 100 100 100 100 100 100 100 100 100 99 100 99 86 72 75 66 57 44 25 16 17 12 7 7 6 6 6 7 9 12 30 39 46 64 43 59 77 89 100 89 78
100 100 100 100 100 100 100 100 100 100 100 100 98 76 81 72 67 62 29 27 23 20 17 9 8 8 7 6 7 8 15 40 33 31 42 44 54 77 54 74 89 97 100 100
100 100 100 100 100 100 100 100 100 100 93 72 79 79 66 55 37 19 25 28 24 16 11 9 9 8 8 7 11 29 44 37 70 62 68 87 100 100 53 72 98 100 100 100
100 100 100 100 100 100 100 100 100 100 99 92 48 40 59 39 16 25 24 21 16 12 11 10 11 11 12 17 29 50 51 60 60 75 94 97 97 95 83 98 100 100 100 100
100 100 100 100 100 100 100 100 100 91 57 46 71 48 33 16 26 27 19 16 14 13 13 12 14 13 22 53 39 54 66 66 64 70 89 96 100 100 97 100 100 100 100 100
100 100 100 100 100 100 98 91 66 54 73 74 47 21 17 22 28 18 16 14 15 15 14 13 15 14 49 73 60 60 46 64 80 97 100 100 100 100 100 100 100 100 100 100
100 100 100 100 100 100 96 97 79 98 99 66 41 32 21 26 18 15 15 16 16 17 15 14 18 16 28 81 74 88 71 64 76 96 100 100 100 100 100 100 100 98 92 58
100 100 100 100 100 100 100 98 100 97 94 83 47 22 24 18 16 16 17 18 18 18 16 16 20 19 31 74 72 75 65 72 69 98 100 100 100 100 100 100 98 100 93 70
100 100 100 100 100 100 100 100 90 93 98 66 25 25 19 17 18 19 19 19 18 18 19 20 22 25 24 66 74 57 48 72 68 88 100 100 88 73 88 75 52 35 27 22
100 100 100 100 99 100 100 100 100 100 83 38 28 20 18 19 20 20 20 20 21 22 25 29 28 29 26 79 73 56 46 36 69 62 75 92 69 59 46 34 28 23 21 22
100 100 100 100 100 100 100 100 100 95 83 33 18 19 22 24 22 21 22 25 27 30 32 34 34 35 31 71 96 68 37 30 33 48 45 56 77 51 44 41 33 21 20 25
99 100 100 100 100 100 100 100 100 64 22 19 22 24 24 24 23 25 31 35 31 31 38 47 49 42 33 86 99 81 53 25 20 18 22 35 48 58 37 27 22 21 26 24
100 100 100 100 99 100 100 94 26 21 22 26 27 26 24 26 28 35 35 49 47 56 76 68 63 51 50 97 98 76 44 28 17 16 18 24 33 28 19 19 20 21 16 18
100 100 100 100 93 59 26 22 25 28 30 30 26 23 22 28 35 33 48 63 92 76 93 79 76 55 74 97 72 35 36 40 43 45 36 33 38 34 28 25 34 32 49 69
77 100 100 74 30 27 29 33 34 34 27 22 20 21 28 30 32 38 75 98 100 100 77 76 67 83 91 55 43 70 100 100 97 91 88 68 46 46 55 43 45 56 60 30
38 36 34 33 35 37 40 36 30 21 19 19 21 28 28 31 34 48 78 78 96 86 95 100 96 66 40 38 64 100 98 96 100 100 98 64 71 74 79 62 42 30 29 40
50 48 47 48 46 41 32 22 18 18 19 22 28 25 34 38 43 61 81 87 87 99 71 62 41 34 40 60 99 97 100 100 100 99 98 79 51 36 33 36 45 43 32 29
65 58 48 41 36 26 21 18 17 18 21 29 26 36 47 52 69 87 98 91 76 60 48 43 52 64 94 99 100 100 78 55 47 44 42 43 46 51 50 40 33 31 34 43
36 32 29 24 21 22 20 17 17 20 31 27 39 56 60 65 94 93 97 90 85 73 89 82 86 100 100 88 64 48 42 36 35 40 49 52 50 40 36 35 37 51 63 59
24 22 20 21 20 19 18 18 21 33 32 37 53 66 61 99 91 98 100 97 97 99 100 90 95 87 64 51 44 37 36 40 52 55 55 44 42 41 41 58 70 63 58 53

GFSNW_500_rhum_099.txt.gz
RH
12 11 9 8 6 5 4 11 22 38 66 86 100 100 100 100 100 100 96 100 100 100 100 100 100 100 100 100 100 100 100 100 100 98 100 100 99 96 90 75 80 76 48 38
14 13 12 10 8 6 5 17 27 34 53 81 92 100 100 99 89 100 98 100 100 100 100 100 100 100 100 100 100 100 100 100 100 98 98 95 93 85 68 65 75 68 56 35
16 14 13 11 9 6 11 30 34 29 48 71 98 100 94 95 92 100 100 100 100 100 100 100 97 95 100 100 100 100 97 95 98 98 99 100 86 63 43 23 18 14 15 9
17 15 13 11 8 8 31 49 56 71 89 98 100 100 92 91 93 100 100 100 100 100 100 100 100 100 100 100 99 99 100 99 89 46 24 16 14 10 8 6 5 6 5 5
16 14 13 10 8 25 58 71 94 100 100 100 100 100 99 91 99 100 100 100 100 100 100 100 100 100 99 98 99 92 86 50 21 13 11 7 5 5 5 5 5 4 3 4
16 14 12 10 21 75 78 93 100 99 100 100 100 98 98 98 100 100 100 99 100 100 100 100 99 98 98 85 51 21 14 13 7 5 5 5 5 6 8 8 12 12 16 24
18 17 19 41 87 100 99 100 100 100 100 100 100 100 100 100 100 100 99 99 100 100 100 100 98 89 58 19 15 11 6 6 6 6 5 5 6 10 17 30 37 31 58 65
24 35 59 99 100 100 100 100 100 100 99 100 100 100 100 99 100 100 98 98 98 98 96 73 27 16 16 10 7 6 6 6 5 7 12 14 14 21 39 47 41 58 66 76
45 86 100 100 100 100 100 100 100 99 100 100 100 100 99 99 95 95 92 77 53 31 17 15 16 10 8 7 6 5 6 6 16 25 24 39 41 48 59 44 48 67 73 96
92 100 100 100 100 100 100 100 100 100 100 100 100 100 91 88 90 79 58 35 27 19 18 14 10 9 7 6 6 6 10 32 26 36 43 73 84 83 69 59 76 61 93 98
100 100 100 100 100 100 100 100 100 100 100 100 96 91 94 78 61 35 24 22 20 18 13 11 10 8 7 6 7 11 38 37 42 43 54 67 84 87 67 98 91 96 100 100
100 100 100 100 100 100 100 100 100 100 96 97 98 71 50 72 38 19 23 21 17 14 13 13 11 10 9 9 10 36 58 56 43 47 64 66 88 77 83 97 100 100 100 100
100 100 100 100 100 100 100 100 100 100 100 94 62 76 44 25 19 22 19 17 16 14 15 14 12 11 12 16 33 40 56 52 56 76 65 83 87 75 99 100 100 100 100 100
100 100 100 100 100 100 100 100 100 88 47 48 65 65 24 18 22 25 17 16 15 16 17 17 14 14 20 41 56 49 56 58 52 74 72 94 98 96 100 100 100 100 100 99
100 100 100 100 100 100 100 97 76 73 88 85 63 50 30 21 23 17 17 17 17 18 18 17 15 16 19 22 62 72 81 66 51 82 99 98 100 100 100 100 100 100 100 70
100 100 100 100 100 100 100 93 90 100 100 98 85 53 27 24 19 17 18 19 20 20 18 17 17 18 22 22 42 72 71 70 60 67 93 100 95 100 100 100 97 76 60 50
100 100 100 100 100 100 100 98 97 93 97 100 60 28 26 19 18 20 22 22 20 19 18 19 20 21 24 24 39 75 69 59 84 70 84 100 94 93 95 84 63 49 39 31
100 100 100 100 100 100 100 100 94 97 100 96 52 30 22 20 22 23 22 19 19 20 24 27 27 27 27 29 31 83 62 60 52 75 63 98 84 91 88 47 34 26 27 26
99 100 100 100 99 100 100 100 100 100 96 89 45 20 21 24 25 23 20 22 24 27 27 26 30 36 32 33 34 81 67 57 43 47 49 54 71 71 56 43 36 24 23 27
98 100 100 100 100 100 100 100 100 100 88 29 20 24 26 26 22 19 23 34 36 45 51 47 55 52 52 40 35 74 87 66 39 29 20 25 34 54 57 30 25 25 29 27
100 100 100 100 100 100 100 100 99 66 24 24 28 29 23 20 20 28 34 43 68 92 82 73 70 74 66 50 79 77 91 76 40 19 18 18 22 28 36 28 22 24 24 19
100 100 99 100 100 100 96 84 37 25 29 30 26 20 18 20 26 29 56 78 86 100 74 93 82 64 56 87 98 94 91 68 33 27 41 50 36 25 28 33 30 24 21 45
99 100 100 100 90 70 41 27 30 34 31 21 17 18 21 24 27 42 50 72 85 100 100 90 90 73 100 98 63 42 54 75 96 82 71 72 44 24 21 28 35 54 51 34
100 100 98 84 50 30 34 37 35 24 18 16 16 20 23 25 36 48 59 78 88 99 97 100 96 70 49 47 64 100 100 100 100 100 99 100 83 35 42 56 49 35 34 36
42 46 36 34 36 41 40 27 19 16 15 16 20 24 26 33 39 53 62 70 77 76 59 43 37 37 48 77 100 100 100 99 88 85 92 92 76 52 40 37 42 42 38 40
49 49 48 50 46 37 24 19 17 16 14 18 24 27 38 44 74 70 80 63 58 55 36 36 61 90 100 100 100 89 64 53 52 49 50 47 50 50 45 46 49 53 65 62
65 60 47 38 30 23 20 18 16 15 18 25 28 41 48 73 71 78 84 73 76 82 86 80 95 100 98 77 62 49 44 42 40 49 56 53 47 50 58 66 77 76 70 58

GFSNW_500_rhum_102.txt.gz
RH
9 9 8 7 9 11 10 8 6 5 5 8 17 44 94 89 98 98 95 100 95 100 99 90 97 94 99 100 100 100 100 97 99 100 100 100 100 92 95 100 100 99 97 95
66 17 14 9 10 12 12 9 7 6 6 8 22 42 72 88 96 100 98 100 99 100 98 94 100 100 100 94 94 100 98 100 100 99 98 100 100 100 100 99 100 93 94 90
60 22 10 9 10 15 13 10 8 6 6 23 36 50 77 94 91 100 100 93 93 91 100 100 100 100 100 100 100 100 100 100 100 100 98 100 100 100 100 100 99 89 76 60
71 46 17 11 14 15 13 10 8 14 14 36 47 42 70 83 91 100 98 93 90 91 100 100 100 100 100 100 100 100 100 100 100 100 100 100 97 87 72 52 26 29 14 14
100 48 24 18 15 13 12 10 10 20 47 68 68 73 94 100 100 100 100 100 91 100 100 100 100 100 100 98 97 100 100 100 99 96 89 55 18 12 9 6 5 4 4 4
98 31 22 17 14 13 14 12 24 54 79 100 97 100 100 100 100 98 100 100 100 100 99 99 100 100 100 100 99 100 96 80 52 27 10 7 6 6 5 5 4 4 4 5
71 31 22 21 23 28 29 60 90 100 100 100 100 100 100 100 99 100 100 100 100 100 100 100 99 99 100 100 95 72 34 10 7 7 7 6 6 7 9 10 9 13 15 16
33 30 28 54 75 84 100 100 100 100 100 100 100 100 100 100 97 98 100 96 100 100 100 100 100 100 92 68 30 9 7 7 6 6 6 9 13 16 20 14 23 33 25 43
42 46 69 93 100 100 100 100 100 100 100 100 100 100 100 97 92 100 100 100 100 100 100 95 63 24 16 10 8 7 6 6 6 11 19 22 27 38 50 52 49 48 53 83
40 53 87 100 100 100 100 100 100 100 100 100 100 100 100 100 100 100 100 91 72 50 37 20 15 11 10 8 7 6 6 7 21 25 24 31 45 55 58 56 69 94 67 83
51 98 100 100 100 100 100 100 100 100 100 100 99 100 99 93 99 94 72 60 53 31 18 14 12 10 9 8 7 6 8 26 24 30 37 50 56 62 65 95 100 88 97 100
94 100 100 100 100 100 100 100 100 100 100 100 100 99 97 96 88 64 45 40 26 18 14 12 12 10 8 7 7 9 27 35 34 39 47 59 63 70 87 95 91 100 100 100
100 100 100 100 100 100 100 100 100 100 100 100 100 100 86 71 72 26 25 22 17 14 14 14 13 10 9 8 9 10 35 55 52 51 45 75 62 84 97 100 99 100 98 100
100 100 100 100 100 100 100 100 100 99 100 100 82 83 87 39 26 26 20 15 15 15 15 16 15 12 11 10 12 14 46 54 56 62 61 63 70 87 91 99 100 100 100 100
100 100 100 100 100 100 100 100 100 100 91 87 80 78 76 30 24 23 17 16 16 16 18 17 15 12 11 13 15 23 52 54 51 63 84 84 94 98 100 100 100 100 99 69
100 100 100 98 100 100 100 100 96 66 63 70 82 57 53 24 22 18 17 17 18 19 20 19 16 14 13 14 16 34 63 74 67 61 92 93 100 94 100 100 100 100 99 70
100 100 100 100 100 100 100 88 64 80 96 93 67 66 38 24 23 18 18 20 22 22 20 17 15 15 15 16 20 22 69 72 67 65 95 100 100 100 100 100 89 85 78 65
100 100 100 100 100 99 98 95 99 100 100 99 73 31 29 26 19 19 22 22 20 17 16 15 16 18 19 21 23 25 52 76 66 86 98 100 100 98 98 83 78 72 65 42
100 100 100 100 100 100 100 100 99 93 99 100 81 46 35 23 21 24 23 20 17 15 18 21 22 24 26 29 29 25 41 81 70 62 83 100 100 99 80 62 62 62 44 40
100 100 100 100 100 100 100 100 98 99 100 96 80 40 20 23 25 23 17 16 21 25 36 51 45 34 31 40 37 29 33 86 75 54 54 63 81 94 77 66 39 44 43 42
100 100 100 100 100 100 100 100 100 96 92 76 27 23 28 26 19 16 18 26 46 64 65 53 62 60 59 61 49 36 35 90 81 59 44 34 31 34 50 55 27 27 27 26
99 100 100 100 100 100 100 96 91 85 61 24 26 29 23 16 16 21 30 52 56 73 73 99 82 72 90 75 56 59 58 80 86 70 46 27 22 19 23 28 32 30 29 26
100 100 100 98 95 93 88 81 79 42 26 30 27 17 14 16 22 24 46 69 95 97 100 100 69 62 64 97 100 100 64 69 86 71 49 24 27 24 24 26 29 24 32 43
100 100 97 93 86 89 82 40 26 31 32 20 15 14 15 18 23 40 55 74 88 86 98 100 100 100 99 97 84 72 66 61 55 58 56 46 48 31 22 20 23 37 46 32
96 94 95 96 79 42 30 32 35 27 16 14 14 15 18 22 40 44 57 66 80 83 82 60 51 52 57 60 72 89 94 89 90 88 93 85 44 30 28 31 44 36 35 44
100 100 98 69 36 33 39 34 20 15 14 14 14 19 23 32 37 48 62 66 65 51 40 37 41 56 74 100 100 100 98 87 84 88 87 85 78 60 46 39 40 53 64 64
52 45 37 37 43 43 31 19 16 15 14 15 19 25 30 52 58 92 55 55 58 55 41 37 62 88 100 100 94 68 54 48 50 56 53 53 50 47 52 69 77 75 74 68

GFSNW_500_rhum_105.txt.gz
RH
28 24 9 7 7 6 6 7 6 6 10 9 7 5 4 4 14 30 59 76 77 86 100 100 96 100 70 97 98 88 100 100 100 100 90 93 100 89 95 100 100 100 100 100
98 85 49 20 10 8 9 9 7 9 11 10 7 6 6 8 17 28 78 80 81 97 100 100 96 92 85 84 82 87 95 99 100 91 100 100 99 98 99 91 90 87 99 100
96 100 100 60 34 20 13 10 9 13 12 10 8 7 9 17 35 48 82 78 88 100 100 100 98 94 99 90 82 90 96 100 100 100 98 89 89 100 100 98 97 96 93 100
100 100 100 98 68 28 16 11 11 14 12 10 8 8 15 36 45 56 82 75 85 100 99 92 87 97 93 100 99 95 99 99 100 100 100 99 98 100 100 100 100 94 96 96
100 100 97 59 48 29 21 13 13 14 12 11 11 11 12 46 59 48 62 95 95 100 100 87 98 99 98 100 100 100 100 100 100 100 100 98 97 100 99 84 65 45 32 19
100 100 81 89 67 26 26 21 21 18 17 12 14 19 69 97 94 62 86 100 100 100 90 100 99 96 92 100 100 100 100 99 100 100 95 88 51 45 10 6 6 5 5 5
96 76 96 74 46 27 40 78 53 62 37 27 42 83 100 100 100 100 100 100 100 97 98 100 99 100 100 100 100 99 98 99 92 62 11 8 7 6 5 5 5 5 6 6
100 100 100 36 31 68 100 100 99 100 98 96 100 100 100 100 99 100 100 100 98 100 92 100 100 100 100 100 99 97 83 38 10 7 7 6 6 7 12 12 11 14 12 13
99 98 75 35 84 100 100 100 100 100 100 100 100 100 100 100 100 100 100 100 99 99 100 100 100 100 100 99 89 45 10 8 7 6 6 9 18 16 21 29 27 45 42 50
100 77 34 41 100 100 100 100 100 100 100 100 100 100 100 100 100 100 100 100 100 100 100 100 98 81 70 49 11 8 7 6 6 6 16 42 30 27 39 40 45 72 82 69
100 87 42 94 100 100 100 100 100 100 100 100 100 100 100 100 100 100 100 100 100 100 92 64 47 23 15 10 8 7 6 6 12 19 22 32 38 34 38 48 67 82 69 88
52 37 53 100 100 100 100 100 100 100 100 100 100 100 100 100 100 100 99 65 58 61 43 34 15 11 11 10 8 6 7 16 67 31 42 35 42 53 52 65 92 100 96 96
33 51 100 100 100 100 100 100 100 100 100 100 100 100 100 100 100 90 77 70 40 28 18 13 12 12 10 9 7 7 7 21 32 30 39 46 56 65 92 96 98 97 99 100
57 100 100 100 100 100 100 100 100 100 100 100 100 100 100 100 88 59 57 35 26 16 14 14 14 13 11 11 9 8 12 27 42 43 55 51 61 82 96 100 100 98 99 100
100 99 90 96 100 100 100 100 100 100 100 100 100 99 79 94 50 41 39 19 15 15 15 16 16 14 11 10 9 9 9 25 49 50 69 60 62 85 95 99 92 100 100 96
99 98 100 100 100 100 100 100 100 100 100 99 89 93 85 78 61 35 22 15 15 16 17 18 16 14 12 11 11 11 11 17 47 52 60 79 86 100 99 100 100 100 98 84
100 100 100 100 100 100 100 100 100 100 95 94 86 94 50 49 34 24 17 16 17 18 19 20 19 17 14 12 11 11 13 21 49 57 54 82 88 100 100 100 100 100 85 74
100 99 100 100 100 100 100 100 100 98 99 96 88 69 66 41 24 19 18 18 21 21 20 17 15 14 12 11 12 12 14 18 64 70 57 88 90 99 97 100 87 92 75 60
100 100 100 100 100 100 100 95 97 100 100 96 83 60 38 36 21 19 20 22 22 19 16 14 13 14 14 14 16 15 16 20 57 70 69 88 100 100 98 100 89 94 76 60
100 100 100 100 100 100 99 95 100 100 100 100 84 51 36 33 22 22 24 21 15 14 15 16 19 20 26 21 21 23 23 25 43 75 68 80 99 100 77 70 72 79 65 48
100 100 100 100 100 98 98 97 96 93 98 94 87 74 29 23 24 23 17 14 15 20 68 45 64 62 61 43 36 39 35 30 55 85 62 65 76 97 98 91 79 50 47 33
100 100 100 100 100 100 99 99 100 100 100 96 84 29 25 27 20 15 16 18 25 49 65 56 77 91 60 62 52 56 51 37 62 100 75 49 41 38 39 60 67 31 26 27
100 100 100 100 98 96 97 95 97 95 96 57 24 26 25 17 14 15 20 33 62 60 68 99 59 62 80 87 78 60 47 55 79 100 83 48 25 19 20 23 27 31 27 28
98 100 100 100 90 88 90 95 100 95 35 26 29 18 14 14 14 18 30 72 68 76 96 99 84 81 84 98 98 93 100 98 82 84 81 64 31 19 22 21 27 28 27 40
95 96 92 90 85 100 100 96 74 31 31 26 15 14 14 14 18 28 49 68 71 95 92 61 71 80 88 90 91 87 81 64 60 74 76 58 37 29 26 20 19 24 35 35
98 90 89 100 100 94 61 31 31 33 20 14 14 14 15 18 29 40 52 69 81 66 43 50 60 64 73 96 100 100 100 96 97 95 69 68 48 41 28 22 39 43 37 36
100 100 100 100 59 32 33 36 30 17 14 14 14 15 18 27 36 50 54 67 56 46 42 40 62 90 100 100 100 100 100 100 100 100 100 100 75 45 45 55 42 39 60 67

GFSNW_500_rhum_108.txt.gz
RH
6 5 5 5 5 5 5 5 7 6 6 6 25 21 35 19 62 47 8 11 17 28 37 66 68 100 100 74 79 100 100 93 87 100 100 96 91 98 98 100 100 100 100 99
13 11 10 13 32 55 32 19 11 9 7 6 5 5 8 11 11 22 7 7 14 40 38 58 65 99 96 100 99 100 91 87 99 100 91 78 80 100 99 84 95 100 100 100
21 22 21 24 100 96 48 39 71 12 10 8 6 6 10 16 9 9 8 6 9 25 50 85 77 98 100 100 100 100 100 100 100 100 99 83 74 90 98 100 94 89 100 100
9 14 24 97 100 70 61 76 90 62 12 8 8 8 12 14 11 10 15 11 16 31 70 85 89 100 94 99 100 100 100 99 100 100 83 84 88 81 79 78 87 87 99 100
12 19 100 100 100 100 87 63 100 94 24 15 12 19 18 15 18 15 14 15 43 52 67 92 100 100 95 95 95 100 92 97 100 96 92 100 97 98 100 93 88 93 100 100
16 64 100 100 100 96 73 51 92 100 62 60 24 19 16 16 23 19 20 36 56 68 91 100 98 100 94 77 95 100 100 100 99 100 100 100 100 94 90 98 81 54 44 51
26 94 100 100 98 100 100 89 46 77 63 94 28 40 45 64 68 80 72 75 86 78 82 100 100 100 92 97 98 100 100 100 100 100 100 99 76 66 36 8 7 6 7 8
98 100 100 100 85 84 82 67 44 50 91 91 90 61 73 100 100 100 99 90 100 94 100 100 100 100 95 100 100 100 100 100 100 97 70 43 21 6 6 8 13 15 16 17
100 100 100 99 80 71 58 35 51 98 100 100 100 100 100 100 100 100 83 100 100 100 100 100 100 100 100 100 100 100 100 100 78 25 8 7 5 7 11 16 16 26 24 34
98 99 78 99 97 47 81 100 100 100 100 99 100 100 100 100 100 100 100 100 100 100 100 100 100 100 100 99 100 99 86 32 7 6 6 6 13 19 20 18 25 41 58 57
99 100 100 94 45 54 100 100 100 100 100 97 100 100 100 100 100 100 100 100 100 100 100 100 100 100 100 100 91 38 12 7 6 6 6 10 16 27 22 24 41 59 58 56
91 91 66 40 70 100 100 100 100 100 99 100 100 100 100 100 100 96 99 99 100 100 100 100 100 98 74 55 16 9 7 6 32 10 38 34 28 30 36 36 57 90 92 88
73 94 82 51 91 100 100 100 100 100 100 100 100 100 100 100 100 100 100 100 100 100 99 96 79 72 22 11 10 8 6 6 11 21 26 22 28 39 50 44 88 88 81 93
76 47 47 92 100 100 99 99 100 100 100 100 100 100 100 100 100 100 99 75 73 85 78 59 26 16 18 21 24 7 6 7 14 23 31 32 34 50 66 82 79 80 84 100
40 46 63 100 100 99 100 100 100 100 100 100 100 100 100 100 100 98 98 94 75 72 43 15 14 13 13 17 11 8 7 8 15 40 38 40 42 51 79 94 100 99 97 100
62 91 100 100 100 100 100 100 100 100 98 100 100 100 100 100 96 63 79 62 54 28 14 14 16 16 14 12 10 9 7 8 10 38 45 48 60 58 91 92 100 100 100 69
91 99 97 100 100 100 100 100 100 100 98 100 100 99 98 98 66 80 77 36 23 18 15 16 17 17 14 12 11 10 9 8 9 12 41 48 75 81 100 100 100 100 94 65
93 100 100 100 100 99 98 100 100 100 100 100 96 100 94 91 83 63 54 38 25 18 17 18 19 19 17 15 14 11 10 9 10 14 28 48 63 79 95 100 99 100 90 68
100 100 100 99 100 100 100 100 100 100 100 100 99 91 70 90 54 42 32 19 18 20 21 20 18 16 14 13 13 11 11 10 10 14 38 58 56 80 90 100 100 100 93 75
100 100 97 100 100 100 100 100 100 99 100 100 99 98 88 76 46 22 19 21 22 22 18 14 13 13 13 12 15 13 14 14 14 17 41 68 75 87 93 100 100 99 91 69
100 98 100 100 100 100 100 97 98 100 100 91 87 77 46 50 28 22 23 22 16 14 37 39 43 36 36 35 36 37 32 23 23 24 44 71 81 100 100 100 98 90 84 57
100 100 100 100 100 100 97 97 100 96 100 98 93 83 73 29 24 24 19 14 14 26 66 64 42 88 85 63 44 43 52 49 44 44 82 75 75 99 100 99 73 55 52 50
100 100 100 100 96 94 97 94 94 98 100 100 100 73 25 26 22 15 14 15 38 36 46 86 62 52 54 69 62 61 62 72 47 94 100 80 66 88 96 91 99 89 49 32
98 100 97 95 95 93 95 92 100 100 98 95 49 24 26 19 14 14 16 24 32 52 82 100 61 74 64 74 80 83 71 52 54 100 100 95 60 38 54 28 29 39 31 31
100 100 100 100 100 100 100 99 91 95 95 40 27 26 16 14 14 16 19 36 51 79 99 56 58 79 94 100 96 81 70 74 99 100 100 84 38 26 22 23 25 30 32 38
100 100 99 100 100 100 98 96 98 84 31 29 22 15 14 14 14 18 30 51 80 86 39 45 63 65 76 84 95 100 100 94 84 78 84 84 68 39 28 25 26 27 27 32
99 100 99 100 99 100 100 99 56 31 30 19 14 14 14 16 17 26 44 68 96 52 47 46 71 98 100 100 100 100 100 93 75 74 81 68 56 44 34 27 23 21 21 39

GFSNW_500_rhum_111.txt.gz
RH
6 6 5 5 5 5 5 4 5 5 5 6 9 12 20 48 93 69 51 95 62 51 56 90 44 56 68 38 35 100 100 97 99 97 80 68 55 58 97 96 100 100 100 98
8 8 7 6 6 6 6 6 6 5 5 6 7 7 9 26 27 35 100 100 69 56 57 48 8 13 9 34 71 89 97 100 100 100 88 90 81 91 92 98 100 100 100 99
9 9 8 8 8 8 10 41 35 31 12 13 18 10 7 9 14 49 55 46 92 97 65 17 7 9 23 52 67 77 100 100 98 100 93 86 99 100 97 93 98 100 100 89
20 20 19 19 17 19 68 100 100 100 87 50 39 20 12 9 21 96 37 24 11 13 24 13 8 15 26 76 69 100 100 100 100 100 99 88 100 95 99 94 86 96 100 88
30 25 24 27 25 34 100 100 100 88 44 60 45 28 60 13 9 48 72 90 57 22 17 19 19 30 45 74 91 100 100 100 100 100 100 97 100 100 92 90 100 99 92 74
26 24 21 19 13 84 100 100 97 58 56 71 83 23 30 30 55 42 23 21 35 34 23 27 36 42 66 76 92 99 100 100 100 98 100 100 93 96 100 100 100 100 100 83
21 22 25 19 16 97 100 100 96 64 100 100 98 93 38 29 90 94 79 35 30 32 46 86 79 67 88 81 100 100 99 100 100 100 100 94 82 84 96 100 100 92 54 20
11 10 23 16 36 100 100 100 86 67 97 100 100 97 67 79 100 99 99 76 84 88 87 100 93 71 100 100 100 100 100 100 100 98 94 98 87 93 96 72 29 10 7 9
12 19 15 76 100 100 100 98 91 65 69 92 85 86 79 77 95 100 100 83 100 100 100 100 99 96 100 100 100 100 100 100 100 100 100 96 72 33 17 8 11 18 15 13
23 21 70 100 100 99 96 84 76 62 56 55 56 78 93 84 96 100 100 100 91 98 97 100 100 100 100 98 100 100 100 100 100 100 92 54 15 6 7 13 21 18 27 45
26 74 98 100 100 83 74 77 57 36 38 96 97 85 96 100 100 99 93 85 90 99 100 100 100 100 99 99 100 100 100 100 94 32 9 5 8 12 23 23 18 34 55 68
89 94 100 100 76 72 44 42 47 90 100 100 100 98 100 100 100 100 100 99 97 97 100 100 100 100 90 98 100 100 93 64 19 9 6 10 14 27 26 22 35 53 70 87
100 94 86 91 83 59 85 100 100 100 100 100 100 100 100 97 99 100 100 99 100 100 100 100 100 100 100 98 97 94 60 11 6 9 22 23 20 23 25 33 51 89 71 81
90 99 90 58 42 60 95 100 100 100 100 100 100 100 100 100 100 100 100 100 100 100 100 100 100 100 97 76 50 21 10 6 7 9 20 23 24 26 38 50 73 85 85 99
96 100 55 38 91 98 98 100 100 100 97 96 95 94 99 98 99 100 100 100 99 100 100 100 100 98 69 25 17 14 9 7 8 14 18 28 29 31 34 62 91 93 94 99
81 58 49 73 100 87 100 100 100 100 97 98 96 99 100 99 100 100 100 98 77 88 96 81 68 41 18 16 23 17 8 7 7 9 18 38 37 35 39 67 92 90 97 100
54 43 55 92 96 96 100 100 100 100 95 97 99 99 100 100 100 99 98 100 96 94 80 34 17 15 14 14 11 10 9 8 7 7 10 36 48 49 51 88 97 92 100 80
39 62 82 100 100 100 100 100 100 98 100 100 100 100 100 98 94 76 96 83 62 56 22 19 16 17 17 16 14 13 11 10 9 8 9 13 40 50 64 86 100 99 100 70
98 100 100 100 100 100 100 100 100 100 100 100 100 100 99 96 98 96 92 67 66 57 48 23 18 18 18 19 18 16 13 12 10 9 9 11 16 44 58 77 93 100 100 76
100 100 100 100 100 100 100 100 100 100 100 100 100 100 97 95 95 89 75 84 53 30 21 20 20 19 17 15 14 13 13 12 11 10 10 12 18 39 54 76 91 100 100 82
95 96 100 96 96 93 100 100 100 100 99 98 98 100 98 97 92 75 52 24 21 22 20 16 16 20 20 18 21 21 22 19 15 14 13 14 22 43 72 76 93 100 100 92
100 100 100 100 100 100 100 100 100 99 100 100 99 99 91 84 72 32 23 23 19 15 16 18 22 37 41 33 30 37 46 52 44 39 27 26 60 78 100 100 100 100 100 96
97 100 100 100 98 98 100 98 100 100 100 100 100 87 88 67 28 24 22 15 14 18 20 50 78 57 54 36 43 42 41 57 58 61 47 96 96 87 100 100 100 100 100 98
98 99 94 97 91 95 100 100 100 100 100 100 100 99 64 26 25 18 15 15 18 28 57 74 54 64 69 54 56 58 58 65 79 80 100 100 98 86 100 100 100 100 89 71
90 99 99 99 100 100 100 98 100 100 99 98 94 37 26 24 16 14 14 18 29 49 83 79 43 58 76 80 54 68 80 82 76 100 100 100 100 97 100 100 92 100 96 66
100 100 100 100 100 100 100 98 98 98 100 90 32 26 19 15 14 14 15 25 43 82 37 38 62 66 73 84 87 78 76 81 78 100 100 100 100 94 70 76 51 41 46 46
100 100 100 100 100 100 99 94 92 92 69 29 26 17 14 15 15 15 23 40 59 72 45 44 67 93 88 88 100 98 96 100 100 100 100 100 94 63 51 46 38 34 34 47

GFSNW_500_rhum_114.txt.gz
RH
11 12 12 12 12 11 12 10 12 16 10 9 9 16 32 21 22 20 30 35 21 30 66 74 71 69 59 52 38 51 77 75 46 34 99 97 100 86 80 88 99 83 66 91
10 10 9 8 8 7 7 7 6 6 6 6 6 6 5 5 5 12 16 28 43 92 80 77 62 82 71 62 80 100 59 42 24 100 100 87 84 86 84 96 100 91 79 79
12 11 10 9 8 8 8 8 7 6 6 6 6 5 5 6 6 5 10 37 61 100 71 44 87 75 64 100 96 24 22 41 51 90 100 100 85 96 85 96 96 97 74 80
13 12 12 11 11 11 11 10 9 8 8 7 6 11 12 11 8 7 17 46 80 52 57 100 97 68 58 43 16 8 9 22 71 82 95 96 94 100 100 96 100 91 78 79
22 19 17 15 14 14 13 15 14 16 19 40 43 36 32 35 27 33 68 41 41 75 46 56 87 100 97 92 13 7 11 56 83 82 85 90 100 100 99 100 98 82 82 75
32 30 26 27 27 26 22 18 21 94 63 70 100 64 36 26 37 50 27 36 100 100 88 49 23 19 21 11 17 34 44 82 89 96 100 100 94 95 100 99 100 95 82 81
45 43 43 39 36 31 29 29 35 84 99 100 69 35 59 63 78 100 75 72 99 100 96 93 83 42 20 19 26 53 74 99 99 100 100 100 84 98 100 98 98 92 75 86
50 45 41 37 34 32 32 41 98 100 100 86 45 77 62 99 65 76 100 100 72 82 93 62 59 66 46 43 58 79 95 100 100 100 100 98 96 100 100 100 94 86 91 80
42 39 35 29 24 20 20 18 100 100 84 78 82 100 100 98 80 45 49 100 100 99 88 67 82 89 69 88 97 92 100 100 100 100 100 97 96 100 100 97 81 67 42 19
24 24 23 20 22 35 22 74 100 98 73 88 84 99 96 96 91 37 41 91 98 100 92 100 100 95 100 99 100 100 100 100 100 100 98 90 91 100 93 54 28 19 10 12
25 22 20 21 45 36 94 100 98 81 72 75 79 78 84 57 78 42 36 90 78 86 76 93 100 99 100 100 100 100 100 100 100 100 94 84 88 48 17 15 15 17 14 16
19 18 25 96 48 83 100 100 92 78 90 58 51 51 49 82 88 67 77 100 99 100 100 98 100 100 100 98 100 100 99 91 100 100 98 57 11 9 11 14 18 17 34 46
29 33 100 100 100 100 100 94 78 67 46 75 100 99 86 78 78 69 91 95 100 100 99 98 98 100 99 96 99 100 97 100 96 86 42 10 12 19 22 19 22 39 71 59
48 100 100 100 99 90 56 62 66 52 81 80 100 95 100 93 96 100 100 99 96 94 94 92 100 100 100 100 100 100 98 95 55 16 10 22 25 20 22 22 31 59 77 67
98 99 100 100 100 92 50 56 78 100 75 85 98 100 100 100 95 95 98 99 98 97 97 99 100 100 100 100 97 96 68 31 12 9 9 25 21 25 25 26 40 66 86 82
100 100 100 94 49 54 99 100 100 82 80 86 89 96 100 100 100 100 98 99 98 100 100 100 100 100 100 100 85 60 38 18 9 7 9 13 22 28 26 28 38 76 92 94
88 66 50 49 67 94 79 76 77 87 79 78 84 88 94 100 100 96 93 100 100 99 100 100 100 96 80 47 39 50 36 13 8 7 8 14 24 34 34 33 53 88 92 100
100 81 48 72 90 100 99 99 96 91 90 84 87 96 100 95 98 100 100 100 90 92 100 81 73 46 22 17 17 15 12 11 10 9 8 8 12 39 49 46 81 93 97 100
64 55 61 84 100 100 97 100 100 99 96 100 100 99 95 100 100 100 100 98 99 96 79 28 24 18 18 18 17 15 13 12 12 10 9 8 9 12 45 56 79 90 100 100
75 78 90 100 100 100 100 100 100 100 100 100 100 100 100 99 94 100 100 89 66 71 76 59 42 23 21 18 18 18 18 16 15 14 12 10 10 11 23 51 69 86 90 100
100 81 70 97 100 100 100 100 99 100 100 100 100 99 100 98 99 96 95 99 94 86 54 44 24 21 20 18 16 14 13 13 13 14 14 12 11 10 13 48 69 89 92 100
94 100 100 100 100 98 99 99 97 98 99 100 100 97 95 96 99 96 84 59 42 23 22 18 15 15 14 15 18 19 19 20 21 25 22 17 15 16 28 40 79 93 93 100
99 100 100 100 97 95 95 90 97 100 100 100 100 100 100 95 95 69 32 23 22 16 14 14 14 34 36 27 22 22 20 19 22 35 63 54 35 24 58 84 100 100 100 100
100 100 98 92 86 89 100 100 100 100 100 98 100 99 92 87 47 25 24 17 14 13 14 36 52 38 46 45 30 32 39 46 54 66 70 66 57 88 99 100 100 100 100 100
100 100 100 88 96 100 95 100 100 100 97 96 99 97 94 44 25 22 15 14 12 17 49 76 43 38 54 62 44 42 57 65 68 81 86 76 100 100 100 100 100 100 100 100
100 100 100 100 100 96 98 97 100 100 100 100 98 83 29 25 18 14 14 14 18 40 53 36 36 63 67 70 75 54 48 64 77 85 100 100 100 100 100 100 100 100 100 100
100 100 100 100 100 100 100 100 96 92 92 98 54 27 23 16 15 15 14 17 36 75 42 46 38 78 80 83 91 86 91 73 62 86 100 100 100 100 100 100 100 100 100 100

GFSNW_500_rhum_117.txt.gz
RH
23 33 46 91 100 100 97 100 98 100 100 100 100 90 81 71 64 66 62 63 57 51 36 36 42 43 38 36 32 42 55 96 87 85 100 87 83 44 87 88 93 93 88 62
23 21 26 31 37 50 87 96 99 95 45 33 74 81 71 66 67 59 38 27 31 31 33 47 42 38 28 57 63 80 82 88 72 72 76 66 42 39 100 100 94 80 85 65
26 26 27 25 24 23 21 22 25 21 20 40 21 21 22 20 17 15 12 11 14 16 17 30 36 30 61 72 73 76 92 96 86 95 96 39 34 87 100 100 92 78 84 67
30 32 31 28 27 24 25 20 16 15 13 12 9 10 9 8 7 7 7 6 6 10 32 39 54 43 72 88 53 52 81 96 100 100 60 17 28 93 98 100 78 91 94 84
27 24 27 30 28 30 32 29 17 12 10 10 9 10 9 8 8 8 8 8 11 43 62 57 58 94 100 81 59 100 88 87 100 59 21 13 38 100 83 71 89 100 96 82
44 44 25 21 19 20 23 22 21 15 13 13 14 11 11 16 36 25 15 11 18 29 18 65 75 98 79 63 83 100 100 99 100 37 14 46 78 63 87 93 100 100 85 96
48 51 49 35 31 24 20 16 17 19 18 17 18 18 32 47 59 39 43 36 27 33 85 53 99 100 89 58 55 100 100 93 27 16 30 82 80 93 100 100 100 92 94 94
56 47 47 46 46 42 35 29 27 23 17 26 21 41 55 38 35 37 35 68 66 65 99 100 100 100 100 90 70 54 36 20 24 58 54 70 70 82 95 100 100 97 94 94
86 66 61 58 52 48 41 40 39 35 34 72 55 50 73 77 67 41 40 52 82 93 88 100 100 100 100 99 100 67 51 62 93 86 86 79 78 100 100 100 92 100 100 98
78 74 66 59 56 50 44 39 37 41 40 87 99 100 92 100 100 61 62 58 98 100 100 82 89 86 91 70 53 61 90 100 94 100 94 88 95 100 98 96 97 96 79 58
52 55 56 51 46 43 39 36 36 49 92 100 100 97 95 100 94 71 85 82 65 97 100 99 77 59 49 56 85 100 97 100 99 100 92 85 96 100 100 100 91 53 30 15
40 41 39 37 33 29 26 27 24 64 100 100 94 97 94 96 93 63 80 51 49 79 100 100 83 99 100 99 100 99 98 94 100 100 95 98 100 100 99 69 33 14 15 12
30 28 26 23 21 32 54 59 47 97 100 100 97 81 83 94 75 79 81 49 75 98 100 100 93 95 93 96 95 100 99 100 100 100 95 98 100 77 13 9 13 16 15 27
38 25 28 47 70 65 75 100 100 100 100 98 73 69 81 54 79 100 93 75 78 100 99 93 94 100 100 92 92 99 100 100 100 98 100 99 74 13 15 25 18 17 32 46
42 92 100 100 58 100 100 100 100 100 86 80 94 93 96 92 98 100 85 68 87 94 88 86 84 80 94 91 96 99 100 100 99 99 76 39 17 22 24 20 20 26 48 60
100 100 100 100 100 100 100 100 94 66 81 100 100 100 100 98 90 100 80 98 100 100 93 81 89 100 100 100 100 100 100 97 93 50 14 12 25 28 22 22 24 30 51 71
100 99 99 100 100 100 60 61 65 60 100 94 98 100 99 99 98 99 100 99 92 90 87 91 100 100 97 99 100 100 89 76 48 20 12 14 18 23 26 26 26 27 46 71
93 100 100 100 98 94 98 88 98 84 75 78 90 92 95 97 100 100 95 97 90 94 100 100 100 100 100 100 99 84 72 62 27 14 11 11 17 22 31 34 32 39 71 86
100 100 100 63 90 100 100 99 76 57 61 59 68 74 77 77 84 98 90 93 100 99 100 98 96 95 72 49 24 20 20 16 14 12 11 10 9 10 22 38 39 52 85 95
87 64 74 100 100 100 100 100 94 80 90 86 92 95 94 97 89 92 100 100 100 100 100 84 70 53 25 21 20 18 18 17 16 14 13 12 11 10 11 22 42 50 86 96
53 78 100 100 100 100 100 100 100 100 100 100 100 100 100 99 100 100 100 93 77 78 67 55 54 60 57 49 31 21 19 19 18 18 17 16 15 14 11 10 22 52 72 96
70 100 100 100 100 100 100 99 99 100 98 94 94 93 85 91 100 100 100 98 92 94 82 72 56 47 27 20 17 16 16 15 15 15 15 16 16 16 14 14 14 34 61 92
100 100 100 100 97 93 92 91 98 96 97 100 100 100 100 96 98 97 85 88 54 40 26 21 16 15 14 16 23 21 18 17 17 15 14 16 21 26 19 18 22 35 70 98
100 100 97 96 86 87 100 100 100 100 100 100 100 99 100 100 100 90 52 27 24 19 14 13 13 24 32 31 32 24 23 23 22 21 21 26 40 66 44 28 39 71 100 100
98 100 100 96 98 100 100 100 92 94 100 100 100 98 89 88 69 35 24 21 16 13 13 18 39 33 34 48 49 37 30 35 41 50 63 79 85 78 65 96 100 100 100 100
100 98 100 100 100 100 100 99 100 100 99 98 97 98 99 84 31 24 18 14 14 14 17 36 29 34 53 49 61 70 58 42 52 70 79 87 95 92 100 100 100 100 100 100
100 100 100 100 100 100 100 100 100 99 100 100 100 100 54 26 22 15 15 15 14 17 42 39 32 30 59 66 82 98 98 97 55 64 100 100 100 100 100 100 100 100 100 100

GFSNW_500_rhum_120.txt.gz
RH
100 100 55 73 100 100 100 100 99 99 100 100 98 91 69 76 71 79 81 72 70 68 74 73 72 64 63 61 54 47 40 44 39 40 46 78 78 93 100 100 95 57 42 38
100 100 79 41 66 100 100 100 100 100 100 100 98 93 82 86 84 86 85 81 79 83 78 67 62 60 50 39 37 41 64 100 98 92 85 88 100 100 100 98 77 36 81 78
100 100 100 50 40 54 87 100 100 100 100 100 100 100 94 97 93 97 99 89 85 75 66 56 48 38 42 43 47 51 100 94 86 73 93 95 86 75 82 100 47 69 100 93
100 100 100 72 44 49 56 51 62 94 100 97 96 100 94 88 78 80 76 73 72 55 42 31 21 23 29 28 35 47 59 87 100 99 99 100 99 85 84 93 24 37 82 100
90 96 100 86 48 56 66 61 54 41 40 58 98 98 89 94 95 100 92 61 40 18 13 11 11 12 11 9 27 45 61 71 100 93 96 92 100 91 80 86 22 54 100 88
100 100 100 86 46 53 66 74 77 63 39 34 32 27 31 30 23 19 20 14 11 10 11 16 17 14 25 45 68 74 90 99 100 94 93 100 92 62 80 39 14 16 68 72
88 99 98 97 87 47 49 55 59 55 38 32 28 26 22 20 18 15 17 14 12 10 9 9 9 15 42 51 45 40 56 99 100 100 99 100 84 73 60 17 18 52 47 80
100 91 92 99 99 73 33 36 51 73 31 27 23 20 19 18 24 13 13 13 13 16 18 26 39 38 17 10 90 87 98 100 100 94 69 86 82 57 23 20 39 72 91 88
100 100 100 100 100 100 77 40 39 29 24 19 19 20 17 18 17 16 16 32 35 29 26 40 43 16 20 33 93 100 100 100 100 89 76 57 23 13 34 47 49 81 90 93
86 90 100 100 100 100 79 60 50 44 26 25 34 30 40 48 81 43 42 47 65 53 50 91 100 90 81 99 100 100 100 100 100 84 52 22 23 57 80 72 80 99 95 100
88 95 100 100 100 100 87 68 64 51 39 41 39 42 53 78 86 63 85 87 55 70 75 56 89 100 87 98 100 92 99 87 74 57 66 49 71 80 95 100 100 100 100 100
70 87 100 100 100 100 83 68 54 50 39 43 48 96 100 98 100 99 100 93 83 86 84 87 99 100 99 88 75 70 62 58 73 99 77 86 86 97 100 100 99 97 100 82
66 82 94 99 90 85 68 61 50 42 41 65 78 100 95 99 100 99 84 73 100 100 95 92 91 89 100 100 91 93 81 72 73 77 76 88 100 100 100 99 99 92 30 15
48 53 56 56 56 52 46 43 41 38 55 87 87 84 78 82 74 97 89 88 94 67 60 86 74 100 83 100 80 88 93 92 90 86 90 98 100 100 100 99 30 13 20 18
76 38 32 32 30 30 54 76 56 43 81 86 90 98 96 86 77 88 81 81 76 76 100 96 100 98 99 100 94 80 88 99 100 100 99 95 98 98 97 47 21 25 19 23
88 43 62 92 99 100 100 100 98 100 100 100 100 100 100 83 76 67 88 100 95 100 100 100 88 95 82 74 65 81 92 98 97 100 100 100 99 53 25 22 27 22 22 37
68 94 100 100 100 100 91 94 100 100 100 99 100 100 100 98 83 90 92 98 100 90 99 96 95 80 72 81 91 94 93 91 100 100 100 78 19 20 30 30 26 25 25 36
100 100 100 100 100 100 100 100 100 100 100 100 100 100 100 100 98 100 100 100 96 97 86 76 69 78 88 98 100 96 90 100 100 93 60 22 14 21 38 34 30 27 28 33
100 100 100 100 100 97 98 100 100 100 100 100 100 100 100 96 99 100 91 90 91 83 86 87 85 90 100 100 100 97 95 92 80 49 20 13 15 20 30 33 33 31 34 58
91 99 100 100 100 100 100 100 100 100 95 90 79 75 77 79 79 79 88 87 87 94 98 98 97 100 100 99 54 27 24 21 22 17 17 15 14 12 14 25 31 30 35 63
97 97 86 100 100 100 98 95 99 87 67 56 56 62 68 73 98 100 94 95 98 98 99 100 90 89 71 34 23 23 22 20 20 19 19 18 17 16 15 14 14 25 44 58
96 98 93 92 100 100 100 100 97 80 84 78 78 93 96 90 98 100 96 97 91 83 70 79 48 55 64 63 54 37 29 24 21 19 19 18 18 18 18 17 15 14 18 54
100 100 100 100 98 98 100 98 97 99 100 99 100 100 99 91 98 100 99 99 94 91 89 81 62 38 25 19 16 16 18 19 17 16 16 16 16 15 16 19 18 16 18 39
100 100 100 100 100 99 100 100 100 100 100 100 100 100 100 100 100 94 88 89 65 36 25 20 16 14 14 25 29 30 32 26 22 22 21 19 17 17 17 18 29 21 24 41
100 100 100 99 100 100 100 99 100 100 98 100 100 100 100 100 100 99 68 29 24 18 14 13 13 27 30 30 41 43 43 34 28 26 26 21 24 28 47 72 60 52 85 85
100 100 99 100 100 100 100 100 98 95 95 99 100 100 100 92 89 42 25 22 16 14 14 16 29 26 27 43 42 58 66 56 37 36 42 57 73 88 98 97 85 100 100 100
98 100 100 100 100 100 100 100 100 100 100 100 100 100 100 97 46 25 17 15 15 14 15 31 28 24 26 48 52 70 78 78 47 50 62 84 99 97 89 99 100 100 100 100